[[{"header":{"parameterUnit":"m.s-1","parameterCategory":1,"la1":30.6,"la2":29.2853,"lo1":-89.7004,"lo2":-87.6739,"dx":0.0162,"dy":0.0183,"nx":112,"ny":82,"refTime":"2023-01-08T06:00:00:Z","depth":0,"parameterNumber":2,"parameterNumberName":"U-component_of_WINDS"},"data":[0.0,0.0,0.0,0.0,0.0,0.0,0.0,0.0,0.0,0.0,0.0,0.0,0.0,0.0,0.0,0.0,0.0,0.0,0.0,0.0,0.0,0.0,0.0,0.0,0.0,0.0,0.0,0.0,0.0,0.0,0.0,0.0,0.0,0.0,0.0,0.0,0.0,0.0,0.0,0.0,0.0,0.0,0.0,0.0,0.0,0.0,0.0,0.0,0.0,0.0,0.0,0.0,0.0,0.0,0.0,0.0,0.0,0.0,0.0,0.0,0.0,0.0,0.0,0.0,0.0,0.0,0.0,0.0,0.0,0.0,0.0,0.0,0.0,0.0,0.0,0.0,0.0,0.0,0.0,0.0,0.0,0.0,0.0,0.0,0.0,0.0,0.0,0.0,0.0,0.0,5.2582,5.5395,6.0242,6.2648,6.1053,5.98,5.639,5.0088,0.0,0.0,0.0,0.0,0.0,0.0,0.0,0.0,0.0,0.0,0.0,0.0,0.0,0.0,0.0,0.0,0.0,0.0,0.0,0.0,0.0,0.0,0.0,0.0,0.0,0.0,0.0,0.0,0.0,0.0,0.0,0.0,0.0,0.0,0.0,0.0,0.0,0.0,0.0,0.0,0.0,0.0,0.0,0.0,0.0,0.0,0.0,0.0,0.0,0.0,0.0,0.0,0.0,0.0,0.0,0.0,0.0,0.0,0.0,0.0,0.0,0.0,0.0,0.0,0.0,0.0,0.0,0.0,0.0,0.0,0.0,0.0,0.0,0.0,0.0,0.0,0.0,0.0,0.0,0.0,0.0,0.0,0.0,0.0,0.0,0.0,0.0,0.0,0.0,0.0,0.0,0.0,0.0,0.0,0.0,0.0,0.0,0.0,0.0,0.0,0.0,0.0,0.0,0.0,5.2664,6.0133,6.2358,6.2829,6.1677,6.0557,5.761,5.2179,0.0,0.0,0.0,0.0,0.0,0.0,0.0,0.0,0.0,0.0,0.0,0.0,0.0,0.0,0.0,0.0,0.0,0.0,0.0,0.0,0.0,0.0,0.0,0.0,0.0,0.0,0.0,0.0,0.0,0.0,0.0,0.0,0.0,0.0,0.0,0.0,0.0,0.0,0.0,0.0,0.0,0.0,0.0,0.0,0.0,0.0,0.0,0.0,0.0,0.0,0.0,0.0,0.0,0.0,0.0,0.0,0.0,0.0,0.0,0.0,0.0,0.0,0.0,0.0,0.0,0.0,0.0,0.0,0.0,0.0,0.0,0.0,0.0,0.0,0.0,0.0,0.0,0.0,0.0,0.0,0.0,0.0,0.0,0.0,0.0,0.0,0.0,0.0,0.0,0.0,0.0,0.0,0.0,0.0,0.0,0.0,0.0,0.0,0.0,0.0,0.0,0.0,0.0,5.3241,5.7786,6.3557,6.4897,6.4936,6.3845,6.1947,5.838,5.2648,4.8157,0.0,0.0,0.0,0.0,0.0,0.0,0.0,0.0,0.0,0.0,0.0,0.0,0.0,0.0,0.0,0.0,0.0,0.0,0.0,0.0,0.0,0.0,0.0,0.0,0.0,0.0,0.0,0.0,0.0,0.0,0.0,0.0,0.0,0.0,0.0,0.0,0.0,0.0,0.0,0.0,0.0,0.0,0.0,0.0,0.0,0.0,0.0,0.0,0.0,0.0,0.0,0.0,0.0,0.0,0.0,0.0,0.0,0.0,0.0,0.0,0.0,0.0,0.0,0.0,0.0,0.0,0.0,0.0,0.0,0.0,0.0,0.0,0.0,0.0,0.0,0.0,0.0,0.0,0.0,0.0,0.0,0.0,0.0,0.0,0.0,0.0,0.0,0.0,0.0,0.0,0.0,0.0,0.0,0.0,0.0,0.0,0.0,0.0,0.0,0.0,0.0,0.0,5.9017,6.3018,6.5634,6.6737,6.6932,6.5977,6.3406,5.9315,5.3371,4.8607,0.0,0.0,0.0,0.0,0.0,0.0,0.0,0.0,0.0,0.0,0.0,0.0,0.0,0.0,0.0,0.0,0.0,0.0,0.0,0.0,0.0,0.0,0.0,0.0,0.0,0.0,0.0,0.0,0.0,0.0,0.0,0.0,0.0,0.0,0.0,0.0,0.0,0.0,0.0,0.0,0.0,0.0,0.0,0.0,0.0,0.0,0.0,0.0,0.0,0.0,0.0,0.0,0.0,0.0,0.0,0.0,0.0,0.0,0.0,0.0,0.0,0.0,0.0,0.0,0.0,0.0,0.0,0.0,0.0,0.0,0.0,0.0,0.0,0.0,0.0,0.0,0.0,0.0,0.0,0.0,0.0,0.0,0.0,0.0,0.0,0.0,0.0,0.0,0.0,0.0,0.0,0.0,0.0,0.0,0.0,0.0,0.0,0.0,0.0,0.0,0.0,0.0,6.0012,6.5634,6.5859,6.7132,6.7664,6.7057,6.4708,6.0887,5.534,4.993,0.0,0.0,0.0,0.0,0.0,0.0,0.0,0.0,0.0,0.0,0.0,0.0,0.0,0.0,0.0,0.0,0.0,0.0,0.0,0.0,0.0,0.0,0.0,0.0,0.0,0.0,0.0,0.0,0.0,0.0,0.0,0.0,0.0,0.0,0.0,0.0,0.0,0.0,0.0,0.0,0.0,0.0,0.0,0.0,0.0,0.0,0.0,0.0,0.0,0.0,0.0,0.0,0.0,0.0,0.0,0.0,0.0,0.0,0.0,0.0,0.0,0.0,0.0,0.0,0.0,0.0,0.0,0.0,0.0,0.0,0.0,0.0,0.0,0.0,0.0,0.0,0.0,0.0,0.0,0.0,0.0,0.0,0.0,0.0,0.0,0.0,0.0,0.0,0.0,0.0,0.0,0.0,0.0,0.0,0.0,0.0,0.0,0.0,0.0,0.0,0.0,0.0,6.0589,6.5897,0.0,6.8747,6.8805,6.8219,6.5446,6.1346,5.5818,0.0,0.0,0.0,0.0,0.0,0.0,0.0,0.0,0.0,0.0,0.0,0.0,0.0,0.0,0.0,0.0,0.0,0.0,0.0,0.0,0.0,0.0,0.0,0.0,0.0,0.0,0.0,0.0,0.0,0.0,0.0,0.0,0.0,0.0,0.0,0.0,0.0,0.0,0.0,0.0,0.0,0.0,0.0,0.0,0.0,0.0,0.0,0.0,0.0,0.0,0.0,0.0,0.0,0.0,0.0,0.0,0.0,0.0,0.0,0.0,0.0,0.0,0.0,0.0,0.0,0.0,0.0,0.0,0.0,0.0,0.0,0.0,0.0,0.0,0.0,0.0,0.0,0.0,0.0,0.0,0.0,0.0,0.0,0.0,0.0,0.0,0.0,0.0,0.0,0.0,0.0,0.0,0.0,0.0,0.0,0.0,0.0,0.0,0.0,0.0,0.0,0.0,5.5423,6.1958,6.7176,0.0,7.0261,6.9934,6.923,6.6243,6.1826,5.5735,0.0,0.0,0.0,0.0,0.0,0.0,0.0,0.0,0.0,0.0,0.0,0.0,0.0,0.0,0.0,0.0,0.0,0.0,0.0,0.0,0.0,0.0,0.0,0.0,0.0,0.0,0.0,0.0,0.0,0.0,0.0,0.0,0.0,0.0,0.0,0.0,0.0,0.0,0.0,0.0,0.0,0.0,0.0,0.0,0.0,0.0,0.0,0.0,0.0,0.0,0.0,0.0,0.0,0.0,0.0,0.0,0.0,0.0,0.0,0.0,0.0,0.0,0.0,0.0,0.0,0.0,0.0,0.0,0.0,0.0,0.0,0.0,0.0,0.0,0.0,0.0,0.0,0.0,0.0,0.0,0.0,0.0,0.0,0.0,0.0,0.0,0.0,0.0,0.0,0.0,0.0,0.0,0.0,0.0,0.0,0.0,0.0,0.0,0.0,0.0,0.0,0.0,5.6434,6.4209,6.9942,7.1526,7.1455,7.0946,7.0073,6.7248,6.2466,0.0,0.0,0.0,0.0,0.0,0.0,0.0,0.0,0.0,0.0,0.0,0.0,0.0,0.0,0.0,0.0,0.0,0.0,0.0,0.0,0.0,0.0,0.0,0.0,0.0,0.0,0.0,0.0,0.0,0.0,0.0,0.0,0.0,0.0,0.0,0.0,0.0,0.0,0.0,0.0,0.0,0.0,0.0,0.0,0.0,0.0,0.0,0.0,0.0,0.0,0.0,0.0,0.0,0.0,0.0,0.0,0.0,0.0,0.0,0.0,0.0,0.0,0.0,0.0,0.0,0.0,0.0,0.0,0.0,0.0,0.0,0.0,0.0,0.0,0.0,0.0,0.0,0.0,0.0,0.0,0.0,0.0,0.0,0.0,0.0,0.0,0.0,0.0,0.0,0.0,0.0,0.0,0.0,0.0,0.0,0.0,0.0,0.0,0.0,0.0,0.0,0.0,0.0,5.7939,6.5199,7.0565,7.2428,7.2392,7.1797,7.0706,6.8233,6.3446,5.5823,0.0,0.0,0.0,0.0,0.0,0.0,0.0,0.0,0.0,0.0,0.0,0.0,0.0,0.0,0.0,0.0,0.0,0.0,0.0,0.0,0.0,0.0,0.0,0.0,0.0,0.0,0.0,0.0,0.0,0.0,0.0,0.0,0.0,0.0,0.0,0.0,0.0,0.0,0.0,0.0,0.0,0.0,0.0,0.0,0.0,0.0,0.0,0.0,0.0,0.0,0.0,0.0,0.0,0.0,0.0,0.0,0.0,0.0,0.0,0.0,0.0,0.0,0.0,0.0,0.0,0.0,0.0,0.0,0.0,0.0,0.0,0.0,0.0,0.0,0.0,0.0,0.0,0.0,0.0,0.0,0.0,0.0,0.0,0.0,0.0,0.0,0.0,0.0,0.0,0.0,0.0,0.0,0.0,0.0,0.0,0.0,0.0,0.0,0.0,0.0,0.0,0.0,5.9394,6.6455,7.1626,7.3437,7.3222,7.2611,7.1782,6.9423,6.5179,5.8511,0.0,0.0,0.0,0.0,0.0,0.0,0.0,0.0,0.0,0.0,0.0,0.0,0.0,0.0,0.0,0.0,0.0,0.0,0.0,0.0,0.0,0.0,0.0,0.0,0.0,0.0,0.0,0.0,0.0,0.0,0.0,0.0,0.0,0.0,0.0,0.0,0.0,0.0,0.0,0.0,0.0,0.0,0.0,0.0,0.0,0.0,0.0,0.0,0.0,0.0,0.0,0.0,0.0,0.0,0.0,0.0,0.0,0.0,0.0,0.0,0.0,0.0,0.0,0.0,0.0,0.0,0.0,0.0,0.0,0.0,0.0,0.0,0.0,0.0,0.0,0.0,0.0,0.0,0.0,0.0,0.0,0.0,0.0,0.0,0.0,0.0,0.0,0.0,0.0,0.0,0.0,0.0,0.0,0.0,0.0,0.0,0.0,0.0,0.0,0.0,0.0,0.0,6.0691,6.7675,7.2779,7.4426,7.3914,7.3323,7.2917,7.0694,6.7203,6.2219,0.0,0.0,0.0,0.0,0.0,0.0,0.0,0.0,0.0,0.0,0.0,0.0,0.0,0.0,0.0,0.0,0.0,0.0,0.0,0.0,0.0,0.0,0.0,0.0,0.0,0.0,0.0,0.0,0.0,0.0,0.0,0.0,0.0,0.0,0.0,0.0,0.0,0.0,0.0,0.0,0.0,0.0,0.0,0.0,0.0,0.0,0.0,0.0,0.0,0.0,0.0,0.0,0.0,0.0,0.0,0.0,0.0,0.0,0.0,0.0,4.3399,0.0,0.0,0.0,0.0,0.0,0.0,0.0,0.0,0.0,0.0,0.0,0.0,0.0,0.0,0.0,0.0,0.0,0.0,0.0,0.0,0.0,0.0,0.0,0.0,0.0,0.0,0.0,0.0,0.0,0.0,0.0,0.0,0.0,0.0,0.0,0.0,0.0,0.0,0.0,0.0,0.0,6.1216,6.7793,7.2504,7.4395,7.4254,7.3714,7.2969,7.1268,6.8114,6.312,5.8877,0.0,0.0,0.0,0.0,0.0,0.0,0.0,0.0,0.0,0.0,0.0,0.0,0.0,0.0,0.0,0.0,0.0,0.0,0.0,0.0,0.0,0.0,0.0,0.0,0.0,0.0,0.0,0.0,0.0,0.0,0.0,0.0,0.0,0.0,0.0,0.0,0.0,0.0,0.0,0.0,0.0,0.0,0.0,0.0,0.0,0.0,0.0,0.0,0.0,0.0,0.0,0.0,0.0,0.0,0.0,0.0,0.0,0.0,0.0,0.0,4.3356,0.0,0.0,0.0,0.0,0.0,0.0,0.0,0.0,0.0,0.0,0.0,0.0,0.0,0.0,0.0,0.0,0.0,0.0,0.0,0.0,0.0,0.0,0.0,0.0,0.0,0.0,0.0,0.0,0.0,0.0,0.0,0.0,0.0,0.0,0.0,0.0,0.0,0.0,0.0,0.0,6.2437,6.8531,7.2801,7.427,7.3898,7.3409,7.2921,7.1794,6.9616,6.6226,6.2181,0.0,0.0,0.0,0.0,0.0,0.0,0.0,0.0,0.0,0.0,0.0,0.0,0.0,0.0,0.0,0.0,0.0,0.0,0.0,0.0,0.0,0.0,0.0,0.0,0.0,0.0,0.0,0.0,0.0,0.0,0.0,0.0,0.0,0.0,0.0,0.0,0.0,0.0,0.0,0.0,0.0,0.0,0.0,0.0,0.0,0.0,0.0,0.0,0.0,0.0,0.0,0.0,0.0,0.0,4.8255,4.9034,4.9933,5.1022,5.2006,4.814,4.7316,4.8445,0.0,0.0,0.0,0.0,0.0,0.0,0.0,0.0,0.0,0.0,0.0,0.0,0.0,0.0,0.0,0.0,0.0,0.0,0.0,0.0,0.0,0.0,0.0,0.0,0.0,5.3004,5.4589,0.0,0.0,0.0,0.0,0.0,0.0,0.0,0.0,0.0,0.0,0.0,0.0,6.4557,6.9917,7.3521,7.4486,7.3859,7.3296,7.3146,7.2395,7.1182,6.953,6.5448,6.1768,0.0,0.0,0.0,0.0,0.0,0.0,0.0,0.0,0.0,0.0,0.0,0.0,0.0,0.0,0.0,0.0,0.0,0.0,0.0,0.0,0.0,0.0,0.0,0.0,0.0,0.0,0.0,0.0,0.0,0.0,0.0,0.0,3.8573,3.894,0.0,0.0,0.0,0.0,0.0,0.0,0.0,0.0,0.0,0.0,0.0,0.0,0.0,0.0,4.7429,4.938,5.0326,5.0202,5.1657,5.2747,5.3472,5.362,5.4485,5.5792,5.3887,0.0,4.9783,4.8624,0.0,0.0,0.0,0.0,0.0,0.0,0.0,0.0,0.0,0.0,0.0,0.0,0.0,0.0,0.0,0.0,0.0,0.0,0.0,0.0,0.0,0.0,5.8205,5.8682,5.9208,5.9465,0.0,5.4581,5.061,5.0176,0.0,0.0,0.0,0.0,0.0,0.0,0.0,0.0,6.8576,7.2245,7.4599,7.61,7.5549,7.4798,7.4085,7.3258,7.2057,7.0442,6.9005,6.6151,6.1506,5.8614,0.0,0.0,0.0,0.0,0.0,0.0,0.0,0.0,0.0,0.0,0.0,0.0,0.0,0.0,0.0,0.0,0.0,0.0,0.0,0.0,0.0,0.0,0.0,0.0,0.0,0.0,0.0,0.0,0.0,3.8286,3.9879,4.1663,4.0762,3.9533,0.0,0.0,0.0,0.0,0.0,0.0,0.0,0.0,0.0,4.7278,4.777,4.8842,5.06,5.2213,5.3207,5.3506,5.4809,5.5734,5.628,5.628,5.6525,5.6916,5.647,5.5428,5.3891,5.117,4.9162,4.7689,0.0,0.0,0.0,0.0,0.0,4.9232,5.1274,0.0,0.0,0.0,0.0,0.0,0.0,0.0,0.0,0.0,0.0,0.0,0.0,0.0,0.0,6.1435,6.2462,6.316,6.316,6.0981,5.8145,0.0,5.3358,5.106,4.6816,0.0,0.0,0.0,0.0,0.0,6.9015,7.2357,7.4448,7.5162,7.4498,7.3859,7.3484,7.2695,7.1719,7.0555,7.0142,6.8527,6.5411,6.1994,5.76,0.0,0.0,0.0,0.0,0.0,0.0,0.0,0.0,0.0,0.0,0.0,0.0,0.0,0.0,0.0,0.0,0.0,0.0,0.0,0.0,0.0,0.0,0.0,0.0,0.0,0.0,0.0,0.0,4.1262,4.2587,4.4308,4.3512,4.2212,0.0,0.0,0.0,0.0,0.0,0.0,4.5624,4.5975,4.7279,4.98,5.0076,5.1208,5.34,5.4454,5.5271,5.5818,5.6877,5.7623,5.8104,5.8314,5.8449,5.8499,5.8333,5.8314,5.8055,5.4028,5.1925,5.1202,5.0046,4.9584,4.9684,5.1034,5.209,5.3187,5.5583,5.6221,5.5831,5.5233,0.0,5.183,5.0802,0.0,0.0,0.0,0.0,5.56,5.8033,0.0,6.1961,6.316,6.4371,6.5288,6.5288,6.4958,6.3564,0.0,5.8026,5.5706,5.1106,0.0,0.0,0.0,0.0,6.6575,7.0319,7.2958,7.461,7.4786,7.4047,7.3446,7.3258,7.2684,7.1832,7.0592,7.0705,7.0067,6.8377,6.5148,6.1731,5.8201,0.0,0.0,0.0,0.0,0.0,0.0,0.0,0.0,0.0,0.0,0.0,0.0,0.0,0.0,0.0,0.0,0.0,0.0,0.0,0.0,0.0,0.0,0.0,0.0,0.0,0.0,0.0,0.0,0.0,4.6319,4.7959,0.0,0.0,0.0,0.0,4.4525,4.7221,4.8799,4.852,5.0523,5.2108,5.3053,5.3758,5.4516,5.5343,5.6153,5.6583,5.6667,5.7393,5.8185,5.8944,5.9668,6.0771,6.2049,6.0218,6.023,6.1309,5.7775,5.6044,5.561,5.4843,5.4278,5.4177,5.651,5.7234,5.7338,5.9758,6.038,6.0077,6.0052,5.7923,5.5475,5.6161,5.4792,0.0,0.0,5.8804,6.0603,6.3111,6.4383,6.5068,6.5141,6.5251,6.5288,6.5288,6.404,6.3306,0.0,6.5164,6.4319,6.0932,0.0,6.3994,6.4697,6.6537,6.9579,7.446,7.5249,7.5624,7.6401,7.5774,7.4948,7.4186,7.4111,7.3071,7.063,7.1231,7.0882,6.923,6.8216,6.5749,6.1628,5.899,0.0,0.0,0.0,0.0,0.0,0.0,0.0,0.0,0.0,0.0,0.0,0.0,0.0,0.0,0.0,0.0,0.0,0.0,0.0,0.0,0.0,0.0,0.0,0.0,0.0,0.0,0.0,0.0,4.8883,4.9176,0.0,4.7128,4.7482,4.8065,4.8681,5.0027,5.0963,5.1321,5.2398,5.3357,5.4106,5.4855,5.5672,5.6662,5.7685,5.8662,5.9598,6.0623,6.1378,6.1889,6.2148,6.2451,6.2675,6.2271,6.2105,6.2124,6.1083,5.9857,5.8602,5.8355,5.8149,5.8163,5.9537,6.0122,6.0519,6.2198,6.2567,6.2217,6.2008,6.1178,6.0309,6.0554,6.0456,6.0456,6.1606,6.2695,6.3747,6.464,6.5485,6.6072,6.6072,6.6476,6.6843,6.6843,6.6366,6.6109,6.6733,6.5977,6.4691,6.2937,6.5161,6.6763,6.5421,6.8774,7.205,7.3802,7.516,7.582,7.5583,7.4992,7.4498,7.4223,7.3709,7.2996,7.2094,7.1343,7.0668,7.0067,6.923,6.7589,6.5083,6.3093,5.806,0.0,0.0,0.0,0.0,0.0,0.0,0.0,0.0,0.0,0.0,0.0,0.0,0.0,0.0,0.0,0.0,0.0,0.0,0.0,0.0,0.0,0.0,0.0,0.0,0.0,0.0,5.0063,4.9867,5.0477,5.0475,4.9229,4.98,5.072,5.1886,5.2761,5.3371,5.375,5.4551,5.531,5.6055,5.6799,5.7787,5.9025,5.9753,6.0631,6.1626,6.2627,6.326,6.3509,6.3749,6.3717,6.3485,6.3616,6.3605,6.3549,6.3671,6.3188,6.2354,6.1581,6.1265,6.1406,6.2459,6.2948,6.3211,6.4133,6.4416,6.4297,6.3804,6.3637,6.3637,6.3637,6.4053,6.4567,6.4824,6.5301,6.5765,6.6035,6.6512,6.688,6.688,6.7297,6.77,6.77,6.77,6.7774,6.8054,6.6937,6.5824,6.5517,6.7723,6.8943,6.7305,7.0599,7.3187,7.2914,7.4271,7.517,7.5035,7.4447,7.4216,7.4561,7.3071,7.232,7.2883,7.0855,6.9917,7.048,6.8854,6.7438,6.6397,6.3881,5.9074,5.1939,0.0,0.0,0.0,0.0,0.0,0.0,0.0,0.0,0.0,0.0,0.0,0.0,0.0,0.0,0.0,0.0,0.0,0.0,0.0,0.0,0.0,0.0,0.0,4.7194,5.0679,5.2211,4.922,5.2157,5.326,5.0336,5.2092,5.3534,5.3931,5.5348,5.6081,5.5818,5.7171,5.8287,5.9081,5.981,6.0892,6.2434,6.2415,6.2434,6.2502,6.3193,6.3511,6.3545,6.4275,6.4613,6.4566,6.4219,6.4697,6.5723,6.5459,6.5964,6.6742,6.4566,6.3705,6.3898,6.539,6.5735,6.5536,6.5756,6.6144,6.6439,6.5655,6.5398,6.5362,6.5362,6.5362,6.5545,6.6329,6.6549,6.6733,6.7517,6.77,6.77,6.77,6.77,6.77,6.7737,6.7737,6.7994,6.8788,6.8502,6.8402,6.9239,7.0224,7.092,7.0958,7.2319,0.0,7.2282,7.2914,7.3811,7.486,7.425,7.4212,7.5225,7.2357,7.1231,7.2845,6.9917,6.8828,7.048,6.7363,6.5561,6.5438,6.143,5.7713,5.4446,0.0,0.0,0.0,0.0,0.0,0.0,0.0,0.0,0.0,0.0,0.0,0.0,0.0,0.0,0.0,0.0,0.0,0.0,0.0,0.0,0.0,0.0,4.9345,4.9804,5.2321,5.3714,5.2653,5.3923,5.4475,5.3394,5.4346,5.5094,5.5195,5.5602,5.6515,5.7999,5.8472,5.9539,6.14,6.1637,6.2212,6.3193,6.2651,6.2922,6.4005,6.3646,6.3781,6.4309,6.4512,6.4613,6.46,6.4784,6.4922,6.5051,6.5771,6.6139,6.6198,6.611,6.6075,6.611,6.6532,6.7139,6.7761,6.8229,6.8303,6.8201,6.7967,6.7504,6.7026,6.7026,6.7026,6.71,6.7297,6.737,6.7407,6.7627,6.77,6.77,6.77,6.77,6.7847,6.8458,6.8568,6.8825,6.9596,6.9665,6.9861,7.0874,7.0795,7.0996,7.218,7.3075,0.0,7.41,7.5022,7.5421,7.4725,7.3922,7.3492,7.3562,7.2047,7.1874,7.3735,7.1858,7.0882,7.1343,6.9305,6.7052,6.467,6.1731,5.8605,0.0,0.0,0.0,0.0,0.0,0.0,0.0,0.0,0.0,0.0,0.0,0.0,0.0,0.0,0.0,0.0,0.0,0.0,0.0,0.0,0.0,0.0,5.0819,5.273,5.3349,5.456,5.4989,5.3919,5.5247,5.6079,5.5565,5.6461,5.7221,5.7543,5.8134,5.9066,6.0351,6.0704,6.1617,6.326,6.3328,6.3666,6.441,6.37,6.3734,6.458,6.4174,6.4208,6.4613,6.4613,6.4613,0.0,6.5022,6.5196,6.5224,6.6049,6.6383,0.0,0.0,0.0,0.0,0.0,6.7761,6.8763,6.8746,6.889,6.8995,6.868,6.8161,6.77,6.77,6.77,6.77,6.77,6.77,6.77,6.77,6.7958,6.8201,6.8201,6.8458,6.8839,6.9302,6.9412,6.9633,7.044,0.0,0.0,7.2318,7.1572,7.1388,7.2986,7.3492,7.3854,7.4331,7.525,7.5777,7.5431,7.4741,7.4483,7.4746,7.2424,0.0,0.0,0.0,6.9316,6.864,6.7991,0.0,0.0,0.0,0.0,0.0,0.0,0.0,0.0,5.405,5.3509,0.0,0.0,0.0,0.0,0.0,0.0,0.0,0.0,0.0,0.0,0.0,0.0,0.0,0.0,0.0,0.0,5.389,5.6562,5.7002,5.7137,5.6393,5.4262,5.6528,5.7983,5.7239,5.8573,5.9723,6.0317,6.1637,6.2468,6.2637,0.0,0.0,0.0,0.0,6.4918,6.5581,6.485,6.4478,6.4478,6.4377,6.4343,6.4343,6.4343,6.4343,6.4363,6.4824,6.522,6.5604,6.6139,6.6594,6.7076,6.7883,6.7707,6.7023,6.7165,6.7975,0.0,0.0,0.0,0.0,6.842,6.7903,6.762,6.762,6.762,6.7633,6.7797,6.7847,6.7847,6.7958,6.8495,6.9032,6.9032,6.9596,7.011,7.022,7.022,7.0477,7.127,7.1527,7.2041,7.356,7.2569,7.2092,7.3597,7.3891,7.3979,7.3979,7.4661,7.5514,7.6366,0.0,0.0,7.7063,7.3236,7.1813,7.4186,6.9928,6.6623,6.5045,6.5674,6.496,6.2557,6.2595,6.328,6.4595,6.467,6.4707,6.4557,5.7777,5.6711,0.0,0.0,0.0,0.0,0.0,0.0,0.0,0.0,0.0,0.0,0.0,0.0,0.0,0.0,0.0,5.3128,5.3957,5.5175,5.8168,5.9099,5.8863,5.7239,5.9167,6.0317,5.9539,6.14,6.2448,6.1975,6.2231,6.2922,6.4106,6.3748,0.0,6.5446,6.4918,6.4681,6.4816,6.4086,6.3714,6.3714,0.0,0.0,6.284,6.284,6.284,6.288,6.3582,6.3939,6.4138,6.5439,6.6391,6.7076,6.7883,6.7707,6.7147,6.8221,6.8783,6.9043,6.9317,6.9363,6.9219,6.8693,6.7843,6.7039,6.7039,6.7039,0.0,6.8349,6.8678,6.8825,6.9449,6.9743,6.9853,6.9853,7.0,7.0293,7.094,7.105,7.1307,7.2114,7.2789,7.3523,7.45,7.3854,7.356,7.45,7.5212,7.5652,7.5652,7.6335,7.6529,7.5644,7.5271,7.5189,7.5457,7.3802,7.3454,7.5075,7.2395,7.033,6.9327,6.9428,6.8677,6.6838,6.7428,6.7288,6.6322,6.6961,6.7288,6.7213,6.3761,6.2654,0.0,0.0,0.0,0.0,0.0,0.0,0.0,0.0,0.0,0.0,0.0,4.6297,4.7791,0.0,5.2396,5.5244,5.6325,5.7712,6.0317,6.1332,6.1095,5.9201,6.1028,6.2226,6.1839,6.3193,6.4038,6.4059,6.4377,6.4918,6.5662,6.5019,6.4918,6.5683,6.4613,6.4072,6.4072,6.3328,6.2956,6.2956,6.2584,6.2584,6.2956,6.2956,6.3159,6.3557,6.4343,6.4703,6.4794,6.5983,6.6672,6.7076,6.7883,6.7707,6.7076,6.7729,6.8258,6.8646,6.8907,6.9046,6.9065,6.8821,6.8291,6.7722,6.7722,6.7888,6.8248,6.8917,6.9305,6.9596,7.0,7.0403,7.0697,7.0697,7.1027,7.1394,7.1821,7.1894,7.2151,7.2936,7.3413,7.4074,7.5285,7.5506,7.5637,7.6041,7.6093,7.624,7.6628,7.7069,7.7041,7.6383,7.6317,7.6269,7.5995,7.4997,7.4311,7.4148,7.2996,7.1569,6.9906,7.0255,6.9917,6.8629,6.9418,6.9466,6.8651,6.9064,6.9015,6.8554,6.7326,6.6762,0.0,0.0,0.0,0.0,0.0,0.0,0.0,4.3267,4.3842,4.5548,4.753,4.9341,5.0541,5.2976,5.5378,5.7137,5.8829,6.0554,6.255,6.3328,6.3091,6.14,6.2821,6.3937,6.3937,6.4613,6.5256,6.5865,6.6474,6.6791,6.6791,6.5967,6.5514,6.5514,6.4072,6.3342,6.3511,6.2922,6.2685,6.284,6.2976,6.3294,6.3714,6.3849,6.4174,6.462,6.5441,6.5971,6.6334,6.6963,6.7339,6.755,6.8182,6.8041,6.7445,6.7304,6.7637,6.8199,6.8199,6.8505,6.8871,6.8803,6.8594,6.8342,6.8163,6.8521,6.9007,6.9113,6.9573,7.0075,7.0358,7.0885,7.1413,7.1499,7.2041,7.2496,7.2496,7.2606,7.2936,7.356,7.3942,7.4588,7.5873,7.6775,7.7362,7.7546,7.6995,7.6827,7.7472,7.7399,7.7289,7.7289,7.7532,7.7495,7.7033,7.6131,7.4939,7.3484,7.3371,7.2432,7.0281,7.0668,7.063,6.9943,7.048,7.0743,7.0743,7.0743,7.0367,6.968,6.968,6.953,4.0271,4.0735,4.2083,4.4688,4.4234,4.437,0.0,0.0,4.7887,5.0017,5.1742,5.2942,5.3078,5.4448,5.6477,5.9268,5.9404,6.0332,6.3869,6.441,6.4613,6.504,6.5311,6.5425,6.5425,6.6136,6.6588,6.6656,6.6757,6.6791,6.6791,6.5493,6.4715,6.4715,6.3294,6.2854,6.3477,6.3409,6.3734,6.4377,6.5019,6.5019,6.4512,6.5155,6.5121,6.462,6.5441,6.662,6.7949,6.8022,6.8498,6.9148,6.9218,6.9218,6.9043,6.8322,6.8129,6.8199,6.8199,6.8505,6.8837,6.8416,6.8099,6.7729,6.7034,6.7352,6.8071,6.8558,6.9185,7.0033,7.1225,7.1587,7.1766,7.2248,7.2422,7.2496,7.2496,7.3046,7.3611,7.3685,7.4845,7.5873,7.6056,7.6775,7.7546,7.8332,7.8369,7.8332,7.8442,7.7766,7.7289,7.7289,7.732,7.726,7.7019,7.6437,7.5832,7.5162,7.5098,7.4685,7.366,7.2996,7.2583,7.2507,7.1869,7.1558,7.1558,7.1558,7.152,7.1407,7.1407,7.0619,4.5581,4.5578,4.5621,4.7733,4.7767,4.7868,5.0067,4.983,4.983,5.208,5.3027,5.389,5.5175,5.6612,5.8303,0.0,6.1264,6.2463,6.4884,6.5222,6.5493,6.6237,6.6339,6.6339,6.6339,6.6643,6.6791,6.6791,6.6791,6.6791,6.6791,6.5797,6.5222,6.5222,6.4647,6.4241,6.414,6.458,6.4715,6.4613,6.5358,6.5764,6.5933,6.6643,6.7343,6.8015,6.8601,6.9114,6.9551,6.9551,6.9481,6.9394,6.9394,6.9394,6.9359,6.9024,6.8884,6.8884,6.8884,6.9048,6.9157,6.8957,6.8837,6.8664,6.8329,6.8646,6.9188,6.9391,6.9942,7.0545,7.1095,7.1216,7.1504,7.2474,7.2741,7.2963,7.3722,7.4147,7.4551,7.4992,7.5652,7.624,7.6702,7.7509,7.8185,7.8552,7.8589,7.8772,7.9229,7.8993,7.8589,7.8112,7.6905,7.6374,7.6958,7.6076,7.5695,7.6138,7.5662,7.5249,7.4911,7.4085,7.3672,7.3672,7.3322,7.2684,7.1708,7.1708,7.1445,7.1006,7.1006,7.0882,4.831,4.8453,4.8259,4.9729,5.0236,5.0574,5.1199,5.1199,5.1725,5.4194,5.4702,5.5277,5.707,5.8626,6.0129,6.167,6.297,6.4343,6.5797,6.6,6.6136,6.6474,6.6508,6.6508,6.6508,6.6677,6.6791,6.6791,6.7015,6.7096,6.7096,6.6406,6.6,6.6,6.5595,6.5222,6.4918,6.5446,6.5649,6.5527,6.6271,6.6914,6.7455,6.8091,6.9142,7.0435,7.0843,7.1047,7.1131,7.1131,7.0815,7.0307,7.0131,7.0026,7.0026,6.978,6.957,6.9394,6.9394,6.9394,6.9394,6.9394,6.9394,6.9359,6.9148,6.9457,6.992,6.992,7.0325,7.0884,7.1251,7.1357,7.1668,7.293,7.3218,7.3541,7.4652,7.505,7.538,7.5983,7.6276,7.6628,7.7215,7.7803,7.8332,7.8552,7.8589,7.8809,7.9412,7.925,7.8883,7.8295,7.6619,7.584,7.6587,7.5787,7.5533,7.6276,7.6187,7.5962,7.5737,7.5211,7.4798,7.4535,7.4298,7.3585,7.2384,7.2384,7.2094,7.1531,7.1531,7.1832,4.597,4.698,4.8259,4.9729,5.0642,5.1742,5.3957,5.3923,5.4228,5.7155,5.7764,5.8035,5.8776,6.0182,6.1704,6.3173,6.4072,6.5087,6.6555,6.6757,6.6508,6.5818,6.5751,6.5751,0.0,6.6373,6.6791,6.6791,6.7455,6.7861,6.7861,6.7184,6.6757,6.6757,6.5392,6.4952,6.5683,6.5683,6.6406,6.7793,6.8605,6.9011,6.9033,6.945,6.9913,7.0435,7.0843,7.1641,7.2746,7.2746,7.2711,7.2641,7.1903,7.1622,7.1533,7.0745,7.0007,6.9394,6.9394,6.9394,6.9394,6.9394,6.9394,6.9253,6.8463,6.8797,6.9412,6.9412,6.9939,7.0826,7.2119,7.2441,7.2727,7.3796,7.4074,7.4217,7.4799,7.5506,7.6056,7.6093,7.6738,7.7289,7.7289,7.7326,7.7619,7.8479,7.8589,7.8589,7.8626,7.7913,7.7362,7.7362,7.657,7.6015,7.5868,7.5787,7.5666,7.545,7.695,7.7426,7.6588,7.66,7.6225,7.5361,7.461,7.4148,7.4111,7.4111,7.4122,7.4073,7.4073,7.4111,4.8189,4.9754,5.1183,5.2722,5.4025,5.5141,5.5886,5.5886,5.5987,5.6968,5.7171,5.7408,5.8118,6.0317,6.2178,6.2685,6.4613,6.6237,6.6724,6.6791,6.6542,6.5764,6.5717,0.0,0.0,0.0,0.0,6.6724,6.6576,6.6643,6.7129,6.6927,6.6791,6.6791,6.6779,6.6677,6.644,6.7455,6.7929,6.7929,6.9214,7.0094,7.0567,7.0494,7.0828,7.1477,7.1694,7.2041,7.2424,7.27,7.25,7.2044,7.1798,7.1709,7.1674,7.1393,7.1131,7.092,7.092,7.0569,7.0113,7.0113,7.0113,7.0078,6.9797,7.0288,7.092,7.092,7.1096,7.1415,7.185,7.1976,7.2287,7.3547,7.383,7.4234,7.5641,7.6181,7.6475,7.6824,7.7105,7.7289,7.7289,7.7289,7.7582,7.8479,7.9507,8.0204,8.0204,7.947,7.9176,7.9711,7.8023,7.7031,7.7353,7.6405,7.59,7.6189,7.6751,7.7164,7.7464,7.7464,7.7351,7.7063,7.6225,7.5549,7.4986,7.446,7.4186,7.4186,7.3596,7.3672,5.048,5.1792,5.2875,5.5175,5.6292,5.6934,5.7476,5.7374,5.734,5.7881,5.734,5.7103,5.8118,6.0317,6.2009,6.2009,6.4478,6.6305,6.6047,6.6013,6.573,6.4986,6.4918,6.4715,0.0,0.0,0.0,6.6339,6.6203,6.6406,6.7151,6.7184,6.7184,6.7184,6.7421,6.7286,6.6791,6.8064,6.8673,6.8741,6.9992,7.0838,7.1312,7.1256,7.1528,7.1994,7.2244,7.2426,7.2623,7.2848,7.2645,7.2114,7.2114,7.2114,7.2114,7.2114,7.229,7.2446,7.1884,7.1358,7.092,7.092,7.092,7.092,7.092,7.1307,7.1744,7.2009,7.2114,7.2149,7.2465,7.2535,7.2795,7.384,7.4095,7.4529,7.6144,7.6521,7.6668,7.7196,7.7546,7.7766,7.7766,7.7986,7.8369,7.8919,8.0167,8.0901,8.0608,8.011,8.0,8.0534,7.9233,7.8308,7.8207,7.7341,7.675,7.6602,7.6588,7.6976,7.7852,7.7889,7.7889,7.7889,7.7351,7.6675,7.5812,7.5324,7.4911,7.461,7.4347,7.4385,5.2606,5.3112,5.3518,5.7121,5.7509,5.7408,5.8743,5.8524,5.8355,5.9607,5.822,5.7205,0.0,0.0,6.1298,6.1298,6.3768,6.5459,6.4749,6.4613,6.4343,0.0,0.0,0.0,0.0,0.0,0.0,6.5717,0.0,6.7117,6.7793,6.7827,6.7827,6.7827,6.7163,6.6825,6.6859,6.7624,6.8774,7.0263,7.0973,7.1289,7.1312,7.171,7.1929,7.1985,7.2334,7.2811,7.3273,7.3293,7.3123,7.2851,7.2851,7.2851,7.2851,7.2851,7.3343,7.3799,7.2325,7.1779,7.1744,7.1744,7.1744,7.1744,7.1744,7.1779,7.1974,7.2676,7.2851,7.3027,7.3799,7.401,7.4132,7.4636,7.4767,7.5064,7.6169,7.6455,7.6619,7.7223,7.806,7.8662,7.8662,7.9302,7.9816,7.9853,8.0498,8.0718,7.9963,7.9853,7.989,7.9926,8.0149,7.9749,7.848,7.8634,7.8177,7.6802,7.6701,7.7013,7.7814,7.7889,7.7889,7.7852,7.7852,7.7464,7.6663,7.6588,7.6187,7.5474,7.6187,7.6112,5.3652,5.5784,5.7627,5.9167,5.9844,6.008,5.9877,5.9674,5.9032,5.7187,5.6815,5.6596,5.5852,5.8795,0.0,6.1298,6.3768,0.0,6.5446,6.4952,0.0,6.3579,0.0,6.4343,6.4343,6.4478,0.0,0.0,6.669,6.6859,6.7062,6.7083,6.7083,6.7083,6.6893,6.7083,6.7624,6.8944,7.0094,7.1041,7.1188,7.1289,7.1312,7.087,7.0948,7.1479,7.1314,7.1853,7.279,7.3156,7.3472,7.3694,7.3694,7.3694,7.3694,7.3694,7.3834,7.394,7.3553,7.3027,7.2535,7.2535,7.2535,7.2535,7.2535,7.2957,7.3448,7.3624,7.3694,7.3729,7.394,7.401,7.4014,7.417,7.4209,7.4386,7.5082,7.5584,7.6251,7.7367,7.8629,7.9486,7.9486,7.9669,8.0,8.0608,8.0865,8.0938,8.0718,8.0681,8.0901,8.1525,8.1292,8.1059,8.0968,8.0125,7.9261,7.8491,7.7915,7.7389,7.7013,7.7589,7.7626,7.7013,7.7013,7.7201,7.7577,7.63,7.5924,7.63,7.5887,7.5286,5.5764,5.7509,5.893,6.0689,6.0926,6.0486,5.937,5.8863,5.8017,5.5683,5.5277,5.5209,5.4668,5.7983,6.0554,5.9911,6.2854,0.0,6.4363,6.3903,6.3599,0.0,6.4174,0.0,6.4613,6.5493,6.6136,0.0,6.6305,6.6474,6.6757,6.6791,6.6791,6.6791,6.6791,6.732,6.8402,6.9586,7.0567,7.1289,7.1289,7.1289,7.1289,7.0872,7.0906,7.1278,0.0,7.1627,7.2623,7.2873,7.338,7.401,7.401,7.401,7.401,7.401,7.401,7.401,7.401,7.3694,7.3343,7.3343,7.3343,7.3343,7.3343,7.3624,7.401,7.401,7.401,7.401,7.401,7.401,7.401,7.401,7.401,7.4151,7.4692,7.5081,7.589,7.786,7.9353,8.0424,8.0807,8.0844,8.1028,8.1452,8.1525,8.1415,8.1048,8.1305,8.1709,8.215,8.2154,8.2097,8.191,8.1143,8.0377,7.9704,7.8565,7.7701,7.7239,7.7664,7.7701,7.7239,7.7577,7.799,7.8403,7.7464,7.7089,7.7164,7.7089,7.66,5.8183,5.8761,5.8983,6.1622,6.1231,5.9844,5.8272,5.734,5.6325,5.4634,5.3856,5.3653,5.4211,5.7408,5.9573,5.8389,6.1704,6.4005,6.2719,6.257,6.2787,6.3409,6.4241,6.4783,6.4884,6.6643,6.7252,6.6068,6.592,6.6136,6.6757,6.6893,6.6994,6.7096,6.7117,6.7793,6.9214,6.9958,7.0669,7.1289,7.1289,7.1289,7.1289,7.1289,7.1289,7.1289,0.0,0.0,7.2517,7.2581,7.3135,7.3931,7.399,7.401,7.401,7.401,7.401,7.401,7.401,7.401,7.401,7.401,7.401,7.401,7.401,7.401,7.401,7.401,7.401,7.401,7.401,7.401,7.401,7.401,7.401,7.4132,7.4579,7.4965,7.6014,7.869,8.0226,8.1379,8.2076,8.2186,8.2186,8.2186,8.2186,8.1929,8.1269,8.1672,8.2039,8.2039,8.2567,8.2697,8.2125,8.1853,8.1407,8.0593,7.8978,7.8002,7.7889,7.7777,7.7701,7.7589,7.8365,7.8778,7.8778,7.8778,7.8478,7.7927,7.8628,7.8515,5.9104,6.0317,6.0858,6.1366,6.1298,6.052,5.8407,5.734,5.6021,5.3281,5.3145,5.3348,5.2807,5.6258,5.9302,5.9674,6.1955,6.3579,6.3342,6.3308,6.3342,6.3477,6.4681,6.573,6.6352,6.6779,0.0,0.0,0.0,6.6677,6.6791,6.7387,6.7996,6.8673,6.8707,6.9113,6.9992,7.0737,7.1154,7.1289,7.1289,7.1289,7.1289,7.1289,7.1289,7.1289,0.0,0.0,7.2137,7.2454,7.2894,7.3476,7.3872,7.401,7.401,7.401,7.401,7.401,7.401,7.401,7.401,7.401,7.401,7.401,7.401,7.401,7.401,7.401,7.401,7.401,7.401,7.401,7.401,7.401,7.401,7.403,7.4112,7.5929,7.8152,8.0246,8.1351,8.2039,8.2186,8.2186,8.2186,8.2186,8.2186,8.215,8.2003,8.1525,8.1232,8.1232,8.1753,8.2326,8.2846,8.2713,8.2257,8.1444,7.983,7.859,7.7927,7.7201,7.6525,7.5849,7.6638,7.7039,7.7039,7.7039,7.7314,7.7889,7.8039,7.7689,5.9836,6.0419,6.0317,6.1095,6.0723,5.9539,5.7273,5.5886,5.4465,5.2198,5.2013,5.2283,5.23,5.5344,5.8118,5.8829,6.0858,6.2482,6.2888,6.3599,6.4072,6.4072,6.5696,6.6812,6.6791,6.7151,6.7523,0.0,0.0,6.7387,6.7387,6.8098,6.8707,6.9079,6.9451,6.9823,7.0217,7.0939,7.1289,7.1289,7.1289,7.1289,7.1289,7.1289,7.1289,7.1289,7.1289,0.0,7.2029,7.2411,7.2887,7.3354,7.3797,7.401,7.401,7.401,7.401,7.401,7.401,7.401,7.401,7.401,7.401,7.401,7.401,7.401,7.401,7.401,7.401,7.401,7.401,7.401,7.401,7.401,7.4291,7.4572,7.4572,7.6499,7.8563,7.9803,8.0964,8.1835,8.2137,8.2186,8.2186,8.2186,8.2186,8.2039,8.1636,8.1232,8.1012,8.1012,8.1901,8.2511,8.2474,8.2689,8.2445,8.167,8.043,7.9191,7.7964,7.7502,7.6863,7.6037,7.6401,7.6588,7.6588,7.6588,7.6826,7.7276,7.7239,7.7276,6.008,6.0028,5.9284,6.052,5.9892,5.8404,5.6206,5.4549,5.3078,5.1505,5.1201,5.1438,5.2164,5.4634,5.69,5.7949,5.9911,6.1569,6.2299,6.3802,6.4783,6.4613,6.6406,6.7455,6.6859,6.732,0.0,0.0,0.0,0.0,6.8402,6.8977,6.9417,6.9586,6.9958,7.0285,7.0432,7.1007,7.1289,7.1289,7.1289,7.1289,7.1289,7.1289,7.1289,7.1289,7.1289,0.0,0.0,7.2403,7.2811,7.3197,7.3757,7.401,7.401,7.401,7.401,7.401,7.401,7.401,7.401,7.401,7.401,7.401,7.401,7.401,7.401,7.401,7.401,7.401,7.401,7.401,7.401,7.401,7.4572,7.5213,7.565,7.7176,7.8765,7.9666,8.0762,8.163,8.2121,8.2186,8.2186,8.2186,8.2186,8.1966,8.1342,8.1269,8.1195,8.1012,8.2086,8.266,8.2214,8.2726,8.2745,8.1895,8.0931,7.9729,7.8227,7.7852,7.7314,7.6588,7.6588,7.6588,7.6588,7.6588,7.6626,7.6675,7.6626,7.6976,5.9404,5.9641,5.9013,5.9182,5.9115,5.8404,5.6206,5.4549,5.3078,5.1505,5.1201,5.1438,5.2164,5.4211,5.6477,5.854,6.025,6.1569,6.2299,6.4262,6.5358,6.4681,6.5967,6.6859,6.6791,6.6859,0.0,0.0,0.0,0.0,7.0014,7.0082,7.0398,7.1086,7.05,7.05,7.1188,7.1255,7.1289,7.1289,7.1289,7.1289,7.1289,7.1289,7.1289,7.1289,0.0,0.0,0.0,7.2275,7.2623,7.2748,7.3657,7.401,7.401,7.401,7.401,7.401,7.401,7.401,7.401,7.401,7.401,7.401,7.401,7.401,7.401,7.401,7.401,7.401,7.401,7.401,7.401,7.401,7.4572,7.5611,7.7429,7.8511,7.9648,8.1563,8.2015,8.2137,8.2186,8.2186,8.2186,8.2186,8.2186,8.215,8.2113,8.2076,8.1819,8.1085,8.1605,8.2288,8.292,8.3587,8.3622,8.2745,8.1256,7.9992,7.9041,7.7577,7.6751,7.6588,7.6588,7.6588,7.6588,7.6588,7.6588,7.6588,7.6588,7.6675,5.9302,5.9235,5.8457,5.8878,5.8337,5.734,5.6003,5.4177,5.2469,5.1404,5.1201,5.1302,5.1573,5.3129,5.5108,5.734,5.8558,5.9674,6.0858,6.37,6.5256,6.4086,6.6034,6.7286,0.0,0.0,0.0,0.0,0.0,0.0,7.1582,7.1515,7.1447,7.1289,7.1041,7.1007,7.1289,7.1289,7.1289,7.1289,7.1289,7.1289,7.1289,7.1289,7.1289,7.1289,0.0,0.0,0.0,7.1985,7.2382,7.2665,7.3319,7.3737,7.401,7.401,7.401,7.401,7.401,7.401,7.401,7.401,7.401,7.401,7.401,7.401,7.401,7.401,7.401,7.401,7.401,7.401,7.4115,7.4537,7.5239,7.6172,7.741,7.8288,7.9264,8.0804,8.1108,8.1355,8.2088,8.2186,8.2186,8.2186,8.2186,8.2186,8.2186,8.2186,8.2076,8.1746,8.2138,8.2378,8.2385,8.3233,8.3511,8.2845,8.1294,8.003,7.9154,7.7051,7.5887,7.5887,7.5399,7.5387,7.5887,7.5387,7.5399,7.5887,7.5887,7.615,5.8693,5.8693,5.8017,5.8558,5.7746,5.6596,5.5868,5.3957,5.2164,5.1641,5.1336,5.1269,5.1472,5.2604,5.4228,5.6427,5.7408,5.8576,6.052,6.3429,6.5053,6.4241,6.617,6.7387,0.0,0.0,0.0,0.0,0.0,0.0,0.0,7.2529,7.2056,7.1323,7.1289,7.1289,7.1289,7.1289,7.1289,7.1289,7.1446,7.1446,7.1312,7.1446,7.1424,7.1289,0.0,0.0,0.0,7.1822,7.2232,7.2644,7.3115,7.3577,7.401,7.401,7.401,7.401,7.401,7.401,7.401,7.401,7.401,7.401,7.401,7.401,7.401,7.401,7.415,7.4326,7.4326,7.4501,7.4817,7.5309,7.6046,7.6824,7.75,7.8301,7.9236,8.0437,8.0857,8.1346,8.2368,8.2737,8.292,8.292,8.27,8.2553,8.2553,8.2333,8.2186,8.2186,8.2396,8.2468,8.2259,8.3083,8.3488,8.3183,8.167,8.0255,7.9154,7.6976,7.5662,7.5411,7.461,7.4723,7.5737,7.4948,7.4836,7.5411,7.5624,7.6187,5.7324,5.7934,5.79,5.7934,5.734,5.6596,5.5868,5.3957,5.23,5.23,5.1708,5.1404,5.2164,5.2942,5.4228,5.6427,5.7408,5.8949,6.196,6.3666,6.4884,6.5581,6.6339,6.6791,6.6791,0.0,0.0,0.0,0.0,0.0,0.0,7.28,7.2056,7.1323,7.1289,7.1289,7.1289,7.1289,7.1289,7.1312,7.1778,7.1756,7.1312,7.1766,7.1722,0.0,0.0,0.0,0.0,7.1822,7.2232,7.2644,7.3115,7.3577,7.401,7.401,7.401,7.401,7.401,7.401,7.401,7.401,7.401,7.401,7.401,7.401,7.401,7.401,7.4537,7.5083,7.5083,7.566,7.6257,7.6292,7.6854,7.7544,7.815,7.8946,7.985,8.1055,8.192,8.2678,8.3298,8.4058,8.4572,8.4572,8.3911,8.3381,8.3381,8.27,8.2186,8.2186,8.2203,8.2439,8.3047,8.3381,8.3726,8.4059,8.2496,8.0843,7.9191,7.7539,7.6262,7.5399,7.461,7.4974,7.6588,7.5774,7.5399,7.5399,7.6225,7.7051,5.5784,5.6021,5.575,5.6292,5.5074,5.3957,5.4769,5.3179,5.1674,5.2198,5.2131,5.2029,5.2266,5.2976,5.4397,5.7103,5.8186,5.9539,6.2062,6.4106,6.5256,6.4986,6.6034,6.7421,0.0,0.0,0.0,0.0,0.0,0.0,0.0,7.3297,7.2563,7.1323,7.1289,7.1289,7.1289,7.1289,7.1468,7.18,7.1602,7.1624,7.1766,7.1602,0.0,0.0,0.0,0.0,0.0,7.1468,7.1929,7.2623,7.2748,7.3299,7.401,7.401,7.401,7.401,7.401,7.401,7.401,7.401,7.401,7.401,7.401,7.401,7.401,7.401,7.4537,7.5118,7.5118,7.5695,7.6432,7.6924,7.7219,7.7597,7.8351,7.8729,7.9398,8.114,8.1705,8.2378,8.3927,8.4425,8.4609,8.4609,8.3911,8.3381,8.3381,8.27,8.2186,8.2186,8.2186,8.2439,8.3047,8.3194,8.3518,8.4046,8.202,8.028,7.9154,7.6976,7.5436,7.461,7.4347,7.4723,7.5774,7.5511,7.6011,7.7101,7.6826,7.7426,5.3737,5.4499,5.4634,5.4837,5.3568,5.2638,5.389,5.2638,5.1505,5.2536,5.2503,5.2401,5.2706,5.3179,5.4296,5.6664,5.7476,5.8945,6.2347,6.3734,6.4701,6.5358,6.6508,0.0,0.0,0.0,0.0,0.0,0.0,0.0,0.0,7.324,7.2529,7.1323,7.1289,7.1289,7.1289,7.1491,7.1624,7.1756,7.1788,7.1766,7.1756,7.1624,0.0,0.0,0.0,0.0,0.0,7.1289,7.1798,7.2602,7.2602,7.3176,7.401,7.401,7.401,7.401,7.401,7.401,7.401,7.401,7.401,7.401,7.401,7.401,7.401,7.401,7.4537,7.5188,7.5449,7.6116,7.6924,7.7661,7.7872,7.7977,7.849,7.8595,7.9117,8.0905,8.1705,8.2609,8.4402,8.5153,8.5527,8.5527,8.4572,8.3858,8.3858,8.2884,8.2186,8.2186,8.2186,8.2439,8.3047,8.3106,8.3324,8.3886,8.2281,8.0768,7.9642,7.7802,7.6112,7.4685,7.4648,7.5061,7.5849,7.6187,7.7051,7.8328,7.7539,7.7839,0.0,5.3078,5.4126,5.3416,5.2638,5.2198,5.3078,5.2114,0.0,5.3044,5.2773,5.2536,5.3348,5.3518,5.4025,5.5597,5.5902,5.7728,6.2868,6.3159,6.3903,6.6622,6.7624,0.0,0.0,0.0,0.0,0.0,0.0,0.0,0.0,7.2834,7.2124,7.1323,7.1289,7.1312,7.1356,7.181,7.181,7.1401,7.2189,7.2146,7.1356,7.1778,0.0,0.0,0.0,0.0,0.0,7.1289,7.181,7.2559,7.2602,7.3156,7.397,7.399,7.401,7.401,7.401,7.401,7.401,7.401,7.401,7.401,7.401,7.401,7.401,7.401,7.4537,7.5294,7.6081,7.6854,7.7605,7.8399,7.8595,7.8595,7.8595,7.8595,7.9049,8.0485,8.1868,8.3273,8.47,8.6096,8.6978,8.6978,8.5673,8.4646,8.4609,8.3251,8.2276,8.2219,8.2235,8.2455,8.3047,8.3106,8.3252,8.3602,8.3126,8.2107,8.0556,7.9604,7.799,7.5636,7.5511,7.5887,7.6701,7.7426,7.8253,7.9079,7.8215,7.8253,4.7902,0.0,5.1132,5.0963,4.9898,4.9273,0.0,5.0168,4.9932,5.1438,5.2063,5.2536,5.3348,5.3518,5.4363,5.6968,5.7881,5.9656,6.3768,6.617,6.7793,6.847,6.9214,0.0,0.0,0.0,0.0,0.0,0.0,0.0,0.0,7.3364,7.2631,7.1323,7.1289,7.1468,7.181,7.2253,7.239,7.2283,7.2189,7.2029,7.181,7.158,0.0,0.0,0.0,0.0,7.1289,7.1289,7.1612,7.218,7.2475,7.2936,7.3516,7.3891,7.401,7.401,7.401,7.401,7.401,7.401,7.401,7.401,7.401,7.401,7.401,7.401,7.4537,7.5294,7.6081,7.6854,7.7605,7.8399,7.8595,7.8595,7.8595,7.8595,7.9158,8.1022,8.2141,8.3368,8.5274,8.6358,8.6978,8.6978,8.6151,8.5306,8.4682,8.3728,8.2982,8.2613,8.2571,8.2705,8.3076,8.3106,8.3338,8.394,8.3245,8.2333,8.1369,7.9905,7.8553,7.7326,7.6675,7.6751,7.7577,7.7164,7.7727,7.9079,7.7614,7.7689,4.638,4.7902,4.9593,4.9593,4.9018,4.8698,4.983,4.9796,4.983,5.0964,5.1776,5.2435,5.2875,5.4093,5.5547,5.7137,5.8896,6.1231,6.4613,6.7421,6.9113,6.9113,7.0331,0.0,0.0,0.0,0.0,0.0,0.0,0.0,0.0,7.368,7.2969,7.1853,7.1682,7.1646,7.169,7.2296,7.2496,7.2318,7.2296,7.2202,7.1963,7.1513,0.0,0.0,0.0,0.0,7.1289,7.1289,7.158,7.2029,7.2432,7.2908,7.3375,7.3852,7.401,7.401,7.401,7.401,7.401,7.401,7.401,7.401,7.401,7.401,7.401,7.401,7.4291,7.4853,7.6011,7.6608,7.717,7.8328,7.8595,7.8595,7.8595,7.8823,7.9428,8.0905,8.2291,8.3683,8.5151,8.6271,8.6978,8.6978,8.6334,8.5637,8.5196,8.4132,8.3366,8.324,8.2917,8.288,8.3281,8.331,8.3489,8.3859,8.3581,8.3021,8.2195,8.0919,7.9492,7.7927,7.7426,7.7426,7.7889,7.7839,7.8253,7.9079,7.8165,7.824,4.6312,4.7665,4.9101,4.8809,4.8677,4.8898,4.9807,4.9877,5.0033,5.0998,5.1776,5.2435,5.2909,5.5074,5.6968,5.7408,5.9911,6.2753,6.5459,6.7827,6.935,6.9586,7.1345,0.0,0.0,0.0,0.0,0.0,0.0,0.0,0.0,7.4018,7.3308,7.2597,7.2257,7.1848,7.1481,7.2266,7.2509,7.2094,7.2446,7.236,7.1876,7.1491,7.1289,0.0,0.0,0.0,7.1289,7.1289,7.1535,7.1942,7.239,7.2832,7.3238,7.3777,7.401,7.401,7.401,7.401,7.401,7.401,7.401,7.401,7.401,7.401,7.401,7.401,7.401,7.4361,7.5906,7.6292,7.6678,7.8244,7.8595,7.8595,7.8595,7.8993,7.9649,8.0645,8.231,8.3901,8.4882,8.6113,8.6978,8.6978,8.6407,8.5964,8.5905,8.4693,8.3885,8.4024,8.3442,8.3188,8.3653,8.3657,8.3657,8.3657,8.394,8.366,8.267,8.197,8.0505,7.8115,7.8077,7.8077,7.8077,7.8778,7.9116,7.9116,7.8966,7.8966,4.8173,4.9187,4.9536,4.7885,4.7296,4.7571,4.9214,4.8878,4.88,5.0795,5.1776,5.3078,5.5649,5.6494,5.7645,6.0182,6.2584,6.4681,0.0,0.0,7.0466,7.1751,0.0,0.0,0.0,0.0,0.0,0.0,0.0,0.0,0.0,0.0,7.4086,7.3364,7.2666,7.2293,7.2225,7.2862,7.297,7.2496,7.2581,7.2189,7.1401,7.1334,7.1289,0.0,0.0,7.1289,7.1289,7.1289,7.1334,7.1491,7.2296,7.2644,7.2811,7.3677,7.401,7.401,7.401,7.401,7.401,7.401,7.401,7.401,7.401,7.401,7.401,7.401,7.401,7.4361,7.5906,7.6292,7.6678,7.8244,7.8595,7.8595,7.8595,7.8678,7.9281,8.1119,8.2272,8.3535,8.5361,8.6429,8.6978,8.6978,8.6867,8.6657,8.6275,8.6013,8.5551,8.4746,8.4557,8.4363,8.4055,8.4007,8.4007,8.4007,8.4084,8.3397,8.1857,8.167,8.0768,7.8966,7.8928,7.8928,7.8928,7.9041,7.9116,7.9079,7.8403,7.844,4.7259,4.8342,4.9434,4.9123,5.0045,5.1232,5.2071,5.2161,5.2182,5.2385,5.3348,5.4549,5.5936,5.7881,6.0486,6.4241,0.0,6.6,6.8301,6.9519,7.0759,0.0,0.0,0.0,0.0,0.0,0.0,0.0,0.0,0.0,0.0,0.0,7.4458,0.0,7.3375,7.2937,7.2779,7.3043,7.288,7.2275,7.2275,7.2072,7.169,7.1424,7.1289,7.1289,0.0,7.1289,7.1289,7.1289,7.1446,7.1722,7.2382,7.2748,7.3074,7.3737,7.401,7.401,7.401,7.401,7.401,7.401,7.401,7.401,7.401,7.401,7.401,7.401,7.401,7.4256,7.5344,7.5976,7.6573,7.7696,7.8293,7.8595,7.8595,7.9182,8.0101,8.1363,8.2878,8.4319,8.5573,8.6481,8.7046,8.7231,8.7285,8.7271,8.7222,8.6847,8.6292,8.5524,8.5059,8.4624,8.4135,8.411,8.411,8.411,8.411,8.3547,8.2295,8.182,8.1031,7.983,7.9341,7.9116,7.9116,7.9116,7.9116,7.9079,7.8703,7.8741,4.6771,4.8105,4.9961,5.0772,5.2276,5.3856,5.4974,5.5193,5.509,5.4837,5.5699,5.6646,5.7153,6.0163,6.3768,6.732,6.7117,6.7354,0.0,0.0,0.0,0.0,0.0,0.0,0.0,0.0,0.0,0.0,0.0,0.0,0.0,0.0,7.4864,0.0,7.4153,7.3661,7.3446,7.3128,7.2627,7.1985,7.1985,7.192,7.181,7.1468,7.1289,7.1289,7.1289,7.1356,7.1468,7.1468,7.1722,7.2202,7.2615,7.3053,7.3516,7.3891,7.401,7.401,7.401,7.401,7.401,7.401,7.401,7.401,7.401,7.401,7.401,7.401,7.401,7.4221,7.5133,7.5836,7.6538,7.7451,7.8153,7.8595,7.8595,7.9446,8.0506,8.1477,8.313,8.47,8.571,8.6574,8.7217,8.7464,8.7579,8.7741,8.8072,8.756,8.69,8.6199,8.5569,8.4894,8.4172,8.411,8.411,8.411,8.411,8.3697,8.2858,8.2045,8.1219,8.0405,7.9529,7.9116,7.9116,7.9116,7.9116,7.9116,7.9116,7.9116,4.8781,5.0371,5.2063,5.2163,5.1267,5.1619,5.6081,5.5332,5.46,5.7931,5.8675,5.9404,6.1535,6.4377,6.6745,6.7726,6.8436,6.918,0.0,0.0,0.0,0.0,0.0,0.0,0.0,0.0,0.0,0.0,0.0,0.0,0.0,0.0,0.0,0.0,0.0,7.4492,7.4505,7.3117,7.2293,7.1985,7.1985,7.1766,7.1356,7.1312,7.1289,7.1289,7.1289,7.1557,7.1942,7.1942,7.2167,7.2602,7.3074,7.3537,7.397,7.399,7.401,7.401,7.401,7.401,7.401,7.401,7.401,7.401,7.401,7.401,7.401,7.401,7.401,7.4326,7.5836,7.6257,7.6678,7.8174,7.856,7.8595,7.8595,7.8707,7.9358,8.145,8.2464,8.3618,8.5718,8.6833,8.7481,8.7497,8.7773,8.8087,8.8406,8.8414,8.7896,8.6595,8.6411,8.5735,8.4223,8.411,8.411,8.411,8.411,8.3697,8.2858,8.2045,8.1219,8.0405,7.9529,7.9116,7.9116,7.9116,7.9116,7.9116,7.9116,7.9116,4.7868,5.027,5.2841,5.186,5.2942,5.5108,5.8316,5.8684,5.8896,6.0723,6.1501,6.2192,6.3531,6.5425,6.7197,6.8436,6.9282,0.0,0.0,0.0,0.0,0.0,0.0,0.0,0.0,0.0,0.0,0.0,0.0,0.0,0.0,0.0,0.0,0.0,0.0,7.5067,7.4603,7.4052,7.3264,7.2225,7.1783,7.1468,7.1289,7.1289,7.1289,7.1289,7.1289,7.158,7.1985,7.1985,7.2416,7.3074,7.3557,7.3817,7.401,7.401,7.401,7.401,7.401,7.401,7.401,7.401,7.401,7.401,7.401,7.401,7.401,7.401,7.401,7.4115,7.4712,7.559,7.6432,7.7029,7.7907,7.8595,7.8595,7.8995,7.9697,8.0907,8.2457,8.3939,8.5118,8.6557,8.7579,8.7789,8.8103,8.8421,8.878,8.8823,8.8415,8.7438,8.6401,8.5312,8.4185,8.411,8.411,8.411,8.411,8.396,8.3622,8.2308,8.1444,8.1144,7.9792,7.9116,7.9116,7.9116,7.9116,7.9116,7.9116,7.9116,4.8173,5.0608,5.3382,5.2757,5.4718,5.7509,6.0216,6.0892,6.14,6.3111,6.3835,6.441,6.5155,0.0,0.0,0.0,0.0,0.0,0.0,0.0,0.0,0.0,0.0,0.0,0.0,0.0,0.0,0.0,0.0,0.0,0.0,0.0,0.0,0.0,0.0,7.5473,7.4965,7.4728,7.3984,7.2732,7.1988,7.1548,7.1312,7.1446,7.1535,7.1535,7.1656,7.1985,7.2416,7.2416,7.2859,7.3557,7.3856,7.401,7.401,7.401,7.401,7.401,7.401,7.401,7.401,7.401,7.401,7.401,7.401,7.401,7.401,7.401,7.401,7.401,7.401,7.4958,7.6046,7.6538,7.7451,7.8293,7.856,7.903,7.9705,8.0585,8.2417,8.4072,8.4954,8.662,8.79,8.8134,8.8436,8.8751,8.8978,8.8992,8.8579,8.749,8.6124,8.4961,8.4148,8.411,8.411,8.411,8.411,8.411,8.411,8.2721,8.1857,8.1594,8.0205,7.9379,7.9116,7.9116,7.9116,7.9116,7.9116,7.9116,5.027,5.1758,5.3856,5.5327,5.6274,5.7814,6.1535,6.1231,6.1197,6.4918,6.5717,6.5954,6.6656,6.7421,0.0,0.0,0.0,0.0,0.0,0.0,0.0,0.0,0.0,0.0,0.0,0.0,0.0,0.0,0.0,0.0,0.0,0.0,0.0,0.0,0.0,0.0,7.5709,7.4999,7.4255,7.35,7.2766,7.2022,7.1312,7.1766,7.1985,7.2029,7.2446,7.2887,7.3313,7.3313,7.3577,7.401,7.401,7.401,7.401,7.401,7.401,7.401,7.401,7.401,7.401,7.401,7.401,7.401,7.401,7.401,7.401,7.401,7.401,7.401,7.401,7.4537,7.5484,7.7009,7.7395,7.7605,7.8434,7.8595,7.9052,8.061,8.2215,8.3791,8.533,8.7197,8.8481,8.8481,8.8794,8.8992,8.8992,8.8992,8.8353,8.6664,8.58,8.4961,8.4148,8.411,8.411,8.411,8.411,8.411,8.411,8.3271,8.2408,8.1632,8.0818,7.9955,7.9116,7.9116,7.9116,7.9116,7.9116,7.9116,4.797,5.0963,5.4262,5.416,5.7476,6.1163,6.2821,6.2821,6.326,6.5933,6.6068,6.6068,6.7354,6.776,0.0,0.0,0.0,0.0,0.0,0.0,0.0,0.0,0.0,0.0,0.0,0.0,0.0,0.0,0.0,0.0,0.0,0.0,0.0,0.0,0.0,0.0,7.5709,7.5473,7.4999,7.4255,7.351,7.2678,7.1822,7.192,7.2159,7.2446,7.2538,7.2887,7.3334,7.3657,7.3856,7.401,7.401,7.401,7.401,7.401,7.401,7.401,7.401,7.401,7.401,7.401,7.401,7.401,7.401,7.401,7.401,7.401,7.401,7.401,7.401,7.415,7.4712,7.6257,7.7029,7.7605,7.8434,7.8911,7.9519,8.0546,8.2476,8.4275,8.5279,8.7147,8.8481,8.8481,8.8794,8.8804,8.8241,8.8166,8.7527,8.5824,8.5449,8.4961,8.4148,8.411,8.411,8.411,8.411,8.411,8.411,8.2721,8.1857,8.1594,8.0205,7.9379,7.9116,7.9116,7.9116,7.9116,7.9116,7.9116,5.0574,5.3484,5.6528,5.7273,5.9945,6.2888,6.4816,6.4999,6.5269,0.0,6.688,6.6846,6.7726,6.8639,0.0,0.0,0.0,0.0,0.0,0.0,0.0,0.0,0.0,0.0,0.0,0.0,0.0,0.0,0.0,0.0,0.0,0.0,0.0,0.0,0.0,0.0,7.5709,7.5709,7.5337,7.457,7.4153,7.3481,7.2656,7.2369,7.2382,7.2623,7.2977,7.3319,7.3597,7.3891,7.401,7.401,7.401,7.401,7.401,7.401,7.401,7.401,7.401,7.401,7.401,7.401,7.401,7.401,7.401,7.401,7.401,7.401,7.401,7.408,7.4361,7.4431,7.4747,7.6011,7.6643,7.7275,7.8384,7.9074,7.9819,8.0977,8.2921,8.4776,8.5877,8.7539,8.8708,8.8708,8.8879,8.8804,8.8353,8.8015,8.7302,8.5913,8.5486,8.4961,8.4148,8.411,8.411,8.411,8.411,8.3922,8.3585,8.2608,8.1782,8.1144,8.013,7.9454,7.9116,7.9116,7.9116,7.9116,7.9116,7.9116,5.5412,5.7577,5.9689,6.2564,6.3057,6.37,6.7218,6.7455,6.7117,6.7861,0.0,6.7963,6.8166,0.0,0.0,0.0,0.0,0.0,0.0,0.0,0.0,0.0,0.0,0.0,0.0,0.0,0.0,0.0,0.0,0.0,0.0,0.0,0.0,0.0,0.0,0.0,7.5709,7.5757,7.5419,0.0,7.4697,7.4435,7.3805,7.3042,7.2713,7.2769,7.3637,7.401,7.401,7.401,7.401,7.401,7.401,7.401,7.401,7.401,7.401,7.401,7.401,7.401,7.401,7.401,7.401,7.401,7.401,7.401,7.401,7.408,7.4115,7.4256,7.5028,7.5224,7.5414,7.6222,7.6397,7.6839,7.8467,7.9261,8.0167,8.1849,8.3628,8.5394,8.6909,8.8197,8.8992,8.8992,8.8992,8.8917,8.8766,8.8128,8.7339,8.6363,8.565,8.4899,8.4148,8.411,8.411,8.411,8.4035,8.3585,8.2745,8.2708,8.197,8.0443,8.033,7.988,7.9116,7.9116,7.9116,7.9116,7.9116,7.9116,5.1217,5.5209,5.9453,6.1313,6.3835,6.6373,6.8402,6.8233,6.7895,6.8673,6.8335,6.8436,0.0,0.0,0.0,0.0,0.0,0.0,0.0,0.0,0.0,0.0,0.0,0.0,0.0,0.0,0.0,0.0,0.0,0.0,0.0,0.0,0.0,0.0,0.0,7.5709,7.5709,7.6111,7.6043,0.0,7.5675,7.5501,7.491,7.3925,7.3546,7.3717,7.3931,7.401,7.401,7.401,7.401,7.401,7.401,7.401,7.401,7.401,7.401,7.401,7.401,7.401,7.401,7.401,7.401,7.401,7.401,7.401,7.4115,7.4677,7.4853,7.5028,7.5836,7.6046,7.6222,7.6974,7.7149,7.7735,7.9803,8.072,8.1784,8.3859,8.5399,8.6666,8.763,8.8481,8.8992,8.8992,8.8992,8.8503,8.7189,8.6889,8.6213,8.4786,8.4448,8.4298,8.411,8.411,8.411,8.411,8.3472,8.2708,8.1895,8.1857,8.1407,8.0405,7.9717,7.9304,7.9116,7.9116,7.9116,7.9116,7.9116,7.9116,5.2959,5.69,6.0622,6.2854,6.5121,6.7197,6.8741,6.847,6.8335,6.9857,6.9823,0.0,0.0,0.0,0.0,0.0,0.0,0.0,0.0,0.0,0.0,0.0,0.0,0.0,0.0,0.0,0.0,0.0,0.0,0.0,0.0,0.0,0.0,0.0,7.5709,7.5828,7.6064,7.6088,7.6088,7.6088,7.5959,7.5812,7.5626,7.4572,7.4051,7.401,7.401,7.401,7.401,7.401,7.401,7.401,7.401,7.401,7.401,7.401,7.401,7.401,7.401,7.401,7.401,7.401,7.401,7.401,7.401,7.4256,7.4607,7.4993,7.5379,7.5836,7.6643,7.6854,7.7029,7.7802,7.7676,7.8022,8.0212,8.1165,8.2262,8.4464,8.5812,8.6857,8.783,8.8554,8.8992,8.8992,8.8992,8.8541,8.7302,8.6776,8.6025,8.4824,8.4335,8.411,8.411,8.411,8.3922,8.3509,8.3046,8.2257,8.1081,8.1044,8.0618,7.9792,7.9341,7.9116,7.9116,7.9116,7.9116,7.9116,7.9116,7.9116,5.5006,5.866,6.1873,6.5087,6.6339,6.7163,6.8571,6.8504,6.8741,7.1019,0.0,0.0,0.0,0.0,0.0,0.0,0.0,0.0,0.0,0.0,0.0,0.0,0.0,0.0,0.0,0.0,0.0,0.0,0.0,0.0,0.0,0.0,7.4289,7.5676,7.5709,7.5947,7.6495,7.6041,7.6064,7.6495,7.6135,7.6028,7.6091,7.5199,7.4601,7.4185,7.408,7.401,7.401,7.401,7.401,7.401,7.401,7.401,7.401,7.401,7.401,7.401,7.401,7.401,7.401,7.401,7.401,7.401,7.401,7.4431,7.4958,7.5204,7.5765,7.6503,7.736,7.7605,7.7746,7.8454,7.8083,7.8219,8.055,8.1441,8.2479,8.481,8.5981,8.6931,8.7929,8.8583,8.8954,8.8804,8.8917,8.8654,8.7715,8.7077,8.6363,8.5411,8.4711,8.426,8.411,8.396,8.3585,8.2858,8.252,8.1782,8.0443,8.0255,7.9842,7.9116,7.9116,7.9116,7.9116,7.9116,7.9116,7.9116,7.9116,7.9116,4.9965,5.5108,6.1298,6.5595,6.6745,6.6994,6.7861,6.8504,6.9586,0.0,0.0,0.0,0.0,0.0,0.0,0.0,0.0,0.0,0.0,0.0,0.0,0.0,0.0,0.0,0.0,0.0,0.0,0.0,0.0,0.0,0.0,7.4119,7.483,7.5676,7.5709,7.5947,7.6495,7.6425,7.6425,7.6495,7.685,7.6864,7.659,7.6216,7.5655,7.4923,7.4291,7.401,7.401,7.401,7.401,7.401,7.401,7.401,7.401,7.401,7.401,7.401,7.401,7.401,7.401,7.401,7.401,7.401,7.401,7.408,7.4431,7.5765,7.6222,7.6608,7.8068,7.8454,7.849,7.8595,7.8525,7.9193,8.1907,8.2574,8.3441,8.6168,8.73,8.7892,8.8361,8.8766,8.8766,8.809,8.8541,8.8428,8.6851,8.7227,8.7039,8.5486,8.5186,8.4861,8.4148,8.3434,8.2933,8.2821,8.1482,8.0631,8.0405,7.9679,7.9229,7.9116,7.9116,7.9116,7.9116,7.9116,7.9116,7.9116,7.9116,7.9116,5.3365,5.7611,6.1738,6.5777,6.6791,6.6994,6.7726,6.8504,6.9485,0.0,0.0,0.0,0.0,0.0,0.0,0.0,0.0,0.0,0.0,0.0,0.0,0.0,0.0,0.0,0.0,0.0,0.0,0.0,0.0,0.0,7.3534,7.3815,7.4492,7.5676,7.5709,7.6088,7.6873,7.6633,7.6633,7.6896,7.7099,7.7283,7.7336,7.6782,7.5977,7.5083,7.4326,7.401,7.401,7.401,7.401,7.401,7.401,7.401,7.401,7.401,7.401,7.401,7.401,7.401,7.401,7.401,7.401,7.401,7.401,7.4291,7.4853,7.5976,7.6608,7.717,7.8293,7.8595,7.8595,7.8595,7.8864,7.9766,8.228,8.2795,8.3679,8.6696,8.7676,8.8118,8.8436,8.8794,8.8879,8.8541,8.8766,8.8579,8.7377,8.7565,8.7138,8.5486,8.4885,8.4298,8.3434,8.2608,8.1932,8.1482,8.0781,8.018,7.9679,7.9304,7.9116,7.9116,7.9116,7.9116,7.9116,7.9116,7.9116,7.9116,7.9604,7.983,5.5084,5.7968,5.9928,6.4539,6.5811,6.625,6.7387,0.0,6.9316,0.0,0.0,0.0,0.0,0.0,0.0,0.0,0.0,0.0,0.0,0.0,0.0,0.0,0.0,0.0,0.0,0.0,0.0,0.0,0.0,0.0,7.35,7.3703,7.4356,7.5676,7.5709,7.6171,7.7189,7.6964,7.6964,7.7211,7.7323,7.7566,7.7858,7.699,7.616,7.5364,7.4607,7.4185,7.401,7.401,7.401,7.401,7.401,7.401,7.401,7.401,7.401,7.401,7.401,7.401,7.401,7.401,7.401,7.401,7.401,7.4361,7.4958,7.5765,7.6397,7.7064,7.8047,7.8293,7.8328,7.856,7.9054,8.0142,8.2528,8.3459,8.4591,8.704,8.7773,8.8118,8.8436,8.8593,8.8691,8.8691,8.8503,8.8241,8.7865,8.7602,8.7001,8.5762,8.4711,8.3735,8.2858,8.1895,8.1044,8.0443,8.018,7.9792,7.9154,7.9116,7.9116,7.9116,7.9116,7.9116,7.9116,7.9116,7.9116,7.9116,7.9992,8.0405,5.051,5.2029,5.3807,6.0864,6.3159,6.4221,6.6352,0.0,0.0,0.0,0.0,0.0,0.0,0.0,0.0,0.0,0.0,0.0,0.0,0.0,0.0,0.0,0.0,0.0,0.0,0.0,0.0,0.0,0.0,0.0,7.35,7.4153,7.4897,7.5676,7.5709,7.6171,7.7189,7.761,7.761,7.7211,7.7654,7.7872,7.7858,7.6802,7.6272,7.6187,7.5379,7.4642,7.401,7.401,7.401,7.401,7.401,7.401,7.401,7.401,7.401,7.401,7.401,7.401,7.401,7.401,7.401,7.401,7.401,7.4045,7.4221,7.4958,7.5168,7.5555,7.7044,7.7465,7.7641,7.8419,7.9054,8.0259,8.3048,8.5296,8.6919,8.7431,8.7773,8.8118,8.8436,8.8143,8.7851,8.7851,8.7152,8.6926,8.7715,8.7077,8.6513,8.6438,8.5049,8.3735,8.2858,8.1369,8.0443,8.0405,7.9604,7.9154,7.9116,7.9116,7.9116,7.9116,7.9116,7.9116,7.9116,7.9116,7.9116,7.9116,7.9992,8.0405,4.9576,5.1227,5.2851,5.8177,6.1163,6.3125,6.439,6.696,6.918,0.0,0.0,0.0,0.0,0.0,0.0,0.0,0.0,0.0,0.0,0.0,0.0,0.0,0.0,0.0,0.0,0.0,0.0,0.0,0.0,0.0,7.28,7.3477,7.4221,7.4965,7.5439,7.6171,7.7189,7.7958,7.8258,7.8109,7.8258,7.8343,7.8343,7.795,7.724,7.6257,7.5976,7.5168,7.401,7.401,7.401,7.401,7.401,7.401,7.401,7.401,7.401,7.401,7.401,7.4326,7.4642,7.415,7.4326,7.4712,7.4712,7.4361,7.4256,7.552,7.5484,7.5344,7.6432,7.7044,7.7694,7.8898,8.044,8.1997,8.3411,8.5439,8.7166,8.7725,8.7931,8.818,8.8737,8.8697,8.8579,8.8579,8.8316,8.8203,8.8541,8.7865,8.6926,8.5824,8.4247,8.2721,8.1369,8.0205,7.9567,7.9567,7.9266,7.9116,7.9116,7.9642,7.9917,7.9917,7.9917,7.9642,7.9116,7.9116,7.9379,7.9955,8.0768,8.1444,4.6865,4.8796,5.0941,5.5414,5.8346,6.0791,6.3274,6.6,6.8166,0.0,0.0,0.0,0.0,0.0,0.0,0.0,0.0,0.0,0.0,0.0,0.0,0.0,0.0,0.0,0.0,0.0,0.0,0.0,0.0,0.0,7.2394,7.2868,7.3671,7.4793,7.5617,7.6473,7.7434,7.8215,7.8595,7.8595,7.8595,7.8595,7.8595,7.8328,7.7626,7.6643,7.6397,7.5414,7.401,7.401,7.401,7.401,7.401,7.401,7.401,7.401,7.401,7.401,7.401,7.4326,7.4642,7.415,7.4501,7.5118,7.5118,7.4958,7.4923,7.566,7.552,7.5224,7.5765,7.6805,7.8115,7.9799,8.1707,8.3354,8.4225,8.5781,8.72,8.7884,8.801,8.8225,8.8894,8.8766,8.8616,8.8616,8.8353,8.8278,8.8541,8.764,8.6537,8.5411,8.3571,8.1857,8.0518,7.9604,7.9116,7.9116,7.9116,7.9116,7.9116,7.9642,8.0105,8.0405,8.0105,7.983,7.9529,7.9229,7.9417,7.9992,8.1069,8.2272,0.0,0.0,0.0,5.2391,5.4623,5.7187,6.3037,0.0,6.6224,0.0,0.0,0.0,0.0,0.0,0.0,0.0,0.0,0.0,0.0,0.0,0.0,0.0,0.0,0.0,0.0,0.0,0.0,0.0,0.0,7.1616,7.2326,7.2417,7.3323,7.5231,7.6201,7.7093,7.7893,7.8364,7.8595,7.8595,7.8595,7.8595,7.8595,7.7802,7.743,7.736,7.6643,7.5449,7.408,7.408,7.4045,7.4045,7.4045,7.401,7.401,7.401,7.401,7.401,7.401,7.4045,7.408,7.4045,7.4537,7.5168,7.5224,7.5695,7.6152,7.5434,7.5133,7.5118,7.5153,7.6667,7.8817,8.104,8.2666,8.4098,8.548,8.6444,8.7217,8.7884,8.801,8.8225,8.8894,8.8353,8.7828,8.7828,8.7114,8.6889,8.7752,8.635,8.5298,8.5261,8.3059,8.1256,8.0443,7.9604,7.9116,7.9116,7.9116,7.9116,7.9154,7.9154,7.9529,8.0405,7.9567,7.9529,8.0405,7.9529,7.9154,7.9229,8.0881,8.2724,4.1467,0.0,0.0,0.0,0.0,0.0,0.0,0.0,0.0,0.0,0.0,0.0,0.0,0.0,0.0,0.0,0.0,0.0,0.0,0.0,0.0,0.0,0.0,0.0,0.0,0.0,0.0,0.0,7.1853,7.1391,7.1594,7.2428,7.3628,7.5254,7.6201,7.7093,7.7893,7.8364,7.8595,7.8595,7.8595,7.8595,7.8595,7.8363,7.7942,7.7395,7.7184,7.6573,7.566,7.566,7.5309,7.4782,7.4782,7.4466,7.401,7.401,7.401,7.401,7.401,7.4747,7.5555,7.4993,7.5695,7.6889,7.7451,7.7015,7.6468,7.7401,7.6418,7.5204,7.58,7.6722,7.808,8.0412,8.2368,8.3955,8.4917,8.6319,8.7481,8.7931,8.8195,8.8481,8.8936,8.8804,8.8654,8.8654,8.8466,8.8391,8.8654,8.7189,8.5725,8.4561,8.2721,8.1031,7.9567,7.9229,7.9116,7.9116,7.9116,7.9379,8.003,8.003,8.0443,8.1256,8.0481,8.0143,8.0405,7.9529,7.9717,8.0956,8.2646,8.3664,4.1422,4.3347,4.5716,0.0,0.0,0.0,0.0,0.0,0.0,0.0,0.0,0.0,0.0,0.0,0.0,0.0,0.0,0.0,0.0,0.0,0.0,0.0,0.0,0.0,0.0,0.0,0.0,0.0,7.236,7.1684,7.158,7.2439,7.3541,7.4941,7.5686,7.6566,7.7684,7.7677,7.7802,7.8083,7.7767,7.7647,7.7647,7.7647,7.7556,7.7395,7.7395,7.7345,7.724,7.724,7.6608,7.5575,7.5204,7.4817,7.4431,7.4115,7.401,7.401,7.401,7.4607,7.5274,7.4782,7.5695,7.7029,7.7486,7.7451,7.738,7.7942,7.6889,7.5765,7.6573,7.7196,7.8332,8.0957,8.266,8.4135,8.5673,8.6896,8.7773,8.7978,8.8271,8.8621,8.895,8.8992,8.8766,8.8053,8.8278,8.8241,8.7565,8.6588,8.55,8.4223,8.2909,8.1444,7.9792,7.9942,7.983,7.9154,7.9454,7.9717,7.9842,7.988,8.0243,8.1069,8.028,7.988,7.988,7.9717,8.0318,8.1632,8.2608,8.3347,4.2062,4.3671,4.5953,0.0,0.0,0.0,0.0,0.0,0.0,0.0,0.0,0.0,0.0,0.0,0.0,0.0,0.0,0.0,0.0,0.0,0.0,0.0,0.0,0.0,0.0,0.0,7.4593,7.4468,7.3252,7.2361,7.2134,7.248,7.3254,7.4468,7.4897,7.58,7.7254,7.6643,7.6643,7.7254,7.6608,7.6292,7.6292,7.6292,7.6678,7.729,7.736,7.7802,7.8469,7.856,7.7752,7.6362,7.5625,7.5239,7.5013,7.4361,7.408,7.401,7.408,7.4115,7.415,7.4326,7.5309,7.6468,7.6608,7.7556,7.8434,7.7605,7.6924,7.6573,7.7219,7.7848,7.9031,8.1899,8.3082,8.4223,8.6622,8.7412,8.7703,8.775,8.8115,8.8515,8.8837,8.8766,8.8203,8.6701,8.7152,8.7114,8.5599,8.5374,8.4998,8.4185,8.3309,8.2182,8.0668,8.1181,8.0919,7.9341,8.0067,8.0143,7.9266,7.9229,7.9604,8.0368,7.9529,7.9154,7.9266,8.003,8.0781,8.1482,8.167,8.2493,0.0,0.0,0.0,0.0,0.0,0.0,0.0,0.0,0.0,0.0,0.0,0.0,0.0,0.0,0.0,0.0,0.0,0.0,0.0,0.0,0.0,0.0,0.0,0.0,0.0,0.0,7.4356,7.3747,7.3232,7.2956,7.2873,7.3065,7.3579,7.4468,7.4897,7.5555,7.6503,7.6362,7.6362,7.6503,7.6362,7.6292,7.6292,7.6292,7.6362,7.6538,7.7149,7.75,7.7676,7.8328,7.8047,7.7149,7.7009,7.6187,7.5083,7.4923,7.4501,7.408,7.4677,7.4908,7.5098,7.6307,7.6939,7.7451,7.8715,7.8876,7.8434,7.7605,7.729,7.7219,7.736,7.7848,7.8772,8.0654,8.1934,8.3116,8.4532,8.5275,8.5768,8.6032,8.7061,8.7946,8.8002,8.7452,8.6889,8.6551,8.6626,8.6626,8.6326,8.5711,8.4998,8.4185,8.3309,8.2408,8.1444,8.1519,8.1181,8.0218,8.0919,8.0994,8.018,8.0143,8.0218,8.0405,7.9529,7.9454,8.0143,8.033,8.0481,8.0668,8.197,8.2862,0.0,0.0,0.0,4.7826,0.0,0.0,0.0,0.0,5.5491,5.9798,0.0,0.0,0.0,0.0,0.0,0.0,0.0,0.0,0.0,0.0,0.0,0.0,0.0,0.0,0.0,0.0,7.4458,7.4086,7.4139,7.3976,7.3442,7.3725,7.3993,7.4251,7.4472,7.4923,7.5695,7.5344,7.5344,7.5695,7.5309,7.5133,7.5133,7.5133,7.5344,7.5695,7.6081,7.6713,7.743,7.7837,7.8012,7.7977,7.757,7.6903,7.6152,7.5379,7.4872,7.4537,7.4537,7.4537,7.4677,7.5449,7.6222,7.6994,7.7802,7.8293,7.8525,7.8118,7.8012,7.8012,7.8012,7.8224,7.8832,8.0343,8.1165,8.2066,8.3835,8.4428,8.4829,8.5466,8.5864,8.6274,8.6827,8.6593,8.6199,8.5923,8.5913,8.5762,8.5349,8.4936,8.4561,8.4148,8.3697,8.3096,8.2257,8.2608,8.2308,8.1081,8.1745,8.1857,8.1044,8.1006,8.1006,8.1006,8.0581,8.0543,8.1006,8.1006,8.1006,8.1031,8.182,8.2598,0.0,0.0,0.0,0.0,0.0,4.9949,0.0,0.0,0.0,0.0,0.0,0.0,0.0,0.0,0.0,0.0,0.0,0.0,0.0,0.0,0.0,0.0,0.0,0.0,0.0,0.0,7.3984,7.4559,7.4605,7.4483,7.4158,7.4455,7.4511,7.4201,7.408,7.4291,7.4888,7.4291,7.4291,7.4888,7.4291,7.401,7.401,7.401,7.4326,7.4888,7.5048,7.58,7.6974,7.7114,7.7556,7.8118,7.7767,7.743,7.7044,7.58,7.5133,7.4817,7.4361,7.4115,7.4045,7.4361,7.5379,7.6503,7.6503,7.7486,7.8595,7.8595,7.8595,7.8595,7.8595,7.8595,7.8896,8.0015,8.0379,8.1035,8.3135,8.3612,8.3901,8.4846,8.4471,8.4346,8.5587,8.5607,8.5409,8.5027,8.4979,8.4781,8.4185,8.411,8.411,8.411,8.411,8.381,8.3121,8.3697,8.3434,8.1932,8.2595,8.2595,8.1632,8.1594,8.1594,8.1594,8.1594,8.1594,8.1594,8.1594,8.167,8.182,8.182,8.241,0.0,0.0,0.0,0.0,4.9832,0.0,0.0,0.0,0.0,0.0,0.0,0.0,0.0,0.0,0.0,0.0,0.0,0.0,0.0,0.0,0.0,0.0,0.0,0.0,0.0,0.0,0.0,7.4424,7.3005,7.3098,7.5593,7.5303,7.5023,7.4958,7.4326,7.4045,7.4115,7.4045,7.4045,7.4115,7.4045,7.401,7.401,7.401,7.4045,7.415,7.4817,7.5224,7.5414,7.6116,7.6468,7.6678,7.7963,7.7626,7.6397,7.6222,7.5309,7.4221,7.4782,7.4537,7.4221,7.559,7.6608,7.729,7.729,7.7907,7.8595,7.8595,7.8595,7.8595,7.8595,7.8595,7.8651,7.8784,7.9256,7.9935,8.1039,8.1468,8.1902,8.2845,8.2745,8.2929,8.4361,8.3945,8.3527,8.3751,8.3812,8.3858,8.4071,8.411,8.411,8.411,8.411,8.4073,8.396,8.4035,8.3697,8.2708,8.3472,8.3247,8.167,8.1594,8.1594,8.1594,8.1594,8.1594,8.1594,8.1594,8.197,8.267,8.267,8.3147,0.0,0.0,0.0,0.0,0.0,0.0,5.0711,0.0,5.192,0.0,0.0,0.0,0.0,0.0,0.0,0.0,0.0,0.0,0.0,0.0,0.0,0.0,0.0,0.0,0.0,0.0,0.0,0.0,0.0,7.2954,7.4636,7.5401,7.5555,7.5098,7.4361,7.401,7.401,7.401,7.401,7.401,7.401,7.401,7.401,7.401,7.401,7.401,7.4326,7.4677,7.5153,7.5449,7.5871,7.6362,7.6994,7.6854,7.6222,7.5765,7.5168,7.4607,7.4501,7.4256,7.4256,7.58,7.6503,7.6924,7.7837,7.8328,7.8595,7.8595,7.8595,7.8595,7.8595,7.8595,7.8595,7.8595,7.9054,7.9715,8.0457,8.0984,8.1527,8.2284,8.2284,8.2394,8.3013,8.2995,8.3039,8.3518,8.3597,8.3709,8.4071,8.411,8.411,8.411,8.411,8.411,8.411,8.411,8.3922,8.3585,8.3885,8.3772,8.3059,8.3059,8.3059,8.3059,8.3059,8.3059,8.3059,8.3059,8.3209,8.3547,8.3046,8.3271,5.246,0.0,0.0,0.0,0.0,0.0,0.0,0.0,0.0,0.0,0.0,0.0,0.0,0.0,0.0,0.0,0.0,0.0,0.0,0.0,0.0,0.0,0.0,0.0,0.0,0.0,0.0,0.0,0.0,0.0,7.4173,7.5358,7.5906,7.573,7.4782,7.4291,7.4291,7.4115,7.401,7.401,7.401,7.401,7.401,7.401,7.401,7.401,7.401,7.4291,7.4782,7.4782,7.5133,7.566,7.566,7.58,7.5906,7.5555,7.5294,7.5028,7.4501,7.4185,7.4185,7.5309,7.58,7.6222,7.7577,7.8118,7.8328,7.856,7.8595,7.8595,7.8595,7.8595,7.8595,7.8595,7.9054,7.9676,8.0288,8.0876,8.1476,8.2088,8.2186,8.2186,8.2186,8.2476,8.288,8.339,8.3555,8.3722,8.4071,8.411,8.411,8.411,8.411,8.411,8.411,8.411,8.411,8.411,8.411,8.411,8.411,8.411,8.411,8.411,8.411,8.411,8.411,8.411,8.411,8.4073,8.3472,8.3509,0.0,0.0,0.0,5.18,0.0,0.0,0.0,0.0,5.367,0.0,0.0,0.0,0.0,0.0,0.0,0.0,0.0,0.0,0.0,0.0,0.0,0.0,0.0,0.0,0.0,0.0,0.0,0.0,0.0,0.0,7.522,7.5312,7.58,7.729,7.5871,7.5083,7.5083,7.4361,7.401,7.401,7.401,7.401,7.401,7.401,7.401,7.401,7.401,7.401,7.4045,7.4045,7.4045,7.408,7.408,7.4501,7.5224,7.5976,7.5765,7.5118,7.5063,7.4607,7.401,7.408,7.4537,7.5274,7.6116,7.6889,7.7605,7.8363,7.8595,7.8595,7.8595,7.8595,7.8595,7.8595,7.9054,7.9676,8.0288,8.0876,8.1476,8.2088,8.2186,8.2186,8.2186,8.2476,8.2804,8.3076,8.3384,8.3728,8.4071,8.411,8.411,8.411,8.411,8.411,8.411,8.411,8.411,8.411,8.411,8.411,8.411,8.411,8.411,8.411,8.411,8.411,8.411,8.411,8.411,8.411,8.4073,8.4073,0.0,0.0,6.0857,5.5577,0.0,0.0,0.0,0.0,0.0,0.0,0.0,0.0,0.0,0.0,0.0,0.0,0.0,0.0,0.0,0.0,0.0,0.0,0.0,0.0,0.0,0.0,0.0,0.0,0.0,0.0,0.0,7.5017,7.58,7.736,7.6432,7.5625,7.5118,7.4853,7.4466,7.401,7.401,7.401,7.401,7.401,7.401,7.401,7.401,7.401,7.401,7.401,7.4291,7.4712,7.4712,7.5204,7.5836,7.559,7.566,7.5871,7.5871,7.5379,7.4817,7.5344,7.5695,7.6046,7.6819,7.7591,7.8258,7.8525,7.8595,7.8595,7.8595,7.8906,7.9196,7.9196,7.9966,8.075,8.0948,8.1476,8.1935,8.2154,8.2186,8.2186,8.2186,8.2628,8.3024,8.3091,8.3376,8.3709,8.4071,8.411,8.411,8.411,8.411,8.411,8.411,8.411,8.411,8.411,8.411,8.411,8.411,8.411,8.411,8.411,8.411,8.411,8.411,8.411,8.411,8.411,8.411,8.411,6.0613,6.2267,0.0,5.9025,5.9287,0.0,5.5813,0.0,0.0,0.0,0.0,0.0,0.0,0.0,0.0,0.0,0.0,0.0,0.0,0.0,0.0,0.0,0.0,0.0,0.0,0.0,0.0,0.0,0.0,0.0,0.0,0.0,7.5695,7.6974,7.6819,7.6432,7.5906,7.566,7.5133,7.4396,7.4396,7.4256,7.401,7.401,7.401,7.401,7.401,7.401,7.401,7.401,7.4431,7.5118,7.5118,7.573,7.6643,7.6116,7.6257,7.6678,7.6678,7.6187,7.559,7.6116,7.6292,7.6432,7.7184,7.7767,7.8223,7.8525,7.8595,7.8595,7.8595,7.8906,7.9236,7.944,8.0269,8.1037,8.1267,8.1785,8.2186,8.2186,8.2186,8.2186,8.2186,8.2612,8.2972,8.3091,8.3404,8.3657,8.39,8.3832,8.3767,8.3913,8.3932,8.396,8.4073,8.411,8.411,8.411,8.411,8.411,8.411,8.411,8.396,8.366,8.3922,8.396,8.366,8.396,8.411,8.411,8.411,8.411]},{"header":{"parameterUnit":"m.s-1","parameterCategory":1,"la1":30.6,"la2":29.2853,"lo1":-89.7004,"lo2":-87.6739,"dx":0.0162,"dy":0.0183,"nx":112,"ny":82,"refTime":"2023-01-08T06:00:00:Z","depth":0,"parameterNumber":3,"parameterNumberName":"V-component_of_WINDS"},"data":[0.0,0.0,0.0,0.0,0.0,0.0,0.0,0.0,0.0,0.0,0.0,0.0,0.0,0.0,0.0,0.0,0.0,0.0,0.0,0.0,0.0,0.0,0.0,0.0,0.0,0.0,0.0,0.0,0.0,0.0,0.0,0.0,0.0,0.0,0.0,0.0,0.0,0.0,0.0,0.0,0.0,0.0,0.0,0.0,0.0,0.0,0.0,0.0,0.0,0.0,0.0,0.0,0.0,0.0,0.0,0.0,0.0,0.0,0.0,0.0,0.0,0.0,0.0,0.0,0.0,0.0,0.0,0.0,0.0,0.0,0.0,0.0,0.0,0.0,0.0,0.0,0.0,0.0,0.0,0.0,0.0,0.0,0.0,0.0,0.0,0.0,0.0,0.0,0.0,0.0,0.9301,0.9768,1.0622,1.1152,1.0971,1.2506,1.2566,1.0475,0.0,0.0,0.0,0.0,0.0,0.0,0.0,0.0,0.0,0.0,0.0,0.0,0.0,0.0,0.0,0.0,0.0,0.0,0.0,0.0,0.0,0.0,0.0,0.0,0.0,0.0,0.0,0.0,0.0,0.0,0.0,0.0,0.0,0.0,0.0,0.0,0.0,0.0,0.0,0.0,0.0,0.0,0.0,0.0,0.0,0.0,0.0,0.0,0.0,0.0,0.0,0.0,0.0,0.0,0.0,0.0,0.0,0.0,0.0,0.0,0.0,0.0,0.0,0.0,0.0,0.0,0.0,0.0,0.0,0.0,0.0,0.0,0.0,0.0,0.0,0.0,0.0,0.0,0.0,0.0,0.0,0.0,0.0,0.0,0.0,0.0,0.0,0.0,0.0,0.0,0.0,0.0,0.0,0.0,0.0,0.0,0.0,0.0,0.0,0.0,0.0,0.0,0.0,0.0,0.9286,1.0569,1.0995,1.1468,1.2094,1.3079,1.3367,1.2738,0.0,0.0,0.0,0.0,0.0,0.0,0.0,0.0,0.0,0.0,0.0,0.0,0.0,0.0,0.0,0.0,0.0,0.0,0.0,0.0,0.0,0.0,0.0,0.0,0.0,0.0,0.0,0.0,0.0,0.0,0.0,0.0,0.0,0.0,0.0,0.0,0.0,0.0,0.0,0.0,0.0,0.0,0.0,0.0,0.0,0.0,0.0,0.0,0.0,0.0,0.0,0.0,0.0,0.0,0.0,0.0,0.0,0.0,0.0,0.0,0.0,0.0,0.0,0.0,0.0,0.0,0.0,0.0,0.0,0.0,0.0,0.0,0.0,0.0,0.0,0.0,0.0,0.0,0.0,0.0,0.0,0.0,0.0,0.0,0.0,0.0,0.0,0.0,0.0,0.0,0.0,0.0,0.0,0.0,0.0,0.0,0.0,0.0,0.0,0.0,0.0,0.0,0.0,0.9388,1.0157,1.1171,1.1443,1.1889,1.2808,1.3485,1.3679,1.3279,1.3157,0.0,0.0,0.0,0.0,0.0,0.0,0.0,0.0,0.0,0.0,0.0,0.0,0.0,0.0,0.0,0.0,0.0,0.0,0.0,0.0,0.0,0.0,0.0,0.0,0.0,0.0,0.0,0.0,0.0,0.0,0.0,0.0,0.0,0.0,0.0,0.0,0.0,0.0,0.0,0.0,0.0,0.0,0.0,0.0,0.0,0.0,0.0,0.0,0.0,0.0,0.0,0.0,0.0,0.0,0.0,0.0,0.0,0.0,0.0,0.0,0.0,0.0,0.0,0.0,0.0,0.0,0.0,0.0,0.0,0.0,0.0,0.0,0.0,0.0,0.0,0.0,0.0,0.0,0.0,0.0,0.0,0.0,0.0,0.0,0.0,0.0,0.0,0.0,0.0,0.0,0.0,0.0,0.0,0.0,0.0,0.0,0.0,0.0,0.0,0.0,0.0,0.0,1.0373,1.1076,1.1536,1.203,1.2481,1.2899,1.3948,1.4138,1.3122,1.3138,0.0,0.0,0.0,0.0,0.0,0.0,0.0,0.0,0.0,0.0,0.0,0.0,0.0,0.0,0.0,0.0,0.0,0.0,0.0,0.0,0.0,0.0,0.0,0.0,0.0,0.0,0.0,0.0,0.0,0.0,0.0,0.0,0.0,0.0,0.0,0.0,0.0,0.0,0.0,0.0,0.0,0.0,0.0,0.0,0.0,0.0,0.0,0.0,0.0,0.0,0.0,0.0,0.0,0.0,0.0,0.0,0.0,0.0,0.0,0.0,0.0,0.0,0.0,0.0,0.0,0.0,0.0,0.0,0.0,0.0,0.0,0.0,0.0,0.0,0.0,0.0,0.0,0.0,0.0,0.0,0.0,0.0,0.0,0.0,0.0,0.0,0.0,0.0,0.0,0.0,0.0,0.0,0.0,0.0,0.0,0.0,0.0,0.0,0.0,0.0,0.0,0.0,1.0582,1.1536,1.1613,1.2897,1.3229,1.2013,1.4568,1.511,1.2427,1.3029,0.0,0.0,0.0,0.0,0.0,0.0,0.0,0.0,0.0,0.0,0.0,0.0,0.0,0.0,0.0,0.0,0.0,0.0,0.0,0.0,0.0,0.0,0.0,0.0,0.0,0.0,0.0,0.0,0.0,0.0,0.0,0.0,0.0,0.0,0.0,0.0,0.0,0.0,0.0,0.0,0.0,0.0,0.0,0.0,0.0,0.0,0.0,0.0,0.0,0.0,0.0,0.0,0.0,0.0,0.0,0.0,0.0,0.0,0.0,0.0,0.0,0.0,0.0,0.0,0.0,0.0,0.0,0.0,0.0,0.0,0.0,0.0,0.0,0.0,0.0,0.0,0.0,0.0,0.0,0.0,0.0,0.0,0.0,0.0,0.0,0.0,0.0,0.0,0.0,0.0,0.0,0.0,0.0,0.0,0.0,0.0,0.0,0.0,0.0,0.0,0.0,0.0,1.0683,1.1619,0.0,1.2548,1.3296,1.4228,1.4847,1.5047,1.4598,0.0,0.0,0.0,0.0,0.0,0.0,0.0,0.0,0.0,0.0,0.0,0.0,0.0,0.0,0.0,0.0,0.0,0.0,0.0,0.0,0.0,0.0,0.0,0.0,0.0,0.0,0.0,0.0,0.0,0.0,0.0,0.0,0.0,0.0,0.0,0.0,0.0,0.0,0.0,0.0,0.0,0.0,0.0,0.0,0.0,0.0,0.0,0.0,0.0,0.0,0.0,0.0,0.0,0.0,0.0,0.0,0.0,0.0,0.0,0.0,0.0,0.0,0.0,0.0,0.0,0.0,0.0,0.0,0.0,0.0,0.0,0.0,0.0,0.0,0.0,0.0,0.0,0.0,0.0,0.0,0.0,0.0,0.0,0.0,0.0,0.0,0.0,0.0,0.0,0.0,0.0,0.0,0.0,0.0,0.0,0.0,0.0,0.0,0.0,0.0,0.0,0.0,0.9835,1.1239,1.245,0.0,1.3379,1.4228,1.5824,1.5903,1.5702,1.5359,0.0,0.0,0.0,0.0,0.0,0.0,0.0,0.0,0.0,0.0,0.0,0.0,0.0,0.0,0.0,0.0,0.0,0.0,0.0,0.0,0.0,0.0,0.0,0.0,0.0,0.0,0.0,0.0,0.0,0.0,0.0,0.0,0.0,0.0,0.0,0.0,0.0,0.0,0.0,0.0,0.0,0.0,0.0,0.0,0.0,0.0,0.0,0.0,0.0,0.0,0.0,0.0,0.0,0.0,0.0,0.0,0.0,0.0,0.0,0.0,0.0,0.0,0.0,0.0,0.0,0.0,0.0,0.0,0.0,0.0,0.0,0.0,0.0,0.0,0.0,0.0,0.0,0.0,0.0,0.0,0.0,0.0,0.0,0.0,0.0,0.0,0.0,0.0,0.0,0.0,0.0,0.0,0.0,0.0,0.0,0.0,0.0,0.0,0.0,0.0,0.0,0.0,1.0173,1.2372,1.419,1.4633,1.5719,1.6379,1.6339,1.7823,1.7397,0.0,0.0,0.0,0.0,0.0,0.0,0.0,0.0,0.0,0.0,0.0,0.0,0.0,0.0,0.0,0.0,0.0,0.0,0.0,0.0,0.0,0.0,0.0,0.0,0.0,0.0,0.0,0.0,0.0,0.0,0.0,0.0,0.0,0.0,0.0,0.0,0.0,0.0,0.0,0.0,0.0,0.0,0.0,0.0,0.0,0.0,0.0,0.0,0.0,0.0,0.0,0.0,0.0,0.0,0.0,0.0,0.0,0.0,0.0,0.0,0.0,0.0,0.0,0.0,0.0,0.0,0.0,0.0,0.0,0.0,0.0,0.0,0.0,0.0,0.0,0.0,0.0,0.0,0.0,0.0,0.0,0.0,0.0,0.0,0.0,0.0,0.0,0.0,0.0,0.0,0.0,0.0,0.0,0.0,0.0,0.0,0.0,0.0,0.0,0.0,0.0,0.0,0.0,1.1262,1.3784,1.5402,1.49,1.6007,1.703,1.7711,1.7765,1.7074,1.5481,0.0,0.0,0.0,0.0,0.0,0.0,0.0,0.0,0.0,0.0,0.0,0.0,0.0,0.0,0.0,0.0,0.0,0.0,0.0,0.0,0.0,0.0,0.0,0.0,0.0,0.0,0.0,0.0,0.0,0.0,0.0,0.0,0.0,0.0,0.0,0.0,0.0,0.0,0.0,0.0,0.0,0.0,0.0,0.0,0.0,0.0,0.0,0.0,0.0,0.0,0.0,0.0,0.0,0.0,0.0,0.0,0.0,0.0,0.0,0.0,0.0,0.0,0.0,0.0,0.0,0.0,0.0,0.0,0.0,0.0,0.0,0.0,0.0,0.0,0.0,0.0,0.0,0.0,0.0,0.0,0.0,0.0,0.0,0.0,0.0,0.0,0.0,0.0,0.0,0.0,0.0,0.0,0.0,0.0,0.0,0.0,0.0,0.0,0.0,0.0,0.0,0.0,1.2726,1.5342,1.7072,1.6701,1.7284,1.8146,1.9318,1.8764,1.7846,1.6743,0.0,0.0,0.0,0.0,0.0,0.0,0.0,0.0,0.0,0.0,0.0,0.0,0.0,0.0,0.0,0.0,0.0,0.0,0.0,0.0,0.0,0.0,0.0,0.0,0.0,0.0,0.0,0.0,0.0,0.0,0.0,0.0,0.0,0.0,0.0,0.0,0.0,0.0,0.0,0.0,0.0,0.0,0.0,0.0,0.0,0.0,0.0,0.0,0.0,0.0,0.0,0.0,0.0,0.0,0.0,0.0,0.0,0.0,0.0,0.0,0.0,0.0,0.0,0.0,0.0,0.0,0.0,0.0,0.0,0.0,0.0,0.0,0.0,0.0,0.0,0.0,0.0,0.0,0.0,0.0,0.0,0.0,0.0,0.0,0.0,0.0,0.0,0.0,0.0,0.0,0.0,0.0,0.0,0.0,0.0,0.0,0.0,0.0,0.0,0.0,0.0,0.0,1.4431,1.6952,1.8907,1.9248,1.9201,1.9604,2.078,2.0313,1.931,1.7841,0.0,0.0,0.0,0.0,0.0,0.0,0.0,0.0,0.0,0.0,0.0,0.0,0.0,0.0,0.0,0.0,0.0,0.0,0.0,0.0,0.0,0.0,0.0,0.0,0.0,0.0,0.0,0.0,0.0,0.0,0.0,0.0,0.0,0.0,0.0,0.0,0.0,0.0,0.0,0.0,0.0,0.0,0.0,0.0,0.0,0.0,0.0,0.0,0.0,0.0,0.0,0.0,0.0,0.0,0.0,0.0,0.0,0.0,0.0,0.0,1.7507,0.0,0.0,0.0,0.0,0.0,0.0,0.0,0.0,0.0,0.0,0.0,0.0,0.0,0.0,0.0,0.0,0.0,0.0,0.0,0.0,0.0,0.0,0.0,0.0,0.0,0.0,0.0,0.0,0.0,0.0,0.0,0.0,0.0,0.0,0.0,0.0,0.0,0.0,0.0,0.0,0.0,1.5405,1.8205,1.9937,1.937,2.0201,2.0833,2.0881,2.0436,1.9531,1.8099,1.6883,0.0,0.0,0.0,0.0,0.0,0.0,0.0,0.0,0.0,0.0,0.0,0.0,0.0,0.0,0.0,0.0,0.0,0.0,0.0,0.0,0.0,0.0,0.0,0.0,0.0,0.0,0.0,0.0,0.0,0.0,0.0,0.0,0.0,0.0,0.0,0.0,0.0,0.0,0.0,0.0,0.0,0.0,0.0,0.0,0.0,0.0,0.0,0.0,0.0,0.0,0.0,0.0,0.0,0.0,0.0,0.0,0.0,0.0,0.0,0.0,1.8125,0.0,0.0,0.0,0.0,0.0,0.0,0.0,0.0,0.0,0.0,0.0,0.0,0.0,0.0,0.0,0.0,0.0,0.0,0.0,0.0,0.0,0.0,0.0,0.0,0.0,0.0,0.0,0.0,0.0,0.0,0.0,0.0,0.0,0.0,0.0,0.0,0.0,0.0,0.0,0.0,1.6913,1.9207,2.0618,2.0292,2.0755,2.105,2.091,2.0587,1.9962,1.9029,1.783,0.0,0.0,0.0,0.0,0.0,0.0,0.0,0.0,0.0,0.0,0.0,0.0,0.0,0.0,0.0,0.0,0.0,0.0,0.0,0.0,0.0,0.0,0.0,0.0,0.0,0.0,0.0,0.0,0.0,0.0,0.0,0.0,0.0,0.0,0.0,0.0,0.0,0.0,0.0,0.0,0.0,0.0,0.0,0.0,0.0,0.0,0.0,0.0,0.0,0.0,0.0,0.0,0.0,0.0,2.2406,2.2768,2.2493,2.3118,2.4251,2.1717,2.0881,2.1127,0.0,0.0,0.0,0.0,0.0,0.0,0.0,0.0,0.0,0.0,0.0,0.0,0.0,0.0,0.0,0.0,0.0,0.0,0.0,0.0,0.0,0.0,0.0,0.0,0.0,1.9292,1.9734,0.0,0.0,0.0,0.0,0.0,0.0,0.0,0.0,0.0,0.0,0.0,0.0,1.8473,2.0048,2.1082,2.1402,2.1179,2.1017,2.0974,2.0759,2.0453,1.9979,1.8767,1.7712,0.0,0.0,0.0,0.0,0.0,0.0,0.0,0.0,0.0,0.0,0.0,0.0,0.0,0.0,0.0,0.0,0.0,0.0,0.0,0.0,0.0,0.0,0.0,0.0,0.0,0.0,0.0,0.0,0.0,0.0,0.0,0.0,1.9284,1.9071,0.0,0.0,0.0,0.0,0.0,0.0,0.0,0.0,0.0,0.0,0.0,0.0,0.0,0.0,2.1771,2.2765,2.3601,2.4316,2.4986,2.5513,2.59,2.5863,2.6317,2.7023,2.6028,0.0,2.2917,2.2352,0.0,0.0,0.0,0.0,0.0,0.0,0.0,0.0,0.0,0.0,0.0,0.0,0.0,0.0,0.0,0.0,0.0,0.0,0.0,0.0,0.0,0.0,2.1221,2.1395,2.155,2.1643,0.0,1.9294,1.7272,1.6728,0.0,0.0,0.0,0.0,0.0,0.0,0.0,0.0,1.9623,2.0716,2.1435,2.1866,2.1663,2.1448,2.1243,2.1007,2.0662,2.0199,1.9827,1.9008,1.7636,1.6807,0.0,0.0,0.0,0.0,0.0,0.0,0.0,0.0,0.0,0.0,0.0,0.0,0.0,0.0,0.0,0.0,0.0,0.0,0.0,0.0,0.0,0.0,0.0,0.0,0.0,0.0,0.0,0.0,0.0,1.9246,1.9639,2.0349,1.9881,1.9281,0.0,0.0,0.0,0.0,0.0,0.0,0.0,0.0,0.0,2.3798,2.3687,2.3987,2.4748,2.6068,2.6528,2.6097,2.7252,2.7674,2.745,2.745,2.7837,2.8455,2.7771,2.7146,2.6466,2.4647,2.2957,2.1482,0.0,0.0,0.0,0.0,0.0,1.8898,1.9682,0.0,0.0,0.0,0.0,0.0,0.0,0.0,0.0,0.0,0.0,0.0,0.0,0.0,0.0,2.2398,2.2773,2.3027,2.3027,2.2045,2.0697,0.0,1.7305,1.5763,1.4677,0.0,0.0,0.0,0.0,0.0,1.979,2.0748,2.1392,2.1597,2.1362,2.1179,2.1071,2.0845,2.0565,2.0231,2.0113,1.965,1.8756,1.7776,1.6517,0.0,0.0,0.0,0.0,0.0,0.0,0.0,0.0,0.0,0.0,0.0,0.0,0.0,0.0,0.0,0.0,0.0,0.0,0.0,0.0,0.0,0.0,0.0,0.0,0.0,0.0,0.0,0.0,2.0544,2.0771,2.161,2.1193,2.056,0.0,0.0,0.0,0.0,0.0,0.0,2.3687,2.4445,2.5404,2.6654,2.6801,2.7085,2.7613,2.8801,2.8926,2.7944,2.9137,2.948,2.9049,2.9154,2.9581,3.0169,2.9203,2.9154,2.958,2.6717,2.515,2.4491,2.337,2.2695,2.2381,2.2422,2.1843,2.1119,2.207,2.1511,2.0321,2.0137,0.0,1.8865,1.849,0.0,0.0,0.0,0.0,2.0271,2.1122,0.0,2.2552,2.3027,2.3469,2.3803,2.3803,2.3683,2.3057,0.0,1.924,1.7397,1.6267,0.0,0.0,0.0,0.0,1.909,2.0205,2.092,2.1394,2.1489,2.1233,2.106,2.1007,2.0885,2.0597,2.0242,2.0274,2.0091,1.9607,1.8681,1.7701,1.6689,0.0,0.0,0.0,0.0,0.0,0.0,0.0,0.0,0.0,0.0,0.0,0.0,0.0,0.0,0.0,0.0,0.0,0.0,0.0,0.0,0.0,0.0,0.0,0.0,0.0,0.0,0.0,0.0,0.0,2.2654,2.3391,0.0,0.0,0.0,0.0,2.2748,2.4255,2.537,2.59,2.7041,2.7889,2.8357,2.8696,2.9101,2.9543,3.0015,3.0205,3.013,3.0597,3.1019,3.1341,3.1726,3.2313,3.2905,3.1097,3.073,3.1281,2.857,2.6769,2.5673,2.5283,2.4451,2.3522,2.4425,2.3817,2.2731,2.3728,2.3102,2.1903,2.1857,2.1082,2.0157,2.0441,1.9977,0.0,0.0,2.1403,2.2058,2.2932,2.3434,2.3723,2.375,2.379,2.3803,2.3803,2.3348,2.3081,0.0,2.2279,2.086,1.9908,0.0,1.8312,1.8552,1.9079,1.9951,2.1351,2.1577,2.1685,2.1953,2.1728,2.1491,2.1316,2.1295,2.0953,2.0253,2.0425,2.0367,1.9892,1.9601,1.8853,1.7635,1.6915,0.0,0.0,0.0,0.0,0.0,0.0,0.0,0.0,0.0,0.0,0.0,0.0,0.0,0.0,0.0,0.0,0.0,0.0,0.0,0.0,0.0,0.0,0.0,0.0,0.0,0.0,0.0,0.0,2.4606,2.4719,0.0,2.4435,2.4685,2.5088,2.568,2.681,2.7707,2.8192,2.9232,2.9996,3.0417,3.0839,3.1058,3.1045,3.2181,3.2433,3.1856,3.3001,3.3412,3.3124,3.3219,3.3644,3.4296,3.3154,3.2632,3.2512,3.1123,2.9559,2.803,2.7912,2.7619,2.7315,2.7881,2.736,2.6275,2.6122,2.512,2.3766,2.2876,2.2305,2.1951,2.2077,2.2004,2.2004,2.2385,2.2819,2.3241,2.3527,2.3834,2.4048,2.4048,2.4195,2.4329,2.4329,2.4155,2.4062,2.4289,2.2557,2.098,2.0563,2.0272,1.9974,1.969,2.115,2.2458,2.3005,2.2844,2.2684,2.2658,2.1902,2.1362,2.1327,2.1136,2.0931,2.0673,2.0457,2.0264,2.0091,1.9892,1.9381,1.8624,1.8054,1.6614,0.0,0.0,0.0,0.0,0.0,0.0,0.0,0.0,0.0,0.0,0.0,0.0,0.0,0.0,0.0,0.0,0.0,0.0,0.0,0.0,0.0,0.0,0.0,0.0,0.0,0.0,2.5474,2.5856,2.6207,2.6381,2.6313,2.6654,2.7253,2.8135,2.9058,2.9813,3.0333,3.1218,3.1934,3.2363,3.2793,3.3112,3.3225,3.4238,3.4434,3.3853,3.5028,3.5337,3.4887,3.5019,3.5319,3.5735,3.4856,3.4221,3.3745,3.2924,3.172,3.0412,3.0035,2.9881,2.995,3.0463,2.9898,2.8682,2.7264,2.5862,2.4561,2.3539,2.3201,2.3201,2.3201,2.3313,2.35,2.3594,2.3768,2.3977,2.4035,2.4209,2.4342,2.4342,2.4452,2.4599,2.4599,2.4599,2.4626,2.477,2.313,2.1785,2.1842,2.176,2.1531,2.114,2.2641,2.378,2.3735,2.3596,2.3341,2.2985,2.2229,2.1632,2.1424,2.0953,2.0737,2.0899,2.0317,2.0048,2.021,1.9784,1.9338,1.9,1.828,1.6904,1.4863,0.0,0.0,0.0,0.0,0.0,0.0,0.0,0.0,0.0,0.0,0.0,0.0,0.0,0.0,0.0,0.0,0.0,0.0,0.0,0.0,0.0,0.0,0.0,2.4307,2.6664,2.7944,2.6412,2.7879,2.8468,2.6976,2.7917,2.9029,3.001,3.0838,3.1608,3.2226,3.3008,3.3652,3.4153,3.4531,3.5156,3.6001,3.6035,3.6001,3.604,3.6484,3.6714,3.6734,3.7109,3.7305,3.723,3.6103,3.5402,3.4899,3.3804,3.3068,3.2552,3.1491,3.1028,3.1165,3.1849,3.1222,2.9608,2.7027,2.5308,2.4182,2.3937,2.3843,2.383,2.383,2.383,2.3897,2.4142,2.4222,2.4289,2.4532,2.4599,2.4599,2.4599,2.4599,2.4599,2.4613,2.4613,2.4706,2.5037,2.4216,2.3553,2.3883,2.3411,2.3043,2.3056,2.3542,0.0,2.3529,2.3735,2.3627,2.3021,2.2745,2.2335,2.1659,2.0748,2.0425,2.0888,2.0048,1.9736,2.021,1.9316,1.8799,1.8803,1.7615,1.6549,1.5612,0.0,0.0,0.0,0.0,0.0,0.0,0.0,0.0,0.0,0.0,0.0,0.0,0.0,0.0,0.0,0.0,0.0,0.0,0.0,0.0,0.0,0.0,2.7002,2.6481,2.782,2.8861,2.8849,2.9621,3.0157,3.017,3.0787,3.129,3.1586,3.1819,3.2424,3.3528,3.3801,3.4375,3.5449,3.5586,3.5918,3.6484,3.6172,3.6328,3.6953,3.6792,3.6871,3.7129,3.7246,3.7305,3.725,3.6374,3.5479,3.4497,3.3965,3.3156,3.2242,3.2244,3.2227,3.2244,3.245,3.1174,2.9112,2.748,2.6005,2.4823,2.478,2.4569,2.4396,2.4396,2.4396,2.4422,2.4452,2.4479,2.4492,2.4572,2.4599,2.4599,2.4599,2.4599,2.4653,2.4917,2.4957,2.505,2.5331,2.5141,2.4825,2.4534,2.4161,2.4057,2.4458,2.534,0.0,2.6195,2.5924,2.5236,2.41,2.3663,2.282,2.1224,2.1256,2.129,2.1187,2.0647,2.0367,2.0457,1.9914,1.9267,1.8506,1.7701,1.6839,0.0,0.0,0.0,0.0,0.0,0.0,0.0,0.0,0.0,0.0,0.0,0.0,0.0,0.0,0.0,0.0,0.0,0.0,0.0,0.0,0.0,0.0,2.8533,2.9757,2.961,3.0165,3.052,3.0351,3.1178,3.1849,3.204,3.2598,3.3078,3.3223,3.3606,3.4101,3.4844,3.5092,3.5619,3.6523,3.6562,3.6758,3.7187,3.6777,3.6797,3.7285,3.7051,3.707,3.7305,3.7305,3.7305,0.0,3.6508,3.5629,3.4589,3.4108,3.3279,0.0,0.0,0.0,0.0,0.0,3.1597,2.9944,2.9092,2.7615,2.6054,2.5892,2.5273,2.4599,2.4599,2.4599,2.4599,2.4599,2.4599,2.4599,2.4599,2.4693,2.4823,2.4823,2.4917,2.5013,2.5224,2.5264,2.5344,2.5638,0.0,0.0,2.5609,2.5257,2.5192,2.5711,2.6386,2.6881,2.7054,2.6925,2.637,2.533,2.4556,2.3574,2.2185,2.1496,0.0,0.0,0.0,1.9876,1.9682,1.9536,0.0,0.0,0.0,0.0,0.0,0.0,0.0,0.0,1.3947,1.3217,0.0,0.0,0.0,0.0,0.0,0.0,0.0,0.0,0.0,0.0,0.0,0.0,0.0,0.0,0.0,0.0,3.1113,3.2656,3.291,3.2988,3.2559,3.1328,3.2637,3.3476,3.3047,3.386,3.4525,3.4824,3.5586,3.6021,3.6118,0.0,0.0,0.0,0.0,3.748,3.7816,3.7441,3.7226,3.7226,3.7168,3.7148,3.7148,3.7148,3.7148,3.7113,3.6303,3.5504,3.479,3.4018,3.3293,3.276,3.3155,3.3069,3.2689,3.2577,3.2059,0.0,0.0,0.0,0.0,2.7211,2.6066,2.4821,2.4821,2.4821,2.4784,2.4676,2.4653,2.4653,2.4693,2.493,2.5168,2.5168,2.5331,2.5518,2.5558,2.5558,2.5651,2.5984,2.6078,2.6265,2.6774,2.6413,2.6239,2.6787,2.6894,2.688,2.688,2.7175,2.7112,2.6341,0.0,0.0,2.3699,2.178,2.0804,2.1316,2.001,1.9064,1.8613,1.8832,1.8627,1.7938,1.7949,1.8108,1.8484,1.8506,1.8516,1.8473,1.5887,1.4733,0.0,0.0,0.0,0.0,0.0,0.0,0.0,0.0,0.0,0.0,0.0,0.0,0.0,0.0,0.0,3.0558,3.1152,3.1855,3.3625,3.4121,3.3984,3.3047,3.416,3.4824,3.4375,3.5449,3.6055,3.5781,3.5884,3.6328,3.7012,3.6851,0.0,3.7738,3.748,3.7344,3.7422,3.7047,3.6832,3.6832,0.0,0.0,3.6235,3.6235,3.6235,3.6167,3.4837,3.4176,3.3968,3.2895,3.256,3.276,3.3155,3.3069,3.2614,3.1903,3.1527,3.1238,3.014,2.8731,2.7528,2.841,2.7496,2.6028,2.6028,2.6028,0.0,2.5215,2.4997,2.505,2.5277,2.5384,2.5424,2.5424,2.5478,2.5585,2.5864,2.5904,2.5998,2.6292,2.6493,2.676,2.7162,2.6881,2.6774,2.7162,2.7375,2.7535,2.7535,2.7831,2.7524,2.6277,2.6516,2.5798,2.334,2.3137,2.2676,2.1616,2.0759,2.0167,1.9838,1.9908,1.9693,1.9165,1.9374,1.9295,1.8978,1.9161,1.9295,1.9273,1.8133,1.7596,0.0,0.0,0.0,0.0,0.0,0.0,0.0,0.0,0.0,0.0,0.0,2.6293,2.7142,0.0,2.9871,3.1815,3.2519,3.332,3.4824,3.541,3.5273,3.418,3.5234,3.5971,3.5703,3.6484,3.6973,3.6938,3.7168,3.748,3.791,3.7539,3.748,3.7874,3.7305,3.6992,3.6992,3.6562,3.6348,3.6348,3.6133,3.6133,3.6348,3.6348,3.6465,3.6556,3.5072,3.4403,3.4316,3.2943,3.2518,3.276,3.3155,3.3069,3.267,3.2214,3.2193,3.2284,3.163,3.0561,2.9539,3.0103,2.9164,2.7792,2.7792,2.7385,2.6797,2.6368,2.5783,2.5331,2.5478,2.5625,2.5732,2.5732,2.5852,2.5985,2.6185,2.6212,2.6305,2.6547,2.672,2.6961,2.7402,2.7482,2.7576,2.7724,2.7696,2.7749,2.7938,2.8098,2.7946,2.7236,2.7072,2.6262,2.4235,2.3242,2.2277,2.1305,2.0931,2.0522,2.0086,2.0145,2.0048,1.972,1.9946,1.9919,1.9645,1.9763,1.979,1.9698,1.9305,1.9144,0.0,0.0,0.0,0.0,0.0,0.0,0.0,2.498,2.5312,2.6264,2.7441,2.8523,2.918,3.0586,3.1973,3.2988,3.3965,3.4961,3.6113,3.6562,3.6426,3.5449,3.6269,3.6914,3.6914,3.7305,3.7676,3.8027,3.8379,3.8611,3.8611,3.8086,3.7777,3.7777,3.6992,3.6616,3.6714,3.6328,3.6191,3.6235,3.6313,3.6543,3.6832,3.691,3.7051,3.7215,3.567,3.4847,3.4577,3.3341,3.2844,3.2946,3.3254,3.3186,3.2895,3.2826,3.3035,3.3309,3.3309,3.2492,3.1522,3.1764,3.0809,2.9539,2.9462,2.8821,2.8056,2.7792,2.7055,2.6287,2.6087,2.6239,2.639,2.6156,2.6265,2.6386,2.6386,2.6426,2.6547,2.6774,2.6867,2.7148,2.7615,2.7991,2.8205,2.8272,2.8072,2.7963,2.8245,2.8219,2.8179,2.8179,2.7503,2.6542,2.5215,2.314,2.1665,2.1071,2.1039,2.077,2.0194,2.0264,2.0253,2.0097,2.021,2.0285,2.0285,2.0285,2.0177,2.0022,2.0022,1.9979,2.5409,2.4355,2.4297,2.5801,2.5571,2.5649,0.0,0.0,2.7682,2.8914,2.9911,3.0566,3.0644,3.1475,3.2648,3.4219,3.4297,3.4877,3.6875,3.7187,3.7305,3.7504,3.766,3.7773,3.7773,3.8184,3.8493,3.8532,3.8591,3.8611,3.8611,3.7812,3.7363,3.7363,3.6543,3.6289,3.6695,3.6656,3.6797,3.7168,3.7539,3.7539,3.7246,3.7617,3.7598,3.7215,3.567,3.445,3.3463,3.3314,3.3409,3.3679,3.3713,3.3713,3.3628,3.3323,3.3275,3.3309,3.3309,3.2492,3.1689,3.277,3.2072,3.0732,3.0373,3.0428,3.0352,2.9234,2.9056,2.9053,2.8191,2.8019,2.7773,2.6609,2.636,2.6386,2.6386,2.6587,2.6747,2.6774,2.7241,2.7615,2.7682,2.7991,2.8272,2.8511,2.8524,2.8511,2.8551,2.8353,2.8179,2.8179,2.8094,2.7217,2.5257,2.3872,2.2643,2.1597,2.1534,2.1416,2.1165,2.0931,2.0813,2.0791,2.0608,2.0561,2.0561,2.0561,2.055,2.0518,2.0518,2.0291,2.7591,2.668,2.6372,2.7559,2.7578,2.7637,2.8906,2.8769,2.8769,3.0106,3.0654,3.1113,3.1855,3.2726,3.3704,0.0,3.5371,3.6108,3.7461,3.7656,3.7812,3.8242,3.8301,3.8301,3.8301,3.8476,3.8611,3.8611,3.8611,3.8611,3.8611,3.7988,3.7656,3.7656,3.7324,3.709,3.7031,3.7285,3.7363,3.7305,3.7734,3.7969,3.8066,3.8476,3.8198,3.7314,3.6141,3.4978,3.3922,3.3922,3.3888,3.3799,3.3799,3.3799,3.3782,3.3665,3.3597,3.3597,3.3597,3.3258,3.294,3.3447,3.3157,3.2613,3.2408,3.201,3.1485,3.094,3.0366,2.9854,2.9449,2.9362,2.9071,2.8002,2.7741,2.7598,2.7015,2.6987,2.7134,2.7295,2.7535,2.7749,2.7965,2.8259,2.8457,2.8591,2.8604,2.8671,2.8788,2.8751,2.8604,2.843,2.7517,2.6437,2.5191,2.385,2.2692,2.1877,2.1696,2.1577,2.148,2.1243,2.1125,2.1125,2.1068,2.0885,2.0604,2.0604,2.0529,2.0361,2.0361,2.0367,2.8813,2.8186,2.7897,2.8711,2.9004,2.9199,2.9523,2.9523,2.9863,3.1289,3.1582,3.1914,3.2949,3.3848,3.4759,3.5605,3.6401,3.7148,3.7988,3.8105,3.8184,3.8379,3.8398,3.8398,3.8398,3.8496,3.8611,3.8611,3.8691,3.8787,3.8787,3.834,3.8105,3.8105,3.7871,3.7656,3.748,3.7738,3.7855,3.7832,3.8262,3.8633,3.8945,3.9016,3.8425,3.7352,3.6487,3.5568,3.4693,3.4693,3.4539,3.4244,3.4158,3.4107,3.4107,3.3987,3.3884,3.3799,3.3799,3.3799,3.3799,3.3799,3.3799,3.3782,3.3679,3.3129,3.2512,3.2512,3.191,3.1236,3.0981,3.0934,3.0606,2.9189,2.8888,2.8599,2.7541,2.7362,2.7483,2.7655,2.7762,2.7938,2.8152,2.8366,2.8511,2.8591,2.8604,2.8684,2.8855,2.8845,2.8711,2.8497,2.7273,2.6068,2.507,2.3986,2.2958,2.1962,2.1846,2.1782,2.1717,2.1566,2.1448,2.1373,2.1349,2.1144,2.0798,2.0798,2.0673,2.0511,2.0511,2.0597,2.8378,2.7916,2.7897,2.8711,2.9238,2.9911,3.1152,3.1133,3.1309,3.2957,3.3308,3.3464,3.3977,3.4746,3.5625,3.6519,3.6992,3.7578,3.8474,3.8591,3.8398,3.7952,3.7913,3.7913,0.0,3.832,3.8611,3.8611,3.8945,3.918,3.918,3.8789,3.8591,3.8591,3.7754,3.75,3.7874,3.7874,3.834,3.9141,3.9609,3.9844,3.9806,3.8994,3.8157,3.7352,3.6487,3.5865,3.5481,3.5481,3.5463,3.5429,3.507,3.4933,3.4937,3.4505,3.4145,3.3799,3.3799,3.3799,3.3799,3.3799,3.3799,3.373,3.3391,3.3508,3.3761,3.3761,3.4017,3.4067,3.3247,3.3013,3.238,2.9862,2.9272,2.8908,2.7595,2.7482,2.7682,2.7696,2.7978,2.8179,2.8179,2.8192,2.8299,2.8564,2.8604,2.8604,2.8617,2.8406,2.8205,2.8205,2.7869,2.6872,2.488,2.4625,2.3721,2.1724,2.202,2.2202,2.2007,2.1965,2.1857,2.1609,2.1394,2.1305,2.1295,2.1295,2.1254,2.1284,2.1284,2.1295,2.8634,2.8979,2.9551,3.0401,3.1191,3.1836,3.2266,3.2266,3.2324,3.2891,3.3008,3.3144,3.3555,3.4824,3.5898,3.6191,3.7305,3.8242,3.8571,3.8611,3.8418,3.7969,3.7894,0.0,0.0,0.0,0.0,3.8571,3.8437,3.8476,3.8806,3.8689,3.8611,3.8611,3.8555,3.8496,3.8359,3.8945,3.9219,3.9219,3.9961,4.0469,4.0742,3.9529,3.9008,3.8961,3.7222,3.646,3.6307,3.5753,3.5361,3.5138,3.5018,3.5023,3.5006,3.4869,3.4693,3.459,3.459,3.4419,3.4196,3.4196,3.4196,3.4179,3.4042,3.4282,3.459,3.459,3.4676,3.4735,3.4463,3.4379,3.3997,3.2457,3.2102,3.1558,2.9558,2.9243,2.9022,2.8199,2.8112,2.8179,2.8179,2.8179,2.8286,2.8564,2.8938,2.9192,2.9192,2.8925,2.8818,2.9062,2.8446,2.7278,2.5367,2.4872,2.3886,2.1982,2.2008,2.2126,2.2212,2.2212,2.218,2.2052,2.1857,2.1663,2.1502,2.1351,2.1316,2.1316,2.1103,2.1125,2.9439,2.9902,3.0527,3.1855,3.25,3.2871,3.3184,3.3125,3.3105,3.3418,3.3105,3.2969,3.3555,3.4824,3.5801,3.5801,3.7226,3.8281,3.818,3.8161,3.7949,3.7519,3.748,3.7363,0.0,0.0,0.0,3.8301,3.8223,3.834,3.8769,3.8789,3.8789,3.8789,3.8926,3.8848,3.8611,3.9297,3.9648,3.9687,4.041,4.0898,4.1172,4.0007,3.9598,3.9805,3.811,3.7252,3.6953,3.642,3.5775,3.5172,3.5172,3.5172,3.5172,3.5172,3.5258,3.5383,3.5109,3.4852,3.459,3.459,3.459,3.459,3.459,3.4779,3.504,3.5121,3.5172,3.5189,3.5344,3.5378,3.5112,3.3992,3.3718,3.3037,3.0619,3.0094,2.9718,2.8431,2.8272,2.8353,2.8353,2.8433,2.8524,2.8724,2.9179,2.9446,2.9339,2.9108,2.9068,2.9312,2.8545,2.7298,2.5647,2.4897,2.3786,2.2101,2.2007,2.2072,2.2278,2.2288,2.2288,2.2288,2.218,2.1986,2.1739,2.1599,2.148,2.1394,2.1319,2.133,3.0679,3.0664,3.0898,3.2938,3.3203,3.3144,3.3958,3.3789,3.3691,3.4414,3.3613,3.3027,0.0,0.0,3.5391,3.5391,3.6816,3.7793,3.7383,3.7305,3.7148,0.0,0.0,0.0,0.0,0.0,0.0,3.7894,0.0,3.875,3.9141,3.916,3.916,3.916,3.8826,3.863,3.865,3.9043,3.9707,4.0566,4.0976,4.1211,4.1172,4.0314,3.9922,3.9902,3.9019,3.8206,3.7485,3.7445,3.6657,3.5532,3.5532,3.5532,3.5532,3.5532,3.5772,3.5994,3.5275,3.5057,3.504,3.504,3.504,3.504,3.504,3.5057,3.5104,3.5446,3.5532,3.5618,3.5994,3.6097,3.5757,3.4506,3.4221,3.347,3.0871,3.0261,2.9844,2.8585,2.846,2.8631,2.8631,2.8815,2.9001,2.9015,2.9299,2.9379,2.9055,2.9015,2.9028,2.9041,2.8186,2.7071,2.5689,2.4699,2.3528,2.2113,2.2039,2.2083,2.2267,2.2288,2.2288,2.2278,2.2278,2.2212,2.2028,2.2007,2.1846,2.1642,2.1846,2.1825,3.1289,3.2207,3.3313,3.416,3.4551,3.4687,3.457,3.4453,3.4082,3.3058,3.2843,3.2676,3.2246,3.3945,0.0,3.5391,3.6816,0.0,3.7738,3.75,0.0,3.6753,0.0,3.7148,3.7148,3.7226,0.0,0.0,3.8552,3.865,3.8767,3.873,3.873,3.873,3.8669,3.873,3.9043,3.9805,4.0469,4.1016,4.1152,4.1211,4.1172,4.0608,4.055,4.0802,3.9581,3.876,3.8246,3.7627,3.6832,3.5943,3.5943,3.5943,3.5943,3.5943,3.6011,3.6063,3.5874,3.5618,3.5378,3.5378,3.5378,3.5378,3.5378,3.5583,3.5823,3.5909,3.5943,3.596,3.6063,3.6097,3.5999,3.5676,3.5595,3.5132,3.3429,3.2278,3.1292,3.0184,2.9398,2.8881,2.8881,2.8948,2.9068,2.9339,2.9432,2.9459,2.9379,2.9366,2.9446,2.9673,2.8587,2.7466,2.6503,2.5167,2.3855,2.26,2.2342,2.2191,2.2083,2.2202,2.2213,2.2083,2.2083,2.2137,2.2245,2.1879,2.1771,2.1879,2.176,2.1588,3.2398,3.3203,3.4023,3.5039,3.5176,3.4922,3.4277,3.3984,3.3496,3.2148,3.1914,3.1875,3.1562,3.3476,3.4961,3.459,3.6289,0.0,3.7113,3.6894,3.6719,0.0,3.7051,0.0,3.7305,3.7812,3.8184,0.0,3.8281,3.8379,3.8591,3.8611,3.8611,3.8611,3.8611,3.8867,3.9492,4.0176,4.0742,4.1211,4.1211,4.1211,4.1211,4.0918,4.0937,4.1152,0.0,3.95,3.8563,3.8087,3.7188,3.6097,3.6097,3.6097,3.6097,3.6097,3.6097,3.6097,3.6097,3.5943,3.5772,3.5772,3.5772,3.5772,3.5772,3.5909,3.6097,3.6097,3.6097,3.6097,3.6097,3.6097,3.6097,3.6097,3.6097,3.5716,3.4384,3.3526,3.2556,3.1063,2.9916,2.9272,2.9362,2.9375,2.9442,2.9646,2.9673,2.9633,2.9499,2.9593,2.974,2.99,2.8488,2.732,2.6763,2.505,2.3666,2.2902,2.2482,2.2235,2.2148,2.2224,2.2235,2.2148,2.2245,2.2363,2.2482,2.2212,2.2105,2.2126,2.2105,2.1965,3.3677,3.3926,3.4011,3.5533,3.5351,3.4551,3.3601,3.3105,3.2519,3.1543,3.1094,3.0976,3.1259,3.3144,3.4394,3.3711,3.5625,3.6953,3.6211,3.6079,3.625,3.6656,3.709,3.7402,3.7461,3.8476,3.8828,3.8144,3.8011,3.8184,3.8591,3.8669,3.8728,3.8787,3.875,3.9141,3.9961,4.0391,4.0801,4.1211,4.1211,4.1211,4.1211,4.1211,4.1211,4.1211,0.0,0.0,3.8761,3.8643,3.7667,3.6258,3.6137,3.6097,3.6097,3.6097,3.6097,3.6097,3.6097,3.6097,3.6097,3.6097,3.6097,3.6097,3.6097,3.6097,3.6097,3.6097,3.6097,3.6097,3.6097,3.6097,3.6097,3.6097,3.6097,3.5757,3.4628,3.4164,3.3348,3.1195,3.0145,2.9619,2.9873,2.9913,2.9913,2.9913,2.9913,2.982,2.9579,2.9726,2.986,2.986,2.8128,2.687,2.6734,2.4732,2.3343,2.3062,2.26,2.2321,2.2288,2.2256,2.2235,2.2202,2.2471,2.2589,2.2589,2.2589,2.2503,2.2299,2.2546,2.2514,3.4425,3.4824,3.5137,3.543,3.5391,3.4941,3.3679,3.3105,3.2344,3.0762,3.0684,3.0801,3.0488,3.248,3.4238,3.4453,3.5815,3.6753,3.6616,3.6597,3.6616,3.6695,3.7344,3.7949,3.8356,3.8555,0.0,0.0,0.0,3.8496,3.8611,3.8906,3.9258,3.9648,3.9668,3.9902,4.041,4.084,4.1132,4.1211,4.1211,4.1211,4.1211,4.1211,4.1211,4.1211,0.0,0.0,3.9627,3.888,3.8047,3.7085,3.6379,3.6097,3.6097,3.6097,3.6097,3.6097,3.6097,3.6097,3.6097,3.6097,3.6097,3.6097,3.6097,3.6097,3.6097,3.6097,3.6097,3.6097,3.6097,3.6097,3.6097,3.6097,3.6097,3.6057,3.5797,3.4403,3.2521,3.0203,2.981,2.986,2.9913,2.9913,2.9913,2.9913,2.9913,2.99,2.9847,2.9673,2.9566,2.9566,2.7851,2.6749,2.6918,2.4992,2.3635,2.3354,2.2891,2.2535,2.2299,2.2137,2.1943,2.1749,2.1976,2.2136,2.2136,2.2136,2.2169,2.2288,2.2331,2.2277,3.472,3.4883,3.4824,3.5273,3.5059,3.4375,3.3066,3.2266,3.1445,3.0137,3.0067,3.0224,3.0195,3.1953,3.3555,3.3965,3.5137,3.6074,3.6309,3.6719,3.6992,3.6992,3.793,3.8574,3.8611,3.8769,3.8984,0.0,0.0,3.8906,3.8906,3.9316,3.9668,3.9883,4.0098,4.0312,4.0489,4.0957,4.1211,4.1211,4.1211,4.1211,4.1211,4.1211,4.1211,4.1211,4.1211,0.0,3.9823,3.8959,3.8145,3.7325,3.6443,3.6097,3.6097,3.6097,3.6097,3.6097,3.6097,3.6097,3.6097,3.6097,3.6097,3.6097,3.6097,3.6097,3.6097,3.6097,3.6097,3.6097,3.6097,3.6097,3.6097,3.6097,3.6234,3.6371,3.6371,3.5317,3.3855,3.199,3.1282,3.075,3.0048,2.9913,2.9913,2.9913,2.9913,2.986,2.9713,2.9566,2.9486,2.9486,2.7901,2.681,2.6798,2.4936,2.3689,2.3418,2.3063,2.2708,2.231,2.2223,2.204,2.1803,2.1953,2.2007,2.2007,2.2007,2.2029,2.2159,2.2148,2.2159,3.4687,3.4701,3.4271,3.4941,3.4622,3.3762,3.2492,3.1534,3.0644,2.9774,2.9598,2.9735,3.0117,3.1543,3.2851,3.3457,3.459,3.5547,3.5923,3.6836,3.7402,3.7305,3.834,3.8945,3.865,3.8867,0.0,0.0,0.0,0.0,3.9492,3.9824,4.0078,4.0176,4.0391,4.0528,4.0664,4.0996,4.1211,4.1211,4.1211,4.1211,4.1211,4.1211,4.1211,4.1211,4.1211,0.0,0.0,3.9056,3.8206,3.7547,3.6523,3.6097,3.6097,3.6097,3.6097,3.6097,3.6097,3.6097,3.6097,3.6097,3.6097,3.6097,3.6097,3.6097,3.6097,3.6097,3.6097,3.6097,3.6097,3.6097,3.6097,3.6097,3.6371,3.6481,3.5931,3.5528,3.476,3.3152,3.2118,3.1182,3.0093,2.9913,2.9913,2.9913,2.9913,2.9833,2.9606,2.9579,2.9553,2.9486,2.7964,2.6858,2.6713,2.4947,2.3776,2.3483,2.3159,2.2815,2.2385,2.2278,2.2169,2.2007,2.2007,2.2007,2.2007,2.2007,2.2017,2.1986,2.2017,2.2072,3.4297,3.4434,3.4114,3.4212,3.4173,3.3762,3.2492,3.1534,3.0644,2.9774,2.9598,2.9735,3.0117,3.1338,3.2648,3.384,3.4785,3.5547,3.5923,3.7055,3.7734,3.7344,3.8086,3.865,3.8611,3.865,0.0,0.0,0.0,0.0,4.0372,4.0411,4.0644,4.1093,4.0703,4.0703,4.1152,4.1191,4.1211,4.1211,4.1211,4.1211,4.1211,4.1211,4.1211,4.1211,0.0,0.0,0.0,3.9293,3.8563,3.8325,3.6724,3.6097,3.6097,3.6097,3.6097,3.6097,3.6097,3.6097,3.6097,3.6097,3.6097,3.6097,3.6097,3.6097,3.6097,3.6097,3.6097,3.6097,3.6097,3.6097,3.6097,3.6097,3.6371,3.6014,3.3818,3.3579,3.3093,3.0698,3.0155,3.0048,2.9913,2.9913,2.9913,2.9913,2.9913,2.99,2.9887,2.9873,2.978,2.9513,2.7801,2.6737,2.6942,2.5206,2.3978,2.3776,2.33,2.289,2.2665,2.2245,2.2008,2.2007,2.2007,2.2007,2.2007,2.2007,2.2007,2.2007,2.2007,2.1986,3.4238,3.4199,3.375,3.4036,3.3723,3.3105,3.2374,3.1319,3.0293,2.9715,2.9598,2.9657,2.9813,3.0713,3.1816,3.3105,3.3809,3.4453,3.5137,3.6777,3.7676,3.7047,3.8125,3.8848,0.0,0.0,0.0,0.0,0.0,0.0,4.1328,4.1289,4.125,4.1211,4.1016,4.0996,4.1211,4.1211,4.1211,4.1211,4.1211,4.1211,4.1211,4.1211,4.1211,4.1211,0.0,0.0,0.0,3.9902,3.9096,3.8484,3.7308,3.6563,3.6097,3.6097,3.6097,3.6097,3.6097,3.6097,3.6097,3.6097,3.6097,3.6097,3.6097,3.6097,3.6097,3.6097,3.6097,3.6097,3.6097,3.6097,3.6148,3.6354,3.6696,3.6741,3.6045,3.6195,3.5654,3.2955,3.241,3.1893,3.0182,2.9913,2.9913,2.9913,2.9913,2.9913,2.9913,2.9913,2.9873,2.9753,2.8533,2.7464,2.6818,2.5695,2.4638,2.3853,2.3311,2.2901,2.2697,2.2094,2.176,2.176,2.162,2.1661,2.176,2.1661,2.162,2.176,2.176,2.1836,3.3887,3.3887,3.3496,3.3809,3.334,3.2676,3.2296,3.1152,3.0117,2.9852,2.9676,2.9637,2.9755,3.0371,3.1309,3.2578,3.3144,3.3777,3.4941,3.6621,3.7559,3.709,3.8203,3.8906,0.0,0.0,0.0,0.0,0.0,0.0,0.0,4.1875,4.1601,4.123,4.1211,4.1211,4.1211,4.1211,4.1211,4.1211,4.0938,4.0938,4.1172,4.0938,4.0977,4.1211,0.0,0.0,0.0,4.0274,3.9372,3.8524,3.7707,3.6885,3.6097,3.6097,3.6097,3.6097,3.6097,3.6097,3.6097,3.6097,3.6097,3.6097,3.6097,3.6097,3.6097,3.6097,3.6166,3.6251,3.6251,3.6337,3.6491,3.6731,3.709,3.7366,3.7225,3.7452,3.6843,3.404,3.3544,3.2866,3.0438,3.0114,3.0181,3.0181,3.01,3.0047,3.0047,2.9967,2.9913,2.9913,2.933,2.8295,2.6827,2.6047,2.5127,2.3951,2.3418,2.2965,2.2697,2.2072,2.1696,2.1579,2.1394,2.1426,2.1717,2.1491,2.1459,2.1579,2.1685,2.1846,3.3055,3.3406,3.3386,3.3406,3.3105,3.2676,3.2296,3.1152,3.0195,3.0195,2.9891,2.9715,3.0117,3.0566,3.1309,3.2578,3.3144,3.3991,3.5728,3.6758,3.7461,3.7816,3.8301,3.8611,3.8611,0.0,0.0,0.0,0.0,0.0,0.0,4.2031,4.1601,4.123,4.1211,4.1211,4.1211,4.1211,4.1211,4.1172,4.0352,4.0391,4.1172,4.0294,4.0372,0.0,0.0,0.0,0.0,4.0274,3.9372,3.8524,3.7707,3.6885,3.6097,3.6097,3.6097,3.6097,3.6097,3.6097,3.6097,3.6097,3.6097,3.6097,3.6097,3.6097,3.6097,3.6097,3.6354,3.657,3.657,3.6902,3.7193,3.721,3.7484,3.7403,3.6028,3.5978,3.5395,3.2543,3.2269,3.2048,3.0627,3.0595,3.0782,3.0782,3.0541,3.04,3.04,3.01,2.9913,2.9913,2.9869,2.9092,2.7184,2.614,2.5149,2.4153,2.3655,2.3181,2.2708,2.2234,2.1868,2.162,2.1394,2.1543,2.2007,2.1728,2.162,2.162,2.1857,2.2094,3.2207,3.2344,3.2187,3.25,3.1797,3.1152,3.1621,3.0703,2.9872,3.0137,3.0098,3.0039,3.0176,3.0586,3.1406,3.2969,3.3594,3.4375,3.5786,3.7012,3.7676,3.7519,3.8125,3.8926,0.0,0.0,0.0,0.0,0.0,0.0,0.0,4.2265,4.1894,4.123,4.1211,4.1211,4.1211,4.1211,4.0899,4.0313,4.0665,4.0626,4.0294,4.0665,0.0,0.0,0.0,0.0,0.0,4.0899,3.9922,3.8563,3.8325,3.7348,3.6097,3.6097,3.6097,3.6097,3.6097,3.6097,3.6097,3.6097,3.6097,3.6097,3.6097,3.6097,3.6097,3.6097,3.6354,3.6587,3.6587,3.6919,3.7279,3.7518,3.7715,3.7742,3.7529,3.7552,3.6866,3.4285,3.3843,3.3231,3.1066,3.0728,3.0795,3.0795,3.0541,3.04,3.04,3.01,2.9913,2.9913,2.9913,2.9092,2.7184,2.6731,2.5833,2.4199,2.3471,2.302,2.2697,2.2072,2.1631,2.1394,2.1319,2.1426,2.1728,2.1653,2.1751,2.2063,2.2029,2.2202,3.1064,3.1465,3.1543,3.166,3.0967,3.0391,3.1113,3.0391,2.9774,3.0332,3.0312,3.0254,3.043,3.0703,3.1348,3.2715,3.3184,3.4075,3.5996,3.6797,3.7308,3.7734,3.8398,0.0,0.0,0.0,0.0,0.0,0.0,0.0,0.0,4.2285,4.1875,4.123,4.1211,4.1211,4.1211,4.086,4.0626,4.0391,4.0255,4.0294,4.0391,4.0626,0.0,0.0,0.0,0.0,0.0,4.1211,4.0157,3.8603,3.8603,3.7587,3.6097,3.6097,3.6097,3.6097,3.6097,3.6097,3.6097,3.6097,3.6097,3.6097,3.6097,3.6097,3.6097,3.6097,3.6354,3.6621,3.6799,3.7124,3.7518,3.7878,3.7981,3.8032,3.8229,3.828,3.7737,3.581,3.5051,3.4112,3.2135,3.1467,3.1129,3.1129,3.0782,3.0574,3.0574,3.0167,2.9913,2.9913,2.9913,2.9092,2.7184,2.7003,2.6322,2.4749,2.3837,2.316,2.2837,2.2309,2.1825,2.1416,2.1405,2.1523,2.1749,2.1846,2.2094,2.246,2.2234,2.232,0.0,3.0644,3.125,3.084,3.0391,3.0137,3.0644,3.0126,0.0,3.0625,3.0469,3.0332,3.0801,3.0898,3.1191,3.214,3.2316,3.3371,3.6343,3.6465,3.6894,3.8513,3.9043,0.0,0.0,0.0,0.0,0.0,0.0,0.0,0.0,4.2051,4.1641,4.123,4.1211,4.1172,4.1094,4.0216,4.0216,4.1016,3.9451,3.9529,4.1094,4.0352,0.0,0.0,0.0,0.0,0.0,4.1211,4.0216,3.8682,3.8603,3.7627,3.6178,3.6137,3.6097,3.6097,3.6097,3.6097,3.6097,3.6097,3.6097,3.6097,3.6097,3.6097,3.6097,3.6097,3.6354,3.6672,3.7107,3.7484,3.7903,3.8238,3.828,3.828,3.828,3.828,3.7969,3.6838,3.5757,3.4652,3.3525,3.2404,3.1711,3.1711,3.1183,3.0808,3.0795,3.0301,2.9895,2.9824,2.9779,2.9047,2.7184,2.7003,2.6549,2.556,2.4426,2.3592,2.3051,2.2826,2.2363,2.1644,2.1653,2.176,2.2039,2.2202,2.2439,2.2675,2.2428,2.2439,2.7656,0.0,2.9484,2.9386,2.8809,2.8484,0.0,2.8965,2.8828,2.9735,3.0059,3.0332,3.0801,3.0898,3.1387,3.2891,3.3418,3.4486,3.6816,3.8203,3.9141,3.9531,3.9961,0.0,0.0,0.0,0.0,0.0,0.0,0.0,0.0,4.2304,4.1933,4.123,4.1211,4.0899,4.0216,3.9333,3.8998,3.9196,3.9451,3.9823,4.0216,4.0704,0.0,0.0,0.0,0.0,4.1211,4.1211,4.0568,3.9548,3.884,3.7968,3.7005,3.6339,3.6097,3.6097,3.6097,3.6097,3.6097,3.6097,3.6097,3.6097,3.6097,3.6097,3.6097,3.6097,3.6354,3.6672,3.7107,3.7484,3.7903,3.8238,3.828,3.828,3.828,3.828,3.7651,3.5545,3.5025,3.4319,3.2148,3.1699,3.1711,3.1711,3.1356,3.1049,3.0822,3.0474,2.9896,2.8951,2.8835,2.8326,2.7093,2.7003,2.6276,2.4566,2.4018,2.3657,2.3332,2.2912,2.2525,2.2127,2.1986,2.2008,2.2245,2.2126,2.2288,2.2675,2.2256,2.2277,2.6777,2.7656,2.8633,2.8633,2.8301,2.8151,2.8769,2.875,2.8769,2.9461,2.9931,3.0273,3.0527,3.123,3.207,3.2988,3.4004,3.5351,3.7305,3.8926,3.9902,3.9902,4.0605,0.0,0.0,0.0,0.0,0.0,0.0,0.0,0.0,4.2539,4.2129,4.1484,4.0918,4.0587,4.0509,3.9254,3.8801,3.9214,3.9254,3.9509,3.9941,4.0821,0.0,0.0,0.0,0.0,4.1211,4.1211,4.0704,3.9823,3.8919,3.8105,3.7285,3.642,3.6097,3.6097,3.6097,3.6097,3.6097,3.6097,3.6097,3.6097,3.6097,3.6097,3.6097,3.6097,3.6234,3.6508,3.7073,3.7364,3.7638,3.8203,3.828,3.828,3.828,3.7808,3.6985,3.581,3.4772,3.3651,3.2473,3.1934,3.1711,3.1711,3.1423,3.1169,3.1009,3.0621,2.9983,2.8814,2.8551,2.7933,2.6458,2.6367,2.5924,2.484,2.4263,2.3806,2.3569,2.3203,2.2794,2.2299,2.2202,2.2202,2.2288,2.232,2.2439,2.2675,2.246,2.2481,2.6738,2.7519,2.8313,2.8038,2.8033,2.8196,2.8575,2.8688,2.8887,2.9481,2.9931,3.0273,3.0547,3.1797,3.2891,3.3144,3.459,3.623,3.7793,3.916,4.0039,4.0176,4.1191,0.0,0.0,0.0,0.0,0.0,0.0,0.0,0.0,4.2734,4.2324,4.1914,4.0777,4.0546,4.1269,3.9391,3.8859,3.9706,3.8977,3.9135,4.0098,4.086,4.1211,0.0,0.0,0.0,4.1211,4.1211,4.0782,3.9981,3.8998,3.8167,3.7468,3.6483,3.6097,3.6097,3.6097,3.6097,3.6097,3.6097,3.6097,3.6097,3.6097,3.6097,3.6097,3.6097,3.6097,3.6268,3.7022,3.721,3.7398,3.8109,3.828,3.828,3.828,3.7361,3.6508,3.6487,3.4727,3.3208,3.3169,3.2357,3.1711,3.1711,3.145,3.1182,3.1002,3.0564,2.9808,2.8574,2.8223,2.7381,2.5525,2.5377,2.5377,2.5377,2.4566,2.3989,2.3754,2.3504,2.3085,2.2353,2.2342,2.2342,2.2342,2.2589,2.2686,2.2686,2.2643,2.2643,2.7812,2.8398,2.842,2.6817,2.6827,2.7292,2.7561,2.776,2.821,2.9364,2.9931,3.0644,3.2129,3.2617,3.3281,3.4746,3.6133,3.7344,0.0,0.0,4.0684,4.1426,0.0,0.0,0.0,0.0,0.0,0.0,0.0,0.0,0.0,0.0,4.2773,4.2304,4.1795,4.1581,4.1699,3.8945,3.7986,3.8801,3.8643,3.9451,4.1016,4.1133,4.1211,0.0,0.0,4.1211,4.1211,4.1211,4.1133,4.086,3.9254,3.8524,3.8206,3.6684,3.6097,3.6097,3.6097,3.6097,3.6097,3.6097,3.6097,3.6097,3.6097,3.6097,3.6097,3.6097,3.6097,3.6268,3.7022,3.721,3.7398,3.8109,3.828,3.828,3.828,3.8109,3.7391,3.5324,3.4817,3.4016,3.1915,3.1618,3.1711,3.1711,3.1671,3.122,3.0076,2.9879,2.8937,2.6619,2.6306,2.5742,2.445,2.4337,2.4337,2.4337,2.421,2.3914,2.3472,2.3418,2.316,2.2643,2.2632,2.2632,2.2632,2.2665,2.2686,2.2675,2.2482,2.2492,2.7285,2.791,2.8361,2.7405,2.8314,2.9467,2.9573,2.9888,3.0165,3.0282,3.0801,3.1534,3.2335,3.3418,3.4922,3.709,0.0,3.8105,3.9434,4.0137,4.0801,0.0,0.0,0.0,0.0,0.0,0.0,0.0,0.0,0.0,0.0,0.0,4.2988,0.0,4.2363,4.1793,4.1124,3.9762,3.916,3.9293,3.9293,3.9745,4.0509,4.0977,4.1211,4.1211,0.0,4.1211,4.1211,4.1211,4.0938,4.0372,3.9096,3.8325,3.7787,3.6563,3.6097,3.6097,3.6097,3.6097,3.6097,3.6097,3.6097,3.6097,3.6097,3.6097,3.6097,3.6097,3.6097,3.6217,3.6748,3.7056,3.7347,3.7895,3.8186,3.828,3.828,3.7874,3.6927,3.4956,3.4382,3.3533,3.157,3.1476,3.1521,3.089,3.0856,3.0423,2.9237,2.9006,2.8194,2.6352,2.6005,2.5419,2.4175,2.4118,2.4118,2.4118,2.4118,2.3957,2.3646,2.3461,2.3235,2.2891,2.2751,2.2686,2.2686,2.2686,2.2686,2.2675,2.2568,2.2579,2.7037,2.7773,2.87,2.8616,2.9765,3.1015,3.15,3.1746,3.1846,3.166,3.2198,3.2746,3.3039,3.4779,3.6816,3.8867,3.875,3.8887,0.0,0.0,0.0,0.0,0.0,0.0,0.0,0.0,0.0,0.0,0.0,0.0,0.0,0.0,4.3223,0.0,4.2812,4.2101,4.1132,4.0901,4.0517,3.9902,3.9902,4.002,4.0216,4.0899,4.1211,4.1211,4.1211,4.1094,4.0899,4.0899,4.0372,3.9509,3.8661,3.7827,3.7005,3.6339,3.6097,3.6097,3.6097,3.6097,3.6097,3.6097,3.6097,3.6097,3.6097,3.6097,3.6097,3.6097,3.6097,3.62,3.6645,3.6987,3.733,3.7775,3.8118,3.828,3.828,3.7681,3.6795,3.548,3.4487,3.3418,3.2099,3.1564,3.1046,3.0223,2.9889,2.9411,2.8404,2.8081,2.7452,2.6148,2.5804,2.5197,2.4186,2.4118,2.4118,2.4118,2.4118,2.4,2.3808,2.3526,2.3289,2.3008,2.2805,2.2686,2.2686,2.2686,2.2686,2.2686,2.2686,2.2686,2.8164,2.9082,3.0059,3.0041,2.9562,2.9577,3.1447,3.1425,3.1523,3.3489,3.3919,3.4297,3.5527,3.7168,3.8535,3.9101,3.9512,3.9941,0.0,0.0,0.0,0.0,0.0,0.0,0.0,0.0,0.0,0.0,0.0,0.0,0.0,0.0,0.0,0.0,0.0,4.3008,4.2907,4.2108,4.111,3.9902,3.9902,4.0294,4.1094,4.1172,4.1211,4.1211,4.1211,4.0743,3.9981,3.9981,3.949,3.8603,3.7787,3.6965,3.6178,3.6137,3.6097,3.6097,3.6097,3.6097,3.6097,3.6097,3.6097,3.6097,3.6097,3.6097,3.6097,3.6097,3.6097,3.6251,3.6987,3.7193,3.7398,3.8075,3.8263,3.828,3.828,3.8229,3.7958,3.7172,3.5856,3.4636,3.3819,3.1766,3.0175,3.0128,2.9315,2.8356,2.7345,2.7189,2.6611,2.5087,2.488,2.4686,2.4151,2.4118,2.4118,2.4118,2.4118,2.4,2.3808,2.3526,2.3289,2.3008,2.2805,2.2686,2.2686,2.2686,2.2686,2.2686,2.2686,2.2686,2.7637,2.9023,3.0508,2.9941,3.0566,3.1737,3.3288,3.3668,3.4004,3.5059,3.5508,3.5952,3.668,3.7773,3.8845,3.9512,4.0,0.0,0.0,0.0,0.0,0.0,0.0,0.0,0.0,0.0,0.0,0.0,0.0,0.0,0.0,0.0,0.0,0.0,0.0,4.334,4.3127,4.2754,4.2086,4.1071,4.082,4.0899,4.1211,4.1211,4.1211,4.1211,4.1211,4.0704,3.9902,3.9902,3.9114,3.7787,3.6925,3.6402,3.6097,3.6097,3.6097,3.6097,3.6097,3.6097,3.6097,3.6097,3.6097,3.6097,3.6097,3.6097,3.6097,3.6097,3.6097,3.6148,3.644,3.6868,3.7279,3.757,3.7998,3.828,3.828,3.8529,3.8334,3.7138,3.6067,3.4983,3.3743,3.1611,2.9889,2.9267,2.8308,2.7297,2.6245,2.61,2.5823,2.5124,2.4775,2.4463,2.414,2.4118,2.4118,2.4118,2.4118,2.4075,2.3978,2.3601,2.3354,2.3268,2.288,2.2686,2.2686,2.2686,2.2686,2.2686,2.2686,2.2686,2.7812,2.9219,3.082,3.0497,3.1631,3.3203,3.4766,3.5156,3.5449,3.6391,3.6855,3.7187,3.7617,0.0,0.0,0.0,0.0,0.0,0.0,0.0,0.0,0.0,0.0,0.0,0.0,0.0,0.0,0.0,0.0,0.0,0.0,0.0,0.0,0.0,0.0,4.3574,4.3281,4.3144,4.2715,4.1992,4.1562,4.1308,4.1172,4.0938,4.0782,4.0782,4.049,3.9902,3.9114,3.9114,3.8282,3.6925,3.6322,3.6097,3.6097,3.6097,3.6097,3.6097,3.6097,3.6097,3.6097,3.6097,3.6097,3.6097,3.6097,3.6097,3.6097,3.6097,3.6097,3.6097,3.6097,3.6559,3.709,3.733,3.7775,3.8186,3.8263,3.8546,3.8499,3.7738,3.6157,3.4663,3.3839,3.1207,2.8932,2.8212,2.7249,2.6342,2.5566,2.5518,2.5399,2.5087,2.4747,2.4412,2.4129,2.4118,2.4118,2.4118,2.4118,2.4118,2.4118,2.372,2.3472,2.3397,2.2998,2.2762,2.2686,2.2686,2.2686,2.2686,2.2686,2.2686,2.9023,2.9883,3.1094,3.1983,3.2531,3.3379,3.5527,3.5351,3.5332,3.748,3.7894,3.803,3.8532,3.8926,0.0,0.0,0.0,0.0,0.0,0.0,0.0,0.0,0.0,0.0,0.0,0.0,0.0,0.0,0.0,0.0,0.0,0.0,0.0,0.0,0.0,0.0,4.3711,4.3301,4.2871,4.2382,4.2012,4.1582,4.1172,4.0294,3.9902,3.9823,3.8977,3.8145,3.7405,3.7405,3.6885,3.6097,3.6097,3.6097,3.6097,3.6097,3.6097,3.6097,3.6097,3.6097,3.6097,3.6097,3.6097,3.6097,3.6097,3.6097,3.6097,3.6097,3.6097,3.6097,3.6097,3.6354,3.6816,3.7612,3.78,3.7903,3.8255,3.828,3.8503,3.9316,3.6229,3.3695,3.4475,3.0397,2.7104,2.7104,2.6197,2.5518,2.5518,2.5518,2.5335,2.485,2.4603,2.4412,2.4129,2.4118,2.4118,2.4118,2.4118,2.4118,2.4118,2.3927,2.3679,2.3408,2.3127,2.2879,2.2686,2.2686,2.2686,2.2686,2.2686,2.2686,2.7695,2.9386,3.1328,3.1269,3.3184,3.5312,3.6269,3.6269,3.6523,3.8066,3.8144,3.8144,3.8887,3.9121,0.0,0.0,0.0,0.0,0.0,0.0,0.0,0.0,0.0,0.0,0.0,0.0,0.0,0.0,0.0,0.0,0.0,0.0,0.0,0.0,0.0,0.0,4.3711,4.3574,4.3301,4.2871,4.2441,4.1539,4.0274,4.002,3.9588,3.8977,3.8722,3.8145,3.7365,3.6724,3.6322,3.6097,3.6097,3.6097,3.6097,3.6097,3.6097,3.6097,3.6097,3.6097,3.6097,3.6097,3.6097,3.6097,3.6097,3.6097,3.6097,3.6097,3.6097,3.6097,3.6097,3.6166,3.644,3.7193,3.757,3.7903,3.8255,3.7533,3.6975,3.7452,3.4532,3.2139,3.2576,2.9582,2.7104,2.7104,2.6197,2.5464,2.5303,2.5281,2.5098,2.466,2.4552,2.4412,2.4129,2.4118,2.4118,2.4118,2.4118,2.4118,2.4118,2.372,2.3472,2.3397,2.2998,2.2762,2.2686,2.2686,2.2686,2.2686,2.2686,2.2686,2.9199,3.0879,3.2637,3.3066,3.4609,3.6309,3.7422,3.7574,3.7731,0.0,3.8613,3.8594,3.9101,3.9629,0.0,0.0,0.0,0.0,0.0,0.0,0.0,0.0,0.0,0.0,0.0,0.0,0.0,0.0,0.0,0.0,0.0,0.0,0.0,0.0,0.0,0.0,4.3711,4.3711,4.3496,4.3107,4.2812,4.1627,3.9655,3.9447,3.9096,3.8563,3.7888,3.7308,3.6845,3.6339,3.6097,3.6097,3.6097,3.6097,3.6097,3.6097,3.6097,3.6097,3.6097,3.6097,3.6097,3.6097,3.6097,3.6097,3.6097,3.6097,3.6097,3.6097,3.6097,3.6131,3.6268,3.6303,3.6457,3.7073,3.7381,3.769,3.8178,3.7188,3.6323,3.6797,3.3555,3.0908,3.131,2.8654,2.6487,2.6487,2.5906,2.5464,2.5335,2.5238,2.5033,2.4635,2.4563,2.4412,2.4129,2.4118,2.4118,2.4118,2.4118,2.4064,2.3967,2.3688,2.3451,2.3268,2.2977,2.2783,2.2686,2.2686,2.2686,2.2686,2.2686,2.2686,3.1992,3.3242,3.4505,3.6167,3.6406,3.6777,3.8809,3.8945,3.875,3.918,0.0,3.9238,3.9355,0.0,0.0,0.0,0.0,0.0,0.0,0.0,0.0,0.0,0.0,0.0,0.0,0.0,0.0,0.0,0.0,0.0,0.0,0.0,0.0,0.0,0.0,0.0,4.3711,4.3628,4.3433,0.0,4.2964,4.1685,3.9501,3.8939,3.856,3.8286,3.6764,3.6097,3.6097,3.6097,3.6097,3.6097,3.6097,3.6097,3.6097,3.6097,3.6097,3.6097,3.6097,3.6097,3.6097,3.6097,3.6097,3.6097,3.6097,3.6097,3.6097,3.6131,3.6148,3.6217,3.6594,3.6638,3.6782,3.7176,3.7261,3.7425,3.8007,3.7065,3.6218,3.6763,3.2942,2.9873,3.051,2.7755,2.5518,2.5518,2.5518,2.5496,2.5453,2.527,2.5044,2.4764,2.456,2.4344,2.4129,2.4118,2.4118,2.4118,2.4097,2.3967,2.3776,2.3765,2.3504,2.3019,2.2987,2.2858,2.2686,2.2686,2.2686,2.2686,2.2686,2.2686,2.957,3.1875,3.4368,3.5444,3.6855,3.832,3.9492,3.9394,3.9199,3.9648,3.9453,3.9512,0.0,0.0,0.0,0.0,0.0,0.0,0.0,0.0,0.0,0.0,0.0,0.0,0.0,0.0,0.0,0.0,0.0,0.0,0.0,0.0,0.0,0.0,0.0,4.3711,4.3711,4.3007,4.2969,0.0,4.1786,4.1047,4.115,3.9773,3.8234,3.6604,3.6258,3.6097,3.6097,3.6097,3.6097,3.6097,3.6097,3.6097,3.6097,3.6097,3.6097,3.6097,3.6097,3.6097,3.6097,3.6097,3.6097,3.6097,3.6097,3.6097,3.6148,3.6422,3.6508,3.6594,3.6987,3.709,3.7176,3.7595,3.768,3.7547,3.7107,3.5939,3.4768,3.4254,3.1136,2.8683,2.9002,2.7104,2.5518,2.5518,2.5518,2.5378,2.5001,2.4915,2.4721,2.4312,2.4215,2.4172,2.4118,2.4118,2.4118,2.4118,2.3935,2.3765,2.3483,2.3472,2.3343,2.3008,2.2858,2.274,2.2686,2.2686,2.2686,2.2686,2.2686,2.2686,3.0537,3.2851,3.5,3.6289,3.7598,3.8845,3.9687,3.9531,3.9453,4.0332,4.0312,0.0,0.0,0.0,0.0,0.0,0.0,0.0,0.0,0.0,0.0,0.0,0.0,0.0,0.0,0.0,0.0,0.0,0.0,0.0,0.0,0.0,0.0,0.0,4.3711,4.3504,4.309,4.3048,4.3048,4.3048,4.2321,4.1699,4.1062,3.939,3.768,3.6097,3.6097,3.6097,3.6097,3.6097,3.6097,3.6097,3.6097,3.6097,3.6097,3.6097,3.6097,3.6097,3.6097,3.6097,3.6097,3.6097,3.6097,3.6097,3.6097,3.6217,3.6388,3.6577,3.6765,3.6987,3.7381,3.7484,3.757,3.7946,3.7937,3.7581,3.6872,3.5608,3.4337,3.3484,3.0915,2.8851,2.8644,2.6863,2.5518,2.5518,2.5518,2.5389,2.5033,2.4883,2.4667,2.4323,2.4183,2.4118,2.4118,2.4118,2.4064,2.3946,2.3862,2.3635,2.3202,2.3191,2.3117,2.288,2.2751,2.2686,2.2686,2.2686,2.2686,2.2686,2.2686,2.2686,3.1758,3.3867,3.5723,3.7578,3.8301,3.8826,3.959,3.9551,3.9687,4.1054,0.0,0.0,0.0,0.0,0.0,0.0,0.0,0.0,0.0,0.0,0.0,0.0,0.0,0.0,0.0,0.0,0.0,0.0,0.0,0.0,0.0,0.0,4.2891,4.3691,4.3711,4.3297,4.2402,4.3131,4.309,4.2402,4.2965,4.2197,4.0193,3.8523,3.7195,3.6183,3.6131,3.6097,3.6097,3.6097,3.6097,3.6097,3.6097,3.6097,3.6097,3.6097,3.6097,3.6097,3.6097,3.6097,3.6097,3.6097,3.6097,3.6097,3.6097,3.6303,3.6559,3.6679,3.6953,3.7313,3.7783,3.7903,3.7972,3.8212,3.8083,3.7623,3.6603,3.5464,3.4322,3.3247,3.1135,2.9245,2.8464,2.6766,2.5507,2.5464,2.5496,2.5421,2.5152,2.4969,2.4764,2.4542,2.429,2.4161,2.4118,2.4075,2.3967,2.3808,2.3711,2.3451,2.3019,2.2965,2.2847,2.2686,2.2686,2.2686,2.2686,2.2686,2.2686,2.2686,2.2686,2.2686,2.8848,3.1816,3.5391,3.7871,3.8535,3.8728,3.918,3.9551,4.0176,0.0,0.0,0.0,0.0,0.0,0.0,0.0,0.0,0.0,0.0,0.0,0.0,0.0,0.0,0.0,0.0,0.0,0.0,0.0,0.0,0.0,0.0,4.2793,4.3203,4.3691,4.3711,4.3297,4.2402,4.2527,4.2527,4.2402,4.1672,4.0654,3.9235,3.7896,3.7002,3.6542,3.6234,3.6097,3.6097,3.6097,3.6097,3.6097,3.6097,3.6097,3.6097,3.6097,3.6097,3.6097,3.6097,3.6097,3.6097,3.6097,3.6097,3.6097,3.6097,3.6131,3.6303,3.6953,3.7176,3.7364,3.8024,3.8212,3.8229,3.828,3.8246,3.7667,3.5667,3.5104,3.4349,3.2324,3.022,2.8452,2.749,2.6294,2.5453,2.526,2.5389,2.5356,2.4904,2.5012,2.4958,2.4563,2.4477,2.4334,2.4129,2.3924,2.383,2.3797,2.3365,2.3073,2.3008,2.2848,2.2718,2.2686,2.2686,2.2686,2.2686,2.2686,2.2686,2.2686,2.2686,2.2686,3.0849,3.3262,3.5644,3.8024,3.8611,3.8728,3.9101,3.9551,4.0117,0.0,0.0,0.0,0.0,0.0,0.0,0.0,0.0,0.0,0.0,0.0,0.0,0.0,0.0,0.0,0.0,0.0,0.0,0.0,0.0,0.0,4.2401,4.2617,4.3008,4.3691,4.3711,4.3048,4.163,4.2151,4.2151,4.1588,4.121,4.0445,3.9405,3.8597,3.7674,3.657,3.6251,3.6097,3.6097,3.6097,3.6097,3.6097,3.6097,3.6097,3.6097,3.6097,3.6097,3.6097,3.6097,3.6097,3.6097,3.6097,3.6097,3.6097,3.6097,3.6234,3.6508,3.7056,3.7364,3.7638,3.8186,3.828,3.828,3.828,3.7722,3.672,3.5297,3.4985,3.4181,3.1341,2.9602,2.826,2.7249,2.6197,2.5486,2.5389,2.5453,2.5399,2.5055,2.5109,2.5038,2.4563,2.4391,2.4172,2.3924,2.3688,2.3494,2.3365,2.3116,2.2944,2.2848,2.274,2.2686,2.2686,2.2686,2.2686,2.2686,2.2686,2.2686,2.2686,2.2826,2.2891,3.2245,3.3891,3.4949,3.7355,3.8044,3.8298,3.8906,0.0,4.0019,0.0,0.0,0.0,0.0,0.0,0.0,0.0,0.0,0.0,0.0,0.0,0.0,0.0,0.0,0.0,0.0,0.0,0.0,0.0,0.0,0.0,4.2382,4.2499,4.293,4.3691,4.3711,4.2822,4.1042,4.1462,4.1462,4.1,4.0789,4.0325,3.9671,3.8965,3.792,3.6707,3.6388,3.6183,3.6097,3.6097,3.6097,3.6097,3.6097,3.6097,3.6097,3.6097,3.6097,3.6097,3.6097,3.6097,3.6097,3.6097,3.6097,3.6097,3.6097,3.6268,3.6559,3.6953,3.7261,3.7587,3.8066,3.8186,3.8203,3.8263,3.7232,3.5891,3.4713,3.4304,3.3375,3.0609,2.9315,2.826,2.7249,2.619,2.5432,2.5432,2.5378,2.5303,2.5195,2.512,2.4947,2.4592,2.429,2.4011,2.3808,2.3483,2.3191,2.3019,2.2944,2.288,2.2697,2.2686,2.2686,2.2686,2.2686,2.2686,2.2686,2.2686,2.2686,2.2686,2.289,2.3008,3.0688,3.1572,3.2331,3.5361,3.6465,3.7125,3.8356,0.0,0.0,0.0,0.0,0.0,0.0,0.0,0.0,0.0,0.0,0.0,0.0,0.0,0.0,0.0,0.0,0.0,0.0,0.0,0.0,0.0,0.0,0.0,4.2382,4.2812,4.3242,4.3691,4.3711,4.2822,4.1042,4.024,4.024,4.1,4.0155,3.9731,3.9671,3.8031,3.7252,3.7159,3.6765,3.6405,3.6097,3.6097,3.6097,3.6097,3.6097,3.6097,3.6097,3.6097,3.6097,3.6097,3.6097,3.6097,3.6097,3.6097,3.6097,3.6097,3.6097,3.6114,3.62,3.6559,3.6662,3.685,3.7629,3.7835,3.792,3.8195,3.7232,3.5629,3.3448,3.2422,3.1529,3.0319,2.9315,2.826,2.7249,2.6057,2.5243,2.5243,2.499,2.4926,2.5152,2.4969,2.4807,2.4786,2.4387,2.4011,2.3808,2.3332,2.3019,2.3008,2.2826,2.2697,2.2686,2.2686,2.2686,2.2686,2.2686,2.2686,2.2686,2.2686,2.2686,2.2686,2.289,2.3008,3.0567,3.1162,3.1874,3.3843,3.5312,3.6445,3.7223,3.8708,3.9941,0.0,0.0,0.0,0.0,0.0,0.0,0.0,0.0,0.0,0.0,0.0,0.0,0.0,0.0,0.0,0.0,0.0,0.0,0.0,0.0,0.0,4.2031,4.2422,4.2851,4.3281,4.3555,4.2822,4.1042,3.9561,3.8965,3.9263,3.8965,3.8794,3.8794,3.8177,3.7672,3.7193,3.7056,3.6662,3.6097,3.6097,3.6097,3.6097,3.6097,3.6097,3.6097,3.6097,3.6097,3.6097,3.6097,3.6251,3.6405,3.6166,3.6251,3.644,3.644,3.6268,3.6217,3.6833,3.6816,3.6748,3.7279,3.7629,3.7632,3.7105,3.6183,3.4964,3.3278,3.2263,3.1189,2.9459,2.8836,2.8068,2.639,2.5695,2.5399,2.5399,2.5324,2.5292,2.5389,2.5195,2.4926,2.466,2.4207,2.372,2.3332,2.2998,2.2815,2.2815,2.2729,2.2686,2.2686,2.2837,2.2869,2.2869,2.2869,2.2837,2.2686,2.2686,2.2762,2.2879,2.316,2.3354,2.9964,3.0491,3.1255,3.2763,3.3941,3.5098,3.6577,3.8105,3.9355,0.0,0.0,0.0,0.0,0.0,0.0,0.0,0.0,0.0,0.0,0.0,0.0,0.0,0.0,0.0,0.0,0.0,0.0,0.0,0.0,0.0,4.1797,4.207,4.232,4.2639,4.2293,4.163,4.0578,3.905,3.828,3.828,3.828,3.828,3.828,3.8203,3.7861,3.7381,3.7261,3.6782,3.6097,3.6097,3.6097,3.6097,3.6097,3.6097,3.6097,3.6097,3.6097,3.6097,3.6097,3.6251,3.6405,3.6166,3.6337,3.6587,3.6587,3.6559,3.6542,3.6902,3.6833,3.6638,3.6953,3.7047,3.6841,3.5894,3.4946,3.3942,3.2595,3.2019,3.1093,2.898,2.8596,2.7923,2.5858,2.5453,2.541,2.541,2.5335,2.5313,2.5389,2.513,2.4865,2.4542,2.4013,2.3472,2.3041,2.2826,2.2686,2.2686,2.2686,2.2686,2.2686,2.2837,2.2922,2.3008,2.2922,2.2891,2.2805,2.2718,2.2772,2.289,2.3246,2.33,0.0,0.0,0.0,3.2105,3.2336,3.3058,3.6441,0.0,3.8186,0.0,0.0,0.0,0.0,0.0,0.0,0.0,0.0,0.0,0.0,0.0,0.0,0.0,0.0,0.0,0.0,0.0,0.0,0.0,0.0,4.1348,4.1758,4.1757,4.1748,4.1701,3.9985,3.9281,3.9689,3.8751,3.828,3.828,3.828,3.828,3.828,3.7946,3.7817,3.7783,3.7381,3.6799,3.6131,3.6131,3.6114,3.6114,3.6114,3.6097,3.6097,3.6097,3.6097,3.6097,3.6097,3.6114,3.6131,3.6114,3.6354,3.6662,3.6638,3.6919,3.7142,3.6741,3.6645,3.6587,3.6604,3.6158,3.5505,3.4818,3.3767,3.2598,3.1482,3.1463,3.1046,2.898,2.8596,2.7923,2.5858,2.5335,2.5184,2.5184,2.498,2.4915,2.5163,2.4811,2.4509,2.4498,2.3817,2.33,2.3019,2.2826,2.2686,2.2686,2.2686,2.2686,2.2697,2.2697,2.2805,2.3008,2.2815,2.2805,2.3008,2.2805,2.2697,2.2718,2.3192,2.2844,2.8699,0.0,0.0,0.0,0.0,0.0,0.0,0.0,0.0,0.0,0.0,0.0,0.0,0.0,0.0,0.0,0.0,0.0,0.0,0.0,0.0,0.0,0.0,0.0,0.0,0.0,0.0,0.0,4.1484,4.1269,4.1387,4.103,4.1128,4.166,3.9985,3.9281,3.9689,3.8751,3.828,3.828,3.828,3.828,3.828,3.822,3.8015,3.78,3.7697,3.7347,3.6902,3.6902,3.6731,3.6474,3.6474,3.632,3.6097,3.6097,3.6097,3.6097,3.6097,3.6457,3.685,3.6577,3.6919,3.7501,3.7775,3.7511,3.7296,3.7699,3.722,3.6679,3.697,3.6133,3.5429,3.5959,3.4487,3.2859,3.2756,3.1578,3.0175,2.8836,2.8019,2.7104,2.5712,2.5464,2.5421,2.5421,2.5367,2.5346,2.5421,2.5001,2.4581,2.4247,2.372,2.3235,2.2815,2.2718,2.2686,2.2686,2.2686,2.2762,2.2901,2.2901,2.3019,2.33,2.303,2.2933,2.3008,2.2805,2.2858,2.3214,2.3698,2.2515,2.9308,2.9618,3.0367,0.0,0.0,0.0,0.0,0.0,0.0,0.0,0.0,0.0,0.0,0.0,0.0,0.0,0.0,0.0,0.0,0.0,0.0,0.0,0.0,0.0,0.0,0.0,0.0,0.0,4.1777,4.123,4.0704,4.005,3.9826,4.011,3.8772,3.8331,3.8891,3.8201,3.7946,3.8083,3.7929,3.7818,3.7818,3.7818,3.7827,3.78,3.78,3.7724,3.7672,3.7672,3.7364,3.6809,3.6679,3.6491,3.6303,3.6148,3.6097,3.6097,3.6097,3.6388,3.6713,3.6474,3.6919,3.757,3.7792,3.7775,3.7741,3.8015,3.7501,3.6953,3.7347,3.6408,3.544,3.5886,3.4397,3.2718,3.2085,3.0665,2.9315,2.8692,2.7779,2.6777,2.5664,2.5518,2.5453,2.5249,2.5313,2.5303,2.5109,2.4829,2.4517,2.4151,2.3774,2.3354,2.288,2.2923,2.2891,2.2697,2.2783,2.2858,2.2847,2.2858,2.3009,2.3246,2.302,2.2858,2.2858,2.2858,2.3031,2.3408,2.3688,2.2187,3.056,3.0864,3.162,0.0,0.0,0.0,0.0,0.0,0.0,0.0,0.0,0.0,0.0,0.0,0.0,0.0,0.0,0.0,0.0,0.0,0.0,0.0,0.0,0.0,0.0,0.0,4.3066,4.3048,4.2186,4.1148,4.0036,3.8996,3.8286,3.7892,3.7037,3.697,3.7732,3.7381,3.7381,3.7732,3.7364,3.721,3.721,3.721,3.7398,3.7749,3.7783,3.7946,3.8272,3.8263,3.787,3.7244,3.6885,3.6696,3.6536,3.6268,3.6131,3.6097,3.6131,3.6148,3.6166,3.6251,3.6731,3.7296,3.7364,3.7827,3.8255,3.7903,3.7518,3.7347,3.7715,3.6767,3.5601,3.5292,3.399,3.2383,3.0621,2.9407,2.8655,2.8512,2.7624,2.6587,2.5631,2.5453,2.5292,2.4861,2.499,2.498,2.4596,2.4531,2.4423,2.414,2.3938,2.3614,2.3084,2.3278,2.3203,2.2751,2.2912,2.2933,2.2729,2.2718,2.2826,2.2998,2.2805,2.2697,2.2729,2.2901,2.3116,2.3365,2.3418,2.2056,0.0,0.0,0.0,0.0,0.0,0.0,0.0,0.0,0.0,0.0,0.0,0.0,0.0,0.0,0.0,0.0,0.0,0.0,0.0,0.0,0.0,0.0,0.0,0.0,0.0,0.0,4.293,4.2578,4.1433,4.0648,4.0394,3.8645,3.7744,3.7892,3.7037,3.685,3.7313,3.7244,3.7244,3.7313,3.7244,3.721,3.721,3.721,3.7244,3.733,3.768,3.7852,3.7937,3.8203,3.8066,3.768,3.7612,3.7159,3.657,3.6542,3.6337,3.6131,3.6422,3.6484,3.6628,3.7269,3.7577,3.7775,3.8392,3.8417,3.8255,3.7903,3.7749,3.7715,3.7783,3.6767,3.5795,3.6279,3.4411,3.2322,3.1343,3.0093,2.8906,2.8109,2.6669,2.5478,2.5286,2.5076,2.4915,2.4818,2.484,2.484,2.4753,2.4628,2.4423,2.414,2.3938,2.3679,2.3354,2.3375,2.3278,2.2955,2.3203,2.3225,2.2944,2.2933,2.2955,2.3008,2.2805,2.2783,2.2933,2.2987,2.303,2.3084,2.3504,2.2785,0.0,0.0,0.0,3.4589,0.0,0.0,0.0,0.0,3.3548,3.4786,0.0,0.0,0.0,0.0,0.0,0.0,0.0,0.0,0.0,0.0,0.0,0.0,0.0,0.0,0.0,0.0,4.2988,4.2773,4.1733,4.0742,3.9927,3.8481,3.7448,3.702,3.6574,3.6542,3.6919,3.6748,3.6748,3.6919,3.6731,3.6645,3.6645,3.6645,3.6748,3.6919,3.7107,3.7416,3.7817,3.7964,3.8049,3.8032,3.7886,3.756,3.7142,3.6765,3.6467,3.6354,3.6354,3.6354,3.6422,3.6799,3.7176,3.7553,3.7946,3.8186,3.8246,3.8101,3.8049,3.8049,3.8049,3.7521,3.6969,3.6773,3.5608,3.3993,3.1867,3.0834,2.9831,2.8079,2.697,2.6171,2.5822,2.565,2.5329,2.474,2.4635,2.4592,2.4474,2.4355,2.4247,2.4129,2.4,2.3828,2.3635,2.3688,2.3601,2.3202,2.344,2.3472,2.3191,2.318,2.318,2.318,2.3106,2.3095,2.318,2.318,2.318,2.3235,2.3461,2.2858,0.0,0.0,0.0,0.0,0.0,3.4289,0.0,0.0,0.0,0.0,0.0,0.0,0.0,0.0,0.0,0.0,0.0,0.0,0.0,0.0,0.0,0.0,0.0,0.0,0.0,0.0,4.2715,4.3047,4.1781,4.0546,3.9586,3.8347,3.72,3.624,3.6131,3.6234,3.6525,3.6234,3.6234,3.6525,3.6234,3.6097,3.6097,3.6097,3.6251,3.6525,3.6553,3.697,3.7595,3.7663,3.7827,3.8101,3.7929,3.7817,3.7629,3.697,3.6645,3.6491,3.6268,3.6148,3.6114,3.6268,3.6765,3.7313,3.7313,3.7792,3.828,3.828,3.828,3.828,3.828,3.828,3.8108,3.7205,3.679,3.5709,3.2382,3.1573,3.0797,2.8338,2.7854,2.7609,2.6678,2.6479,2.6061,2.4884,2.4769,2.4611,2.414,2.4118,2.4118,2.4118,2.4118,2.4032,2.3884,2.4,2.3924,2.3494,2.3733,2.3733,2.3408,2.3397,2.3397,2.3397,2.3397,2.3397,2.3397,2.3397,2.3418,2.3461,2.3461,2.2951,0.0,0.0,0.0,0.0,3.6081,0.0,0.0,0.0,0.0,0.0,0.0,0.0,0.0,0.0,0.0,0.0,0.0,0.0,0.0,0.0,0.0,0.0,0.0,0.0,0.0,0.0,0.0,4.2969,4.0156,3.8918,4.0299,3.8059,3.6693,3.6559,3.6251,3.6114,3.6148,3.6114,3.6114,3.6148,3.6114,3.6097,3.6097,3.6097,3.6114,3.6166,3.6491,3.6638,3.6782,3.7124,3.7296,3.7398,3.7972,3.7861,3.7261,3.7176,3.6731,3.62,3.6474,3.6354,3.62,3.6868,3.7364,3.7749,3.7749,3.7998,3.828,3.828,3.828,3.828,3.828,3.828,3.8254,3.816,3.7169,3.5589,3.3102,3.2245,3.1235,2.888,2.9048,2.9112,2.7563,2.7073,2.6587,2.5605,2.5674,2.5388,2.4256,2.4118,2.4118,2.4118,2.4118,2.4107,2.4075,2.4097,2.4,2.3765,2.3935,2.3871,2.3418,2.3397,2.3397,2.3397,2.3397,2.3397,2.3397,2.3397,2.3504,2.3754,2.3754,2.3793,0.0,0.0,0.0,0.0,0.0,0.0,3.3366,0.0,3.2051,0.0,0.0,0.0,0.0,0.0,0.0,0.0,0.0,0.0,0.0,0.0,0.0,0.0,0.0,0.0,0.0,0.0,0.0,0.0,0.0,3.8688,3.9685,3.7953,3.685,3.6628,3.6268,3.6097,3.6097,3.6097,3.6097,3.6097,3.6097,3.6097,3.6097,3.6097,3.6097,3.6097,3.6251,3.6422,3.6604,3.6799,3.7005,3.7244,3.7553,3.7484,3.7176,3.6953,3.6662,3.6388,3.6337,3.6217,3.6217,3.697,3.7313,3.7518,3.7964,3.8203,3.828,3.828,3.828,3.828,3.828,3.828,3.828,3.828,3.7232,3.57,3.3893,3.2719,3.1449,2.9644,2.9644,2.9684,2.899,2.8325,2.7332,2.5833,2.5708,2.5343,2.4256,2.4118,2.4118,2.4118,2.4118,2.4118,2.4118,2.4118,2.4064,2.3967,2.4054,2.4021,2.3817,2.3817,2.3817,2.3817,2.3817,2.3817,2.3817,2.3817,2.386,2.3957,2.3862,2.3927,3.8114,0.0,0.0,0.0,0.0,0.0,0.0,0.0,0.0,0.0,0.0,0.0,0.0,0.0,0.0,0.0,0.0,0.0,0.0,0.0,0.0,0.0,0.0,0.0,0.0,0.0,0.0,0.0,0.0,0.0,3.8973,3.7777,3.7022,3.6936,3.6474,3.6234,3.6234,3.6148,3.6097,3.6097,3.6097,3.6097,3.6097,3.6097,3.6097,3.6097,3.6097,3.6234,3.6474,3.6474,3.6645,3.6902,3.6902,3.697,3.7022,3.685,3.6672,3.6594,3.6337,3.6183,3.6183,3.6731,3.697,3.7176,3.7784,3.8101,3.8203,3.8263,3.828,3.828,3.828,3.828,3.828,3.828,3.7232,3.5787,3.4391,3.2984,3.1582,3.0182,2.9913,2.9913,2.9913,2.9105,2.7933,2.6243,2.5845,2.5297,2.4256,2.4118,2.4118,2.4118,2.4118,2.4118,2.4118,2.4118,2.4118,2.4118,2.4118,2.4118,2.4118,2.4118,2.4118,2.4118,2.4118,2.4118,2.4118,2.4118,2.4118,2.4107,2.3935,2.3946,0.0,0.0,0.0,3.6145,0.0,0.0,0.0,0.0,3.2408,0.0,0.0,0.0,0.0,0.0,0.0,0.0,0.0,0.0,0.0,0.0,0.0,0.0,0.0,0.0,0.0,0.0,0.0,0.0,0.0,0.0,3.8482,3.7344,3.697,3.7749,3.7005,3.657,3.657,3.6268,3.6097,3.6097,3.6097,3.6097,3.6097,3.6097,3.6097,3.6097,3.6097,3.6097,3.6114,3.6114,3.6114,3.6131,3.6131,3.6337,3.6638,3.7056,3.6953,3.6587,3.6611,3.6388,3.6097,3.6131,3.6354,3.6713,3.7124,3.7501,3.7903,3.822,3.828,3.828,3.828,3.828,3.828,3.828,3.7232,3.5787,3.4391,3.2984,3.1582,3.0182,2.9913,2.9913,2.9913,2.9105,2.8158,2.7093,2.6391,2.5548,2.4256,2.4118,2.4118,2.4118,2.4118,2.4118,2.4118,2.4118,2.4118,2.4118,2.4118,2.4118,2.4118,2.4118,2.4118,2.4118,2.4118,2.4118,2.4118,2.4118,2.4118,2.4118,2.4107,2.4107,0.0,0.0,4.2415,3.8376,0.0,0.0,0.0,0.0,0.0,0.0,0.0,0.0,0.0,0.0,0.0,0.0,0.0,0.0,0.0,0.0,0.0,0.0,0.0,0.0,0.0,0.0,0.0,0.0,0.0,0.0,0.0,3.7147,3.697,3.7783,3.7279,3.6885,3.6587,3.6508,3.632,3.6097,3.6097,3.6097,3.6097,3.6097,3.6097,3.6097,3.6097,3.6097,3.6097,3.6097,3.6234,3.644,3.644,3.6679,3.6987,3.6868,3.6902,3.7005,3.7005,3.6765,3.6491,3.6748,3.6919,3.709,3.7467,3.7844,3.8169,3.8246,3.828,3.828,3.828,3.7636,3.6929,3.6929,3.5134,3.3293,3.2808,3.1582,3.0482,3.0003,2.9913,2.9913,2.9913,2.8552,2.7377,2.7048,2.6288,2.5343,2.4256,2.4118,2.4118,2.4118,2.4118,2.4118,2.4118,2.4118,2.4118,2.4118,2.4118,2.4118,2.4118,2.4118,2.4118,2.4118,2.4118,2.4118,2.4118,2.4118,2.4118,2.4118,2.4118,2.4118,4.4038,4.4415,0.0,4.0047,3.8594,0.0,3.3619,0.0,0.0,0.0,0.0,0.0,0.0,0.0,0.0,0.0,0.0,0.0,0.0,0.0,0.0,0.0,0.0,0.0,0.0,0.0,0.0,0.0,0.0,0.0,0.0,0.0,3.6919,3.7595,3.7467,3.7279,3.7022,3.6902,3.6645,3.6285,3.6285,3.6217,3.6097,3.6097,3.6097,3.6097,3.6097,3.6097,3.6097,3.6097,3.6303,3.6587,3.6587,3.6936,3.7381,3.7124,3.7193,3.7398,3.7398,3.7159,3.6868,3.7124,3.721,3.7279,3.7697,3.7929,3.8152,3.8246,3.828,3.828,3.828,3.7636,3.6843,3.6307,3.4435,3.2587,3.2115,3.0884,2.9913,2.9913,2.9913,2.9913,2.9913,2.8597,2.741,2.7048,2.6197,2.5377,2.4703,2.4932,2.5012,2.4657,2.4315,2.4075,2.4107,2.4118,2.4118,2.4118,2.4118,2.4118,2.4118,2.4118,2.4075,2.3989,2.4064,2.4075,2.3989,2.4075,2.4118,2.4118,2.4118,2.4118]}]]